﻿<?xml version="1.0" encoding="utf-8"?><gpx creator="Garmin Desktop App" version="1.1" xsi:schemaLocation="http://www.topografix.com/GPX/1/1 http://www.topografix.com/GPX/1/1/gpx.xsd http://www.garmin.com/xmlschemas/WaypointExtension/v1 http://www8.garmin.com/xmlschemas/WaypointExtensionv1.xsd http://www.garmin.com/xmlschemas/TrackPointExtension/v1 http://www.garmin.com/xmlschemas/TrackPointExtensionv1.xsd http://www.garmin.com/xmlschemas/GpxExtensions/v3 http://www8.garmin.com/xmlschemas/GpxExtensionsv3.xsd http://www.garmin.com/xmlschemas/ActivityExtension/v1 http://www8.garmin.com/xmlschemas/ActivityExtensionv1.xsd http://www.garmin.com/xmlschemas/AdventuresExtensions/v1 http://www8.garmin.com/xmlschemas/AdventuresExtensionv1.xsd http://www.garmin.com/xmlschemas/PressureExtension/v1 http://www.garmin.com/xmlschemas/PressureExtensionv1.xsd http://www.garmin.com/xmlschemas/TripExtensions/v1 http://www.garmin.com/xmlschemas/TripExtensionsv1.xsd http://www.garmin.com/xmlschemas/TripMetaDataExtensions/v1 http://www.garmin.com/xmlschemas/TripMetaDataExtensionsv1.xsd http://www.garmin.com/xmlschemas/ViaPointTransportationModeExtensions/v1 http://www.garmin.com/xmlschemas/ViaPointTransportationModeExtensionsv1.xsd http://www.garmin.com/xmlschemas/CreationTimeExtension/v1 http://www.garmin.com/xmlschemas/CreationTimeExtensionsv1.xsd http://www.garmin.com/xmlschemas/AccelerationExtension/v1 http://www.garmin.com/xmlschemas/AccelerationExtensionv1.xsd http://www.garmin.com/xmlschemas/PowerExtension/v1 http://www.garmin.com/xmlschemas/PowerExtensionv1.xsd http://www.garmin.com/xmlschemas/VideoExtension/v1 http://www.garmin.com/xmlschemas/VideoExtensionv1.xsd" xmlns="http://www.topografix.com/GPX/1/1" xmlns:xsi="http://www.w3.org/2001/XMLSchema-instance" xmlns:wptx1="http://www.garmin.com/xmlschemas/WaypointExtension/v1" xmlns:gpxtrx="http://www.garmin.com/xmlschemas/GpxExtensions/v3" xmlns:gpxtpx="http://www.garmin.com/xmlschemas/TrackPointExtension/v1" xmlns:gpxx="http://www.garmin.com/xmlschemas/GpxExtensions/v3" xmlns:trp="http://www.garmin.com/xmlschemas/TripExtensions/v1" xmlns:adv="http://www.garmin.com/xmlschemas/AdventuresExtensions/v1" xmlns:prs="http://www.garmin.com/xmlschemas/PressureExtension/v1" xmlns:tmd="http://www.garmin.com/xmlschemas/TripMetaDataExtensions/v1" xmlns:vptm="http://www.garmin.com/xmlschemas/ViaPointTransportationModeExtensions/v1" xmlns:ctx="http://www.garmin.com/xmlschemas/CreationTimeExtension/v1" xmlns:gpxacc="http://www.garmin.com/xmlschemas/AccelerationExtension/v1" xmlns:gpxpx="http://www.garmin.com/xmlschemas/PowerExtension/v1" xmlns:vidx1="http://www.garmin.com/xmlschemas/VideoExtension/v1">

  <metadata>
    <link href="http://www.garmin.com">
      <text>Garmin International</text>
    </link>
    <time>2020-02-29T15:32:40Z</time>
    <bounds maxlat="46.445093918591738" maxlon="8.45180262811482" minlat="46.416356228291988" minlon="8.415150325745344" />
  </metadata>

  <trk>
    <name>rupe del gesso2020-02-23</name>
    <extensions>
      <gpxx:TrackExtension>
        <gpxx:DisplayColor>Yellow</gpxx:DisplayColor>
      </gpxx:TrackExtension>
      <gpxtrkx:TrackStatsExtension xmlns:gpxtrkx="http://www.garmin.com/xmlschemas/TrackStatsExtension/v1">
        <gpxtrkx:Distance>12740</gpxtrkx:Distance>
        <gpxtrkx:TotalElapsedTime>21651</gpxtrkx:TotalElapsedTime>
        <gpxtrkx:MovingTime>14974</gpxtrkx:MovingTime>
        <gpxtrkx:StoppedTime>6668</gpxtrkx:StoppedTime>
        <gpxtrkx:MovingSpeed>1</gpxtrkx:MovingSpeed>
        <gpxtrkx:MaxSpeed>2</gpxtrkx:MaxSpeed>
        <gpxtrkx:MaxElevation>2440</gpxtrkx:MaxElevation>
        <gpxtrkx:MinElevation>1721</gpxtrkx:MinElevation>
        <gpxtrkx:Ascent>790</gpxtrkx:Ascent>
        <gpxtrkx:Descent>804</gpxtrkx:Descent>
        <gpxtrkx:AvgAscentRate>0</gpxtrkx:AvgAscentRate>
        <gpxtrkx:MaxAscentRate>1</gpxtrkx:MaxAscentRate>
        <gpxtrkx:AvgDescentRate>0</gpxtrkx:AvgDescentRate>
        <gpxtrkx:MaxDescentRate>-1</gpxtrkx:MaxDescentRate>
      </gpxtrkx:TrackStatsExtension>
    </extensions>
    <trkseg>
      <trkpt lat="46.416363269090652" lon="8.415248477831483">
        <ele>1736.51</ele>
        <time>2020-02-23T09:00:30Z</time>
      </trkpt>
      <trkpt lat="46.416363436728716" lon="8.415248896926642">
        <ele>1736.51</ele>
        <time>2020-02-23T09:00:31Z</time>
      </trkpt>
      <trkpt lat="46.416364358738065" lon="8.415248645469546">
        <ele>1735.27</ele>
        <time>2020-02-23T09:00:35Z</time>
      </trkpt>
      <trkpt lat="46.416362598538399" lon="8.415254345163703">
        <ele>1735.47</ele>
        <time>2020-02-23T09:00:57Z</time>
      </trkpt>
      <trkpt lat="46.416360251605511" lon="8.415256440639496">
        <ele>1736.8</ele>
        <time>2020-02-23T09:01:00Z</time>
      </trkpt>
      <trkpt lat="46.416356228291988" lon="8.41526297852397">
        <ele>1735.9300000000001</ele>
        <time>2020-02-23T09:01:14Z</time>
      </trkpt>
      <trkpt lat="46.416368884965777" lon="8.415273791179061">
        <ele>1735.9000000000001</ele>
        <time>2020-02-23T09:01:16Z</time>
      </trkpt>
      <trkpt lat="46.416398221626878" lon="8.4152942430228">
        <ele>1735.9300000000001</ele>
        <time>2020-02-23T09:01:19Z</time>
      </trkpt>
      <trkpt lat="46.416515065357089" lon="8.415423827245832">
        <ele>1735.8199999999999</ele>
        <time>2020-02-23T09:01:32Z</time>
      </trkpt>
      <trkpt lat="46.416667783632874" lon="8.41555517166853">
        <ele>1735.72</ele>
        <time>2020-02-23T09:01:48Z</time>
      </trkpt>
      <trkpt lat="46.416764426976442" lon="8.415675954893231">
        <ele>1735.3</ele>
        <time>2020-02-23T09:02:00Z</time>
      </trkpt>
      <trkpt lat="46.41687280498445" lon="8.415804114192724">
        <ele>1734.8499999999999</ele>
        <time>2020-02-23T09:02:14Z</time>
      </trkpt>
      <trkpt lat="46.416957546025515" lon="8.415858093649149">
        <ele>1734.45</ele>
        <time>2020-02-23T09:02:23Z</time>
      </trkpt>
      <trkpt lat="46.417123088613153" lon="8.416044590994716">
        <ele>1734.3</ele>
        <time>2020-02-23T09:02:40Z</time>
      </trkpt>
      <trkpt lat="46.417171200737357" lon="8.416085243225098">
        <ele>1734.03</ele>
        <time>2020-02-23T09:02:45Z</time>
      </trkpt>
      <trkpt lat="46.417219396680593" lon="8.416113238781691">
        <ele>1734.02</ele>
        <time>2020-02-23T09:02:50Z</time>
      </trkpt>
      <trkpt lat="46.417438415810466" lon="8.416235698387027">
        <ele>1733.8699999999999</ele>
        <time>2020-02-23T09:03:10Z</time>
      </trkpt>
      <trkpt lat="46.417615190148354" lon="8.416307447478175">
        <ele>1733.8599999999999</ele>
        <time>2020-02-23T09:03:24Z</time>
      </trkpt>
      <trkpt lat="46.417836891487241" lon="8.416391266509891">
        <ele>1734.6300000000001</ele>
        <time>2020-02-23T09:03:42Z</time>
      </trkpt>
      <trkpt lat="46.418083570897579" lon="8.41647332534194">
        <ele>1735.4000000000001</ele>
        <time>2020-02-23T09:04:02Z</time>
      </trkpt>
      <trkpt lat="46.418343661352992" lon="8.416529316455126">
        <ele>1736.9300000000001</ele>
        <time>2020-02-23T09:04:22Z</time>
      </trkpt>
      <trkpt lat="46.418595118448138" lon="8.416562676429749">
        <ele>1737.52</ele>
        <time>2020-02-23T09:04:41Z</time>
      </trkpt>
      <trkpt lat="46.418825956061482" lon="8.416550355032086">
        <ele>1737.1800000000001</ele>
        <time>2020-02-23T09:04:58Z</time>
      </trkpt>
      <trkpt lat="46.418992001563311" lon="8.416530573740602">
        <ele>1737.1099999999999</ele>
        <time>2020-02-23T09:05:11Z</time>
      </trkpt>
      <trkpt lat="46.4191634953022" lon="8.416509367525578">
        <ele>1736.51</ele>
        <time>2020-02-23T09:05:25Z</time>
      </trkpt>
      <trkpt lat="46.419430878013372" lon="8.416534513235092">
        <ele>1736.4000000000001</ele>
        <time>2020-02-23T09:05:45Z</time>
      </trkpt>
      <trkpt lat="46.419607317075133" lon="8.416557898744941">
        <ele>1735.6600000000001</ele>
        <time>2020-02-23T09:06:00Z</time>
      </trkpt>
      <trkpt lat="46.419703122228384" lon="8.416549516841769">
        <ele>1735.75</ele>
        <time>2020-02-23T09:06:08Z</time>
      </trkpt>
      <trkpt lat="46.419738912954926" lon="8.416592180728912">
        <ele>1735.6300000000001</ele>
        <time>2020-02-23T09:06:17Z</time>
      </trkpt>
      <trkpt lat="46.41974737867713" lon="8.4165945276618">
        <ele>1735.6500000000001</ele>
        <time>2020-02-23T09:06:18Z</time>
      </trkpt>
      <trkpt lat="46.419794736430049" lon="8.416647333651781">
        <ele>1735.6600000000001</ele>
        <time>2020-02-23T09:06:24Z</time>
      </trkpt>
      <trkpt lat="46.419831281527877" lon="8.416738277301192">
        <ele>1735.72</ele>
        <time>2020-02-23T09:06:31Z</time>
      </trkpt>
      <trkpt lat="46.419915519654751" lon="8.416799632832408">
        <ele>1735.6800000000001</ele>
        <time>2020-02-23T09:06:42Z</time>
      </trkpt>
      <trkpt lat="46.419931277632713" lon="8.416801644489169">
        <ele>1736.1900000000001</ele>
        <time>2020-02-23T09:06:48Z</time>
      </trkpt>
      <trkpt lat="46.419960027560592" lon="8.416863083839417">
        <ele>1737.1600000000001</ele>
        <time>2020-02-23T09:07:01Z</time>
      </trkpt>
      <trkpt lat="46.419970588758588" lon="8.416874231770635">
        <ele>1737.23</ele>
        <time>2020-02-23T09:07:06Z</time>
      </trkpt>
      <trkpt lat="46.419989112764597" lon="8.416887056082487">
        <ele>1737.2</ele>
        <time>2020-02-23T09:07:08Z</time>
      </trkpt>
      <trkpt lat="46.420156331732869" lon="8.41688328422606">
        <ele>1737.29</ele>
        <time>2020-02-23T09:07:25Z</time>
      </trkpt>
      <trkpt lat="46.420160355046391" lon="8.416890408843756">
        <ele>1737.6500000000001</ele>
        <time>2020-02-23T09:07:37Z</time>
      </trkpt>
      <trkpt lat="46.420182818546891" lon="8.416953356936574">
        <ele>1737.21</ele>
        <time>2020-02-23T09:07:41Z</time>
      </trkpt>
      <trkpt lat="46.420232020318508" lon="8.417085120454431">
        <ele>1737.48</ele>
        <time>2020-02-23T09:07:51Z</time>
      </trkpt>
      <trkpt lat="46.420320700854063" lon="8.417045641690493">
        <ele>1737.6099999999999</ele>
        <time>2020-02-23T09:08:04Z</time>
      </trkpt>
      <trkpt lat="46.420316426083446" lon="8.41703281737864">
        <ele>1737.0999999999999</ele>
        <time>2020-02-23T09:08:16Z</time>
      </trkpt>
      <trkpt lat="46.420313073322177" lon="8.417029632255435">
        <ele>1737.24</ele>
        <time>2020-02-23T09:08:31Z</time>
      </trkpt>
      <trkpt lat="46.420314498245716" lon="8.417063411325216">
        <ele>1737.75</ele>
        <time>2020-02-23T09:08:51Z</time>
      </trkpt>
      <trkpt lat="46.420307876542211" lon="8.417060310021043">
        <ele>1737.47</ele>
        <time>2020-02-23T09:09:03Z</time>
      </trkpt>
      <trkpt lat="46.420309888198972" lon="8.417033236473799">
        <ele>1737.4400000000001</ele>
        <time>2020-02-23T09:09:18Z</time>
      </trkpt>
      <trkpt lat="46.420326484367251" lon="8.417041534557939">
        <ele>1738.1199999999999</ele>
        <time>2020-02-23T09:09:27Z</time>
      </trkpt>
      <trkpt lat="46.420334279537201" lon="8.417036505416036">
        <ele>1737.97</ele>
        <time>2020-02-23T09:09:28Z</time>
      </trkpt>
      <trkpt lat="46.420398484915495" lon="8.417026782408357">
        <ele>1738.0799999999999</ele>
        <time>2020-02-23T09:09:35Z</time>
      </trkpt>
      <trkpt lat="46.420479454100132" lon="8.417065171524882">
        <ele>1738.6400000000001</ele>
        <time>2020-02-23T09:09:46Z</time>
      </trkpt>
      <trkpt lat="46.420490266755223" lon="8.417068272829056">
        <ele>1739.1800000000001</ele>
        <time>2020-02-23T09:09:58Z</time>
      </trkpt>
      <trkpt lat="46.420479202643037" lon="8.417105320841074">
        <ele>1738.9100000000001</ele>
        <time>2020-02-23T09:10:18Z</time>
      </trkpt>
      <trkpt lat="46.420466713607311" lon="8.417111691087484">
        <ele>1739</ele>
        <time>2020-02-23T09:10:35Z</time>
      </trkpt>
      <trkpt lat="46.420468389987946" lon="8.417115462943912">
        <ele>1738.8199999999999</ele>
        <time>2020-02-23T09:10:55Z</time>
      </trkpt>
      <trkpt lat="46.420467300340533" lon="8.417117726057768">
        <ele>1738.9400000000001</ele>
        <time>2020-02-23T09:11:19Z</time>
      </trkpt>
      <trkpt lat="46.42046662978828" lon="8.417106159031391">
        <ele>1739.21</ele>
        <time>2020-02-23T09:11:43Z</time>
      </trkpt>
      <trkpt lat="46.420472078025341" lon="8.41710121370852">
        <ele>1739.4200000000001</ele>
        <time>2020-02-23T09:12:02Z</time>
      </trkpt>
      <trkpt lat="46.420471994206309" lon="8.417092664167285">
        <ele>1739.3399999999999</ele>
        <time>2020-02-23T09:12:21Z</time>
      </trkpt>
      <trkpt lat="46.420469395816326" lon="8.417083444073796">
        <ele>1739.6400000000001</ele>
        <time>2020-02-23T09:12:36Z</time>
      </trkpt>
      <trkpt lat="46.420476939529181" lon="8.417079588398337">
        <ele>1739.5999999999999</ele>
        <time>2020-02-23T09:12:50Z</time>
      </trkpt>
      <trkpt lat="46.420478112995625" lon="8.417071625590324">
        <ele>1739.6500000000001</ele>
        <time>2020-02-23T09:13:06Z</time>
      </trkpt>
      <trkpt lat="46.420481968671083" lon="8.417082019150257">
        <ele>1739.3399999999999</ele>
        <time>2020-02-23T09:13:27Z</time>
      </trkpt>
      <trkpt lat="46.420477442443371" lon="8.417078834027052">
        <ele>1739.53</ele>
        <time>2020-02-23T09:13:45Z</time>
      </trkpt>
      <trkpt lat="46.420475598424673" lon="8.417070284485817">
        <ele>1739.4300000000001</ele>
        <time>2020-02-23T09:14:12Z</time>
      </trkpt>
      <trkpt lat="46.420475514605641" lon="8.417070535942912">
        <ele>1739.0899999999999</ele>
        <time>2020-02-23T09:14:32Z</time>
      </trkpt>
      <trkpt lat="46.420477274805307" lon="8.417069781571627">
        <ele>1739.1199999999999</ele>
        <time>2020-02-23T09:14:49Z</time>
      </trkpt>
      <trkpt lat="46.420475598424673" lon="8.417073218151927">
        <ele>1739.3</ele>
        <time>2020-02-23T09:14:58Z</time>
      </trkpt>
      <trkpt lat="46.420472580939531" lon="8.417085204273462">
        <ele>1739.21</ele>
        <time>2020-02-23T09:15:13Z</time>
      </trkpt>
      <trkpt lat="46.420475766062737" lon="8.41708411462605">
        <ele>1739.6400000000001</ele>
        <time>2020-02-23T09:15:42Z</time>
      </trkpt>
      <trkpt lat="46.420467384159565" lon="8.417096603661776">
        <ele>1739.51</ele>
        <time>2020-02-23T09:16:04Z</time>
      </trkpt>
      <trkpt lat="46.420466378331184" lon="8.417086880654097">
        <ele>1739.22</ele>
        <time>2020-02-23T09:16:27Z</time>
      </trkpt>
      <trkpt lat="46.420473167672753" lon="8.41708947904408">
        <ele>1739.3199999999999</ele>
        <time>2020-02-23T09:16:48Z</time>
      </trkpt>
      <trkpt lat="46.420475598424673" lon="8.417077660560608">
        <ele>1739.3</ele>
        <time>2020-02-23T09:17:00Z</time>
      </trkpt>
      <trkpt lat="46.420463696122169" lon="8.41708704829216">
        <ele>1739.25</ele>
        <time>2020-02-23T09:17:12Z</time>
      </trkpt>
      <trkpt lat="46.420459840446711" lon="8.417087886482477">
        <ele>1738.9000000000001</ele>
        <time>2020-02-23T09:17:22Z</time>
      </trkpt>
      <trkpt lat="46.420454308390617" lon="8.417100375518203">
        <ele>1738.9200000000001</ele>
        <time>2020-02-23T09:17:40Z</time>
      </trkpt>
      <trkpt lat="46.420452632009983" lon="8.417100543156266">
        <ele>1738.77</ele>
        <time>2020-02-23T09:18:01Z</time>
      </trkpt>
      <trkpt lat="46.420464366674423" lon="8.417090065777302">
        <ele>1738.6900000000001</ele>
        <time>2020-02-23T09:18:24Z</time>
      </trkpt>
      <trkpt lat="46.420459421351552" lon="8.417087383568287">
        <ele>1738.6199999999999</ele>
        <time>2020-02-23T09:18:40Z</time>
      </trkpt>
      <trkpt lat="46.420441819354892" lon="8.41709341853857">
        <ele>1738.6199999999999</ele>
        <time>2020-02-23T09:18:57Z</time>
      </trkpt>
      <trkpt lat="46.420441651716828" lon="8.417094759643078">
        <ele>1738.6199999999999</ele>
        <time>2020-02-23T09:19:18Z</time>
      </trkpt>
      <trkpt lat="46.420445842668414" lon="8.417094005271792">
        <ele>1739</ele>
        <time>2020-02-23T09:19:34Z</time>
      </trkpt>
      <trkpt lat="46.420450955629349" lon="8.417077492922545">
        <ele>1739.1099999999999</ele>
        <time>2020-02-23T09:19:50Z</time>
      </trkpt>
      <trkpt lat="46.42046227119863" lon="8.417092664167285">
        <ele>1738.21</ele>
        <time>2020-02-23T09:20:05Z</time>
      </trkpt>
      <trkpt lat="46.420462355017662" lon="8.41709584929049">
        <ele>1738.54</ele>
        <time>2020-02-23T09:20:23Z</time>
      </trkpt>
      <trkpt lat="46.420466043055058" lon="8.41711194254458">
        <ele>1738.48</ele>
        <time>2020-02-23T09:20:47Z</time>
      </trkpt>
      <trkpt lat="46.42045883461833" lon="8.417085120454431">
        <ele>1739.75</ele>
        <time>2020-02-23T09:21:00Z</time>
      </trkpt>
      <trkpt lat="46.42052823677659" lon="8.417093250900507">
        <ele>1740.1700000000001</ele>
        <time>2020-02-23T09:21:14Z</time>
      </trkpt>
      <trkpt lat="46.420555142685771" lon="8.417102387174964">
        <ele>1740.1300000000001</ele>
        <time>2020-02-23T09:21:28Z</time>
      </trkpt>
      <trkpt lat="46.420580958947539" lon="8.41710071079433">
        <ele>1740.1400000000001</ele>
        <time>2020-02-23T09:21:37Z</time>
      </trkpt>
      <trkpt lat="46.420631753280759" lon="8.417129209265113">
        <ele>1740.1500000000001</ele>
        <time>2020-02-23T09:21:41Z</time>
      </trkpt>
      <trkpt lat="46.420711046084762" lon="8.417186792939901">
        <ele>1739.52</ele>
        <time>2020-02-23T09:21:54Z</time>
      </trkpt>
      <trkpt lat="46.420713560655713" lon="8.417180422693491">
        <ele>1740.22</ele>
        <time>2020-02-23T09:22:17Z</time>
      </trkpt>
      <trkpt lat="46.420782124623656" lon="8.417214788496494">
        <ele>1740.1600000000001</ele>
        <time>2020-02-23T09:22:30Z</time>
      </trkpt>
      <trkpt lat="46.420800816267729" lon="8.417219063267112">
        <ele>1740.0599999999999</ele>
        <time>2020-02-23T09:22:39Z</time>
      </trkpt>
      <trkpt lat="46.420895280316472" lon="8.417263152077794">
        <ele>1739.8900000000001</ele>
        <time>2020-02-23T09:22:51Z</time>
      </trkpt>
      <trkpt lat="46.420911122113466" lon="8.417278407141566">
        <ele>1740.0799999999999</ele>
        <time>2020-02-23T09:22:53Z</time>
      </trkpt>
      <trkpt lat="46.420973232015967" lon="8.417355855926871">
        <ele>1740.3599999999999</ele>
        <time>2020-02-23T09:23:01Z</time>
      </trkpt>
      <trkpt lat="46.421048836782575" lon="8.417407907545567">
        <ele>1741.0999999999999</ele>
        <time>2020-02-23T09:23:12Z</time>
      </trkpt>
      <trkpt lat="46.421076413244009" lon="8.417480243369937">
        <ele>1741.1300000000001</ele>
        <time>2020-02-23T09:23:22Z</time>
      </trkpt>
      <trkpt lat="46.421102061867714" lon="8.417487284168601">
        <ele>1741.3699999999999</ele>
        <time>2020-02-23T09:23:32Z</time>
      </trkpt>
      <trkpt lat="46.421112287789583" lon="8.417504131793976">
        <ele>1741.49</ele>
        <time>2020-02-23T09:23:46Z</time>
      </trkpt>
      <trkpt lat="46.421104157343507" lon="8.417503042146564">
        <ele>1741.3299999999999</ele>
        <time>2020-02-23T09:24:03Z</time>
      </trkpt>
      <trkpt lat="46.421101223677397" lon="8.417500611394644">
        <ele>1741.3299999999999</ele>
        <time>2020-02-23T09:24:21Z</time>
      </trkpt>
      <trkpt lat="46.421096529811621" lon="8.417509831488133">
        <ele>1740.8800000000001</ele>
        <time>2020-02-23T09:24:44Z</time>
      </trkpt>
      <trkpt lat="46.42109208740294" lon="8.417511088773608">
        <ele>1740.6700000000001</ele>
        <time>2020-02-23T09:25:01Z</time>
      </trkpt>
      <trkpt lat="46.421106336638331" lon="8.417526679113507">
        <ele>1740.4200000000001</ele>
        <time>2020-02-23T09:25:13Z</time>
      </trkpt>
      <trkpt lat="46.42111212015152" lon="8.417537743225694">
        <ele>1740.6500000000001</ele>
        <time>2020-02-23T09:25:25Z</time>
      </trkpt>
      <trkpt lat="46.421117903664708" lon="8.417552495375276">
        <ele>1740.5799999999999</ele>
        <time>2020-02-23T09:25:30Z</time>
      </trkpt>
      <trkpt lat="46.421138858422637" lon="8.417711835354567">
        <ele>1739.9200000000001</ele>
        <time>2020-02-23T09:25:41Z</time>
      </trkpt>
      <trkpt lat="46.42117322422564" lon="8.417931525036693">
        <ele>1740.3399999999999</ele>
        <time>2020-02-23T09:25:54Z</time>
      </trkpt>
      <trkpt lat="46.42119032330811" lon="8.418075023218989">
        <ele>1740.5799999999999</ele>
        <time>2020-02-23T09:26:03Z</time>
      </trkpt>
      <trkpt lat="46.421212619170547" lon="8.418216090649366">
        <ele>1741.0899999999999</ele>
        <time>2020-02-23T09:26:12Z</time>
      </trkpt>
      <trkpt lat="46.421219911426306" lon="8.41832916252315">
        <ele>1741.5899999999999</ele>
        <time>2020-02-23T09:26:19Z</time>
      </trkpt>
      <trkpt lat="46.421222845092416" lon="8.41848062351346">
        <ele>1742.3099999999999</ele>
        <time>2020-02-23T09:26:30Z</time>
      </trkpt>
      <trkpt lat="46.421208512037992" lon="8.418630408123136">
        <ele>1743.6500000000001</ele>
        <time>2020-02-23T09:26:42Z</time>
      </trkpt>
      <trkpt lat="46.421177834272385" lon="8.418765356764197">
        <ele>1744.95</ele>
        <time>2020-02-23T09:26:54Z</time>
      </trkpt>
      <trkpt lat="46.421122597530484" lon="8.418868957087398">
        <ele>1746.53</ele>
        <time>2020-02-23T09:27:05Z</time>
      </trkpt>
      <trkpt lat="46.421116143465042" lon="8.418875662609935">
        <ele>1746.6700000000001</ele>
        <time>2020-02-23T09:27:06Z</time>
      </trkpt>
      <trkpt lat="46.421016482636333" lon="8.418990494683385">
        <ele>1748.0799999999999</ele>
        <time>2020-02-23T09:27:20Z</time>
      </trkpt>
      <trkpt lat="46.420966191217303" lon="8.419079761952162">
        <ele>1749.8699999999999</ele>
        <time>2020-02-23T09:27:31Z</time>
      </trkpt>
      <trkpt lat="46.420960742980242" lon="8.419089065864682">
        <ele>1750.3399999999999</ele>
        <time>2020-02-23T09:27:33Z</time>
      </trkpt>
      <trkpt lat="46.420886814594269" lon="8.419193169102073">
        <ele>1750.3</ele>
        <time>2020-02-23T09:27:44Z</time>
      </trkpt>
      <trkpt lat="46.420780280604959" lon="8.419321412220597">
        <ele>1751.3900000000001</ele>
        <time>2020-02-23T09:27:58Z</time>
      </trkpt>
      <trkpt lat="46.420712135732174" lon="8.419401124119759">
        <ele>1752.04</ele>
        <time>2020-02-23T09:28:07Z</time>
      </trkpt>
      <trkpt lat="46.420626472681761" lon="8.419506317004561">
        <ele>1753.0799999999999</ele>
        <time>2020-02-23T09:28:19Z</time>
      </trkpt>
      <trkpt lat="46.420529494062066" lon="8.419641517102718">
        <ele>1754.6500000000001</ele>
        <time>2020-02-23T09:28:34Z</time>
      </trkpt>
      <trkpt lat="46.420469898730516" lon="8.419726928696036">
        <ele>1755.78</ele>
        <time>2020-02-23T09:28:44Z</time>
      </trkpt>
      <trkpt lat="46.420479873195291" lon="8.419825918972492">
        <ele>1756.97</ele>
        <time>2020-02-23T09:28:54Z</time>
      </trkpt>
      <trkpt lat="46.420504599809647" lon="8.419906971976161">
        <ele>1758.21</ele>
        <time>2020-02-23T09:29:05Z</time>
      </trkpt>
      <trkpt lat="46.420541228726506" lon="8.420021133497357">
        <ele>1759.52</ele>
        <time>2020-02-23T09:29:17Z</time>
      </trkpt>
      <trkpt lat="46.420571990311146" lon="8.42011802829802">
        <ele>1760.74</ele>
        <time>2020-02-23T09:29:28Z</time>
      </trkpt>
      <trkpt lat="46.420627646148205" lon="8.420226071029902">
        <ele>1761.48</ele>
        <time>2020-02-23T09:29:39Z</time>
      </trkpt>
      <trkpt lat="46.420650947839022" lon="8.420326067134738">
        <ele>1762.5899999999999</ele>
        <time>2020-02-23T09:29:50Z</time>
      </trkpt>
      <trkpt lat="46.420697215944529" lon="8.420454645529389">
        <ele>1763.8900000000001</ele>
        <time>2020-02-23T09:30:02Z</time>
      </trkpt>
      <trkpt lat="46.420701993629336" lon="8.420520443469286">
        <ele>1765.1300000000001</ele>
        <time>2020-02-23T09:30:12Z</time>
      </trkpt>
      <trkpt lat="46.420718254521489" lon="8.420593617483974">
        <ele>1766.3499999999999</ele>
        <time>2020-02-23T09:30:22Z</time>
      </trkpt>
      <trkpt lat="46.420739963650703" lon="8.420676598325372">
        <ele>1767.72</ele>
        <time>2020-02-23T09:30:33Z</time>
      </trkpt>
      <trkpt lat="46.420764019712806" lon="8.420777600258589">
        <ele>1770.0599999999999</ele>
        <time>2020-02-23T09:30:48Z</time>
      </trkpt>
      <trkpt lat="46.420795954763889" lon="8.420863682404161">
        <ele>1771.8599999999999</ele>
        <time>2020-02-23T09:30:59Z</time>
      </trkpt>
      <trkpt lat="46.420831242576241" lon="8.420956386253238">
        <ele>1773.45</ele>
        <time>2020-02-23T09:31:09Z</time>
      </trkpt>
      <trkpt lat="46.420882623642683" lon="8.421078594401479">
        <ele>1775.72</ele>
        <time>2020-02-23T09:31:24Z</time>
      </trkpt>
      <trkpt lat="46.420907936990261" lon="8.4211500082165">
        <ele>1777.4400000000001</ele>
        <time>2020-02-23T09:31:35Z</time>
      </trkpt>
      <trkpt lat="46.420953702181578" lon="8.421223014593124">
        <ele>1778.6300000000001</ele>
        <time>2020-02-23T09:31:47Z</time>
      </trkpt>
      <trkpt lat="46.420968202874064" lon="8.421241957694292">
        <ele>1779.8</ele>
        <time>2020-02-23T09:31:59Z</time>
      </trkpt>
      <trkpt lat="46.421029306948185" lon="8.421294596046209">
        <ele>1781.5799999999999</ele>
        <time>2020-02-23T09:32:12Z</time>
      </trkpt>
      <trkpt lat="46.421085800975561" lon="8.421308090910316">
        <ele>1782.8399999999999</ele>
        <time>2020-02-23T09:32:23Z</time>
      </trkpt>
      <trkpt lat="46.421145144850016" lon="8.421331811696291">
        <ele>1784.4400000000001</ele>
        <time>2020-02-23T09:32:34Z</time>
      </trkpt>
      <trkpt lat="46.42120691947639" lon="8.421350670978427">
        <ele>1786.0899999999999</ele>
        <time>2020-02-23T09:32:48Z</time>
      </trkpt>
      <trkpt lat="46.421255618333817" lon="8.421374307945371">
        <ele>1787.3900000000001</ele>
        <time>2020-02-23T09:32:59Z</time>
      </trkpt>
      <trkpt lat="46.421324852854013" lon="8.421413199976087">
        <ele>1789.3599999999999</ele>
        <time>2020-02-23T09:33:13Z</time>
      </trkpt>
      <trkpt lat="46.421374892815948" lon="8.421435747295618">
        <ele>1790.8099999999999</ele>
        <time>2020-02-23T09:33:23Z</time>
      </trkpt>
      <trkpt lat="46.421425268054008" lon="8.421457456424832">
        <ele>1792.53</ele>
        <time>2020-02-23T09:33:35Z</time>
      </trkpt>
      <trkpt lat="46.421464327722788" lon="8.421474387869239">
        <ele>1794.01</ele>
        <time>2020-02-23T09:33:45Z</time>
      </trkpt>
      <trkpt lat="46.421510763466358" lon="8.421481931582093">
        <ele>1795.4400000000001</ele>
        <time>2020-02-23T09:33:56Z</time>
      </trkpt>
      <trkpt lat="46.421514786779881" lon="8.421520488336682">
        <ele>1796.9000000000001</ele>
        <time>2020-02-23T09:34:05Z</time>
      </trkpt>
      <trkpt lat="46.421541608870029" lon="8.421528534963727">
        <ele>1797.9300000000001</ele>
        <time>2020-02-23T09:34:14Z</time>
      </trkpt>
      <trkpt lat="46.421600198373199" lon="8.421557368710637">
        <ele>1799.8599999999999</ele>
        <time>2020-02-23T09:34:27Z</time>
      </trkpt>
      <trkpt lat="46.42165744677186" lon="8.421569354832172">
        <ele>1801.97</ele>
        <time>2020-02-23T09:34:39Z</time>
      </trkpt>
      <trkpt lat="46.42167504876852" lon="8.421571534126997">
        <ele>1802.2</ele>
        <time>2020-02-23T09:34:42Z</time>
      </trkpt>
      <trkpt lat="46.421730536967516" lon="8.421580586582422">
        <ele>1803.97</ele>
        <time>2020-02-23T09:34:54Z</time>
      </trkpt>
      <trkpt lat="46.421772446483374" lon="8.421576814725995">
        <ele>1805.3900000000001</ele>
        <time>2020-02-23T09:35:04Z</time>
      </trkpt>
      <trkpt lat="46.421799100935459" lon="8.421576227992773">
        <ele>1806.6700000000001</ele>
        <time>2020-02-23T09:35:12Z</time>
      </trkpt>
      <trkpt lat="46.421833802014589" lon="8.421580335125327">
        <ele>1808.3800000000001</ele>
        <time>2020-02-23T09:35:22Z</time>
      </trkpt>
      <trkpt lat="46.421882333233953" lon="8.421581843867898">
        <ele>1810.27</ele>
        <time>2020-02-23T09:35:34Z</time>
      </trkpt>
      <trkpt lat="46.42191493883729" lon="8.42159709893167">
        <ele>1811.8800000000001</ele>
        <time>2020-02-23T09:35:43Z</time>
      </trkpt>
      <trkpt lat="46.421945448964834" lon="8.421616293489933">
        <ele>1812.8900000000001</ele>
        <time>2020-02-23T09:35:54Z</time>
      </trkpt>
      <trkpt lat="46.421969756484032" lon="8.421624843031168">
        <ele>1814.03</ele>
        <time>2020-02-23T09:36:03Z</time>
      </trkpt>
      <trkpt lat="46.422003116458654" lon="8.421628028154373">
        <ele>1815.98</ele>
        <time>2020-02-23T09:36:13Z</time>
      </trkpt>
      <trkpt lat="46.422043098136783" lon="8.42163372784853">
        <ele>1817.9300000000001</ele>
        <time>2020-02-23T09:36:23Z</time>
      </trkpt>
      <trkpt lat="46.422097496688366" lon="8.421627692878246">
        <ele>1819.4000000000001</ele>
        <time>2020-02-23T09:36:35Z</time>
      </trkpt>
      <trkpt lat="46.422143010422587" lon="8.42165325768292">
        <ele>1821.4100000000001</ele>
        <time>2020-02-23T09:36:48Z</time>
      </trkpt>
      <trkpt lat="46.422180561348796" lon="8.421675888821483">
        <ele>1822.9100000000001</ele>
        <time>2020-02-23T09:36:59Z</time>
      </trkpt>
      <trkpt lat="46.422222051769495" lon="8.421695586293936">
        <ele>1824.3</ele>
        <time>2020-02-23T09:37:10Z</time>
      </trkpt>
      <trkpt lat="46.422253483906388" lon="8.421713104471564">
        <ele>1825.5599999999999</ele>
        <time>2020-02-23T09:37:20Z</time>
      </trkpt>
      <trkpt lat="46.42227896489203" lon="8.42174269258976">
        <ele>1826.99</ele>
        <time>2020-02-23T09:37:30Z</time>
      </trkpt>
      <trkpt lat="46.42231953330338" lon="8.421760043129325">
        <ele>1828.0699999999999</ele>
        <time>2020-02-23T09:37:40Z</time>
      </trkpt>
      <trkpt lat="46.422369908541441" lon="8.421766497194767">
        <ele>1829.29</ele>
        <time>2020-02-23T09:37:52Z</time>
      </trkpt>
      <trkpt lat="46.422411566600204" lon="8.421775465831161">
        <ele>1830.6500000000001</ele>
        <time>2020-02-23T09:38:03Z</time>
      </trkpt>
      <trkpt lat="46.42245389521122" lon="8.421793319284916">
        <ele>1831.8299999999999</ele>
        <time>2020-02-23T09:38:14Z</time>
      </trkpt>
      <trkpt lat="46.422488344833255" lon="8.421802539378405">
        <ele>1833.26</ele>
        <time>2020-02-23T09:38:27Z</time>
      </trkpt>
      <trkpt lat="46.422512317076325" lon="8.42182969674468">
        <ele>1833.8599999999999</ele>
        <time>2020-02-23T09:38:37Z</time>
      </trkpt>
      <trkpt lat="46.422544587403536" lon="8.421845957636833">
        <ele>1835.4200000000001</ele>
        <time>2020-02-23T09:38:47Z</time>
      </trkpt>
      <trkpt lat="46.422582305967808" lon="8.421870600432158">
        <ele>1837.1099999999999</ele>
        <time>2020-02-23T09:38:58Z</time>
      </trkpt>
      <trkpt lat="46.422620611265302" lon="8.421900607645512">
        <ele>1838.7</ele>
        <time>2020-02-23T09:39:09Z</time>
      </trkpt>
      <trkpt lat="46.422663694247603" lon="8.421911336481571">
        <ele>1839.8399999999999</ele>
        <time>2020-02-23T09:39:19Z</time>
      </trkpt>
      <trkpt lat="46.422694455832243" lon="8.421947797760367">
        <ele>1840.6800000000001</ele>
        <time>2020-02-23T09:39:29Z</time>
      </trkpt>
      <trkpt lat="46.422743322327733" lon="8.421967662870884">
        <ele>1841.8</ele>
        <time>2020-02-23T09:39:38Z</time>
      </trkpt>
      <trkpt lat="46.422806857153773" lon="8.421964729204774">
        <ele>1843.5899999999999</ele>
        <time>2020-02-23T09:39:51Z</time>
      </trkpt>
      <trkpt lat="46.422860668972135" lon="8.421953916549683">
        <ele>1844.74</ele>
        <time>2020-02-23T09:40:02Z</time>
      </trkpt>
      <trkpt lat="46.422892436385155" lon="8.421976631507278">
        <ele>1846.1400000000001</ele>
        <time>2020-02-23T09:40:13Z</time>
      </trkpt>
      <trkpt lat="46.422896375879645" lon="8.42202658765018">
        <ele>1845.8499999999999</ele>
        <time>2020-02-23T09:40:32Z</time>
      </trkpt>
      <trkpt lat="46.42289612442255" lon="8.422008398920298">
        <ele>1846</ele>
        <time>2020-02-23T09:40:50Z</time>
      </trkpt>
      <trkpt lat="46.422891598194838" lon="8.42200412414968">
        <ele>1846.3900000000001</ele>
        <time>2020-02-23T09:41:14Z</time>
      </trkpt>
      <trkpt lat="46.422880450263619" lon="8.421999262645841">
        <ele>1846.2</ele>
        <time>2020-02-23T09:41:47Z</time>
      </trkpt>
      <trkpt lat="46.422878438606858" lon="8.422002699226141">
        <ele>1845.7</ele>
        <time>2020-02-23T09:42:17Z</time>
      </trkpt>
      <trkpt lat="46.422897297888994" lon="8.422035975381732">
        <ele>1846.26</ele>
        <time>2020-02-23T09:42:32Z</time>
      </trkpt>
      <trkpt lat="46.422951193526387" lon="8.422065479680896">
        <ele>1848.1900000000001</ele>
        <time>2020-02-23T09:42:42Z</time>
      </trkpt>
      <trkpt lat="46.423017326742411" lon="8.422116441652179">
        <ele>1851.1600000000001</ele>
        <time>2020-02-23T09:42:56Z</time>
      </trkpt>
      <trkpt lat="46.423065606504679" lon="8.422152232378721">
        <ele>1852.5599999999999</ele>
        <time>2020-02-23T09:43:08Z</time>
      </trkpt>
      <trkpt lat="46.423108857125044" lon="8.422202188521624">
        <ele>1854.8199999999999</ele>
        <time>2020-02-23T09:43:20Z</time>
      </trkpt>
      <trkpt lat="46.423181192949414" lon="8.422219455242157">
        <ele>1857.22</ele>
        <time>2020-02-23T09:43:34Z</time>
      </trkpt>
      <trkpt lat="46.423242883756757" lon="8.422213420271874">
        <ele>1858.8</ele>
        <time>2020-02-23T09:43:46Z</time>
      </trkpt>
      <trkpt lat="46.423305161297321" lon="8.422204367816448">
        <ele>1859.9000000000001</ele>
        <time>2020-02-23T09:43:59Z</time>
      </trkpt>
      <trkpt lat="46.423355536535382" lon="8.422203026711941">
        <ele>1862.1600000000001</ele>
        <time>2020-02-23T09:44:11Z</time>
      </trkpt>
      <trkpt lat="46.423410102725029" lon="8.422154830768704">
        <ele>1863.53</ele>
        <time>2020-02-23T09:44:23Z</time>
      </trkpt>
      <trkpt lat="46.423466764390469" lon="8.422122811898589">
        <ele>1864.22</ele>
        <time>2020-02-23T09:44:34Z</time>
      </trkpt>
      <trkpt lat="46.423510350286961" lon="8.422114765271545">
        <ele>1866.1900000000001</ele>
        <time>2020-02-23T09:44:45Z</time>
      </trkpt>
      <trkpt lat="46.423551673069596" lon="8.422119123861194">
        <ele>1868.05</ele>
        <time>2020-02-23T09:44:56Z</time>
      </trkpt>
      <trkpt lat="46.423592828214169" lon="8.422111077234149">
        <ele>1866.9300000000001</ele>
        <time>2020-02-23T09:45:07Z</time>
      </trkpt>
      <trkpt lat="46.423597522079945" lon="8.422063384205103">
        <ele>1868.24</ele>
        <time>2020-02-23T09:45:19Z</time>
      </trkpt>
      <trkpt lat="46.423600874841213" lon="8.422062965109944">
        <ele>1868.4400000000001</ele>
        <time>2020-02-23T09:45:35Z</time>
      </trkpt>
      <trkpt lat="46.423597186803818" lon="8.422048548236489">
        <ele>1866.6900000000001</ele>
        <time>2020-02-23T09:45:49Z</time>
      </trkpt>
      <trkpt lat="46.423631720244884" lon="8.422026000916958">
        <ele>1868.76</ele>
        <time>2020-02-23T09:46:00Z</time>
      </trkpt>
      <trkpt lat="46.423635995015502" lon="8.42202172614634">
        <ele>1867.51</ele>
        <time>2020-02-23T09:46:19Z</time>
      </trkpt>
      <trkpt lat="46.423611436039209" lon="8.421993311494589">
        <ele>1867.02</ele>
        <time>2020-02-23T09:46:47Z</time>
      </trkpt>
      <trkpt lat="46.423616632819176" lon="8.422003872692585">
        <ele>1868.21</ele>
        <time>2020-02-23T09:47:01Z</time>
      </trkpt>
      <trkpt lat="46.423618393018842" lon="8.422011248767376">
        <ele>1867.54</ele>
        <time>2020-02-23T09:47:20Z</time>
      </trkpt>
      <trkpt lat="46.423621159046888" lon="8.422014350071549">
        <ele>1866.96</ele>
        <time>2020-02-23T09:47:37Z</time>
      </trkpt>
      <trkpt lat="46.423616884276271" lon="8.422019043937326">
        <ele>1868.0799999999999</ele>
        <time>2020-02-23T09:47:46Z</time>
      </trkpt>
      <trkpt lat="46.423617051914334" lon="8.422027509659529">
        <ele>1865.95</ele>
        <time>2020-02-23T09:48:06Z</time>
      </trkpt>
      <trkpt lat="46.423613112419844" lon="8.422017199918628">
        <ele>1866.0899999999999</ele>
        <time>2020-02-23T09:48:24Z</time>
      </trkpt>
      <trkpt lat="46.423607328906655" lon="8.422031197696924">
        <ele>1866.3199999999999</ele>
        <time>2020-02-23T09:48:49Z</time>
      </trkpt>
      <trkpt lat="46.423604311421514" lon="8.422084338963032">
        <ele>1866.1500000000001</ele>
        <time>2020-02-23T09:49:00Z</time>
      </trkpt>
      <trkpt lat="46.423596264794469" lon="8.422101940959692">
        <ele>1865.5899999999999</ele>
        <time>2020-02-23T09:49:02Z</time>
      </trkpt>
      <trkpt lat="46.423562737181783" lon="8.422136809676886">
        <ele>1865.4200000000001</ele>
        <time>2020-02-23T09:49:15Z</time>
      </trkpt>
      <trkpt lat="46.42356944270432" lon="8.422129265964031">
        <ele>1865.5999999999999</ele>
        <time>2020-02-23T09:49:31Z</time>
      </trkpt>
      <trkpt lat="46.423580422997475" lon="8.422119626775384">
        <ele>1865.51</ele>
        <time>2020-02-23T09:49:45Z</time>
      </trkpt>
      <trkpt lat="46.423579500988126" lon="8.422117782756686">
        <ele>1865.5</ele>
        <time>2020-02-23T09:50:05Z</time>
      </trkpt>
      <trkpt lat="46.423587463796139" lon="8.422114262357354">
        <ele>1865.78</ele>
        <time>2020-02-23T09:50:25Z</time>
      </trkpt>
      <trkpt lat="46.423629373311996" lon="8.42207302339375">
        <ele>1866.1600000000001</ele>
        <time>2020-02-23T09:50:36Z</time>
      </trkpt>
      <trkpt lat="46.423658961430192" lon="8.422054080292583">
        <ele>1866.6800000000001</ele>
        <time>2020-02-23T09:50:50Z</time>
      </trkpt>
      <trkpt lat="46.423690980300307" lon="8.422014769166708">
        <ele>1866.48</ele>
        <time>2020-02-23T09:51:15Z</time>
      </trkpt>
      <trkpt lat="46.42371260561049" lon="8.422003705054522">
        <ele>1866.52</ele>
        <time>2020-02-23T09:51:27Z</time>
      </trkpt>
      <trkpt lat="46.423762477934361" lon="8.421971602365375">
        <ele>1867.04</ele>
        <time>2020-02-23T09:51:33Z</time>
      </trkpt>
      <trkpt lat="46.423902623355389" lon="8.421951737254858">
        <ele>1868.8</ele>
        <time>2020-02-23T09:51:47Z</time>
      </trkpt>
      <trkpt lat="46.423930283635855" lon="8.421955676749349">
        <ele>1869.1300000000001</ele>
        <time>2020-02-23T09:51:50Z</time>
      </trkpt>
      <trkpt lat="46.424058107659221" lon="8.422017199918628">
        <ele>1871.2</ele>
        <time>2020-02-23T09:52:05Z</time>
      </trkpt>
      <trkpt lat="46.424158690497279" lon="8.422082662582398">
        <ele>1872.52</ele>
        <time>2020-02-23T09:52:18Z</time>
      </trkpt>
      <trkpt lat="46.424193475395441" lon="8.42213069088757">
        <ele>1872.8900000000001</ele>
        <time>2020-02-23T09:52:28Z</time>
      </trkpt>
      <trkpt lat="46.424238570034504" lon="8.422091966494918">
        <ele>1873.0999999999999</ele>
        <time>2020-02-23T09:52:39Z</time>
      </trkpt>
      <trkpt lat="46.424354743212461" lon="8.422027342021465">
        <ele>1874.27</ele>
        <time>2020-02-23T09:52:53Z</time>
      </trkpt>
      <trkpt lat="46.424462869763374" lon="8.421979313716292">
        <ele>1875.1300000000001</ele>
        <time>2020-02-23T09:53:06Z</time>
      </trkpt>
      <trkpt lat="46.424479633569717" lon="8.421971183270216">
        <ele>1875.4000000000001</ele>
        <time>2020-02-23T09:53:08Z</time>
      </trkpt>
      <trkpt lat="46.424561273306608" lon="8.421864900738001">
        <ele>1876.49</ele>
        <time>2020-02-23T09:53:21Z</time>
      </trkpt>
      <trkpt lat="46.424565883353353" lon="8.421854674816132">
        <ele>1876.77</ele>
        <time>2020-02-23T09:53:22Z</time>
      </trkpt>
      <trkpt lat="46.42463905736804" lon="8.421731293201447">
        <ele>1877.8499999999999</ele>
        <time>2020-02-23T09:53:35Z</time>
      </trkpt>
      <trkpt lat="46.424716506153345" lon="8.421648060902953">
        <ele>1879.3900000000001</ele>
        <time>2020-02-23T09:53:47Z</time>
      </trkpt>
      <trkpt lat="46.424713907763362" lon="8.42171385884285">
        <ele>1880.05</ele>
        <time>2020-02-23T09:53:57Z</time>
      </trkpt>
      <trkpt lat="46.424694126471877" lon="8.421844616532326">
        <ele>1880.96</ele>
        <time>2020-02-23T09:54:09Z</time>
      </trkpt>
      <trkpt lat="46.424683565273881" lon="8.421935141086578">
        <ele>1881.6900000000001</ele>
        <time>2020-02-23T09:54:17Z</time>
      </trkpt>
      <trkpt lat="46.424708291888237" lon="8.421956514939666">
        <ele>1881.8399999999999</ele>
        <time>2020-02-23T09:54:28Z</time>
      </trkpt>
      <trkpt lat="46.424735868349671" lon="8.421972775831819">
        <ele>1883.79</ele>
        <time>2020-02-23T09:54:38Z</time>
      </trkpt>
      <trkpt lat="46.424779370427132" lon="8.421978140249848">
        <ele>1886.2</ele>
        <time>2020-02-23T09:54:48Z</time>
      </trkpt>
      <trkpt lat="46.424803929403424" lon="8.42199289239943">
        <ele>1888.0599999999999</ele>
        <time>2020-02-23T09:54:56Z</time>
      </trkpt>
      <trkpt lat="46.424835026264191" lon="8.422011835500598">
        <ele>1889.5</ele>
        <time>2020-02-23T09:55:05Z</time>
      </trkpt>
      <trkpt lat="46.424874672666192" lon="8.422034550458193">
        <ele>1891.2</ele>
        <time>2020-02-23T09:55:15Z</time>
      </trkpt>
      <trkpt lat="46.424911972135305" lon="8.422062126919627">
        <ele>1892.95</ele>
        <time>2020-02-23T09:55:26Z</time>
      </trkpt>
      <trkpt lat="46.424975339323282" lon="8.422100013121963">
        <ele>1895.29</ele>
        <time>2020-02-23T09:55:39Z</time>
      </trkpt>
      <trkpt lat="46.424998389557004" lon="8.422120381146669">
        <ele>1896.9300000000001</ele>
        <time>2020-02-23T09:55:49Z</time>
      </trkpt>
      <trkpt lat="46.425047675147653" lon="8.422150891274214">
        <ele>1899.3</ele>
        <time>2020-02-23T09:56:02Z</time>
      </trkpt>
      <trkpt lat="46.425083046779037" lon="8.422176958993077">
        <ele>1901.0999999999999</ele>
        <time>2020-02-23T09:56:12Z</time>
      </trkpt>
      <trkpt lat="46.425109030678868" lon="8.422205457463861">
        <ele>1902.77</ele>
        <time>2020-02-23T09:56:22Z</time>
      </trkpt>
      <trkpt lat="46.425154879689217" lon="8.42223521322012">
        <ele>1904.45</ele>
        <time>2020-02-23T09:56:34Z</time>
      </trkpt>
      <trkpt lat="46.425162758678198" lon="8.422275613993406">
        <ele>1906.4100000000001</ele>
        <time>2020-02-23T09:56:46Z</time>
      </trkpt>
      <trkpt lat="46.425172314047813" lon="8.422333281487227">
        <ele>1908.48</ele>
        <time>2020-02-23T09:57:00Z</time>
      </trkpt>
      <trkpt lat="46.425175331532955" lon="8.422403270378709">
        <ele>1909.8299999999999</ele>
        <time>2020-02-23T09:57:14Z</time>
      </trkpt>
      <trkpt lat="46.425204919651151" lon="8.422499997541308">
        <ele>1911.97</ele>
        <time>2020-02-23T09:57:30Z</time>
      </trkpt>
      <trkpt lat="46.425223359838128" lon="8.422561772167683">
        <ele>1913.73</ele>
        <time>2020-02-23T09:57:42Z</time>
      </trkpt>
      <trkpt lat="46.425243560224771" lon="8.422633102163672">
        <ele>1915.54</ele>
        <time>2020-02-23T09:57:54Z</time>
      </trkpt>
      <trkpt lat="46.425249762833118" lon="8.422708623111248">
        <ele>1917.4400000000001</ele>
        <time>2020-02-23T09:58:07Z</time>
      </trkpt>
      <trkpt lat="46.42526887357235" lon="8.422791101038456">
        <ele>1919.6099999999999</ele>
        <time>2020-02-23T09:58:19Z</time>
      </trkpt>
      <trkpt lat="46.425279434770346" lon="8.422862011939287">
        <ele>1921.97</ele>
        <time>2020-02-23T09:58:32Z</time>
      </trkpt>
      <trkpt lat="46.425289576873183" lon="8.42293887399137">
        <ele>1924.05</ele>
        <time>2020-02-23T09:58:44Z</time>
      </trkpt>
      <trkpt lat="46.425297791138291" lon="8.423029901459813">
        <ele>1926.04</ele>
        <time>2020-02-23T09:58:58Z</time>
      </trkpt>
      <trkpt lat="46.425319500267506" lon="8.423101902008057">
        <ele>1928.9100000000001</ele>
        <time>2020-02-23T09:59:11Z</time>
      </trkpt>
      <trkpt lat="46.42535193823278" lon="8.423166694119573">
        <ele>1930.9100000000001</ele>
        <time>2020-02-23T09:59:23Z</time>
      </trkpt>
      <trkpt lat="46.425378173589706" lon="8.423212207853794">
        <ele>1932.47</ele>
        <time>2020-02-23T09:59:33Z</time>
      </trkpt>
      <trkpt lat="46.425405666232109" lon="8.42324179597199">
        <ele>1933.75</ele>
        <time>2020-02-23T09:59:43Z</time>
      </trkpt>
      <trkpt lat="46.425416646525264" lon="8.423238359391689">
        <ele>1933.3599999999999</ele>
        <time>2020-02-23T09:59:58Z</time>
      </trkpt>
      <trkpt lat="46.42541790381074" lon="8.423233916983008">
        <ele>1932.96</ele>
        <time>2020-02-23T10:00:08Z</time>
      </trkpt>
      <trkpt lat="46.425423435866833" lon="8.423244059085846">
        <ele>1932.46</ele>
        <time>2020-02-23T10:00:24Z</time>
      </trkpt>
      <trkpt lat="46.425428548827767" lon="8.423283789306879">
        <ele>1933.7</ele>
        <time>2020-02-23T10:00:37Z</time>
      </trkpt>
      <trkpt lat="46.425394769757986" lon="8.423286136239767">
        <ele>1933.6199999999999</ele>
        <time>2020-02-23T10:00:54Z</time>
      </trkpt>
      <trkpt lat="46.425414048135281" lon="8.423332655802369">
        <ele>1934.51</ele>
        <time>2020-02-23T10:01:08Z</time>
      </trkpt>
      <trkpt lat="46.425453443080187" lon="8.423423347994685">
        <ele>1936.73</ele>
        <time>2020-02-23T10:01:21Z</time>
      </trkpt>
      <trkpt lat="46.425454784184694" lon="8.423483530059457">
        <ele>1938.99</ele>
        <time>2020-02-23T10:01:33Z</time>
      </trkpt>
      <trkpt lat="46.425474481657147" lon="8.423536252230406">
        <ele>1940.4000000000001</ele>
        <time>2020-02-23T10:01:43Z</time>
      </trkpt>
      <trkpt lat="46.425505494698882" lon="8.423580089583993">
        <ele>1942.72</ele>
        <time>2020-02-23T10:01:54Z</time>
      </trkpt>
      <trkpt lat="46.425539273768663" lon="8.423617724329233">
        <ele>1944.28</ele>
        <time>2020-02-23T10:02:03Z</time>
      </trkpt>
      <trkpt lat="46.425574561581016" lon="8.423655610531569">
        <ele>1945.8599999999999</ele>
        <time>2020-02-23T10:02:14Z</time>
      </trkpt>
      <trkpt lat="46.425599791109562" lon="8.423686623573303">
        <ele>1947.54</ele>
        <time>2020-02-23T10:02:25Z</time>
      </trkpt>
      <trkpt lat="46.425627283751965" lon="8.423725767061114">
        <ele>1949.3399999999999</ele>
        <time>2020-02-23T10:02:36Z</time>
      </trkpt>
      <trkpt lat="46.425646310672164" lon="8.42376759275794">
        <ele>1951.02</ele>
        <time>2020-02-23T10:02:48Z</time>
      </trkpt>
      <trkpt lat="46.425676150247455" lon="8.423806317150593">
        <ele>1952.7</ele>
        <time>2020-02-23T10:02:59Z</time>
      </trkpt>
      <trkpt lat="46.425708755850792" lon="8.42384378425777">
        <ele>1954.3499999999999</ele>
        <time>2020-02-23T10:03:10Z</time>
      </trkpt>
      <trkpt lat="46.425736332312226" lon="8.423881586641073">
        <ele>1955.9200000000001</ele>
        <time>2020-02-23T10:03:20Z</time>
      </trkpt>
      <trkpt lat="46.42577069811523" lon="8.423917377367616">
        <ele>1957.4200000000001</ele>
        <time>2020-02-23T10:03:30Z</time>
      </trkpt>
      <trkpt lat="46.425804812461138" lon="8.423945540562272">
        <ele>1959.6500000000001</ele>
        <time>2020-02-23T10:03:40Z</time>
      </trkpt>
      <trkpt lat="46.425830963999033" lon="8.423972530290484">
        <ele>1961.3699999999999</ele>
        <time>2020-02-23T10:03:49Z</time>
      </trkpt>
      <trkpt lat="46.425860552117229" lon="8.423997508361936">
        <ele>1963.02</ele>
        <time>2020-02-23T10:04:00Z</time>
      </trkpt>
      <trkpt lat="46.425898522138596" lon="8.424025420099497">
        <ele>1964.76</ele>
        <time>2020-02-23T10:04:12Z</time>
      </trkpt>
      <trkpt lat="46.42592660151422" lon="8.424053834751248">
        <ele>1966.29</ele>
        <time>2020-02-23T10:04:22Z</time>
      </trkpt>
      <trkpt lat="46.425951663404703" lon="8.424069508910179">
        <ele>1967.6600000000001</ele>
        <time>2020-02-23T10:04:32Z</time>
      </trkpt>
      <trkpt lat="46.425982676446438" lon="8.424088368192315">
        <ele>1969.3699999999999</ele>
        <time>2020-02-23T10:04:42Z</time>
      </trkpt>
      <trkpt lat="46.426016371697187" lon="8.424124829471111">
        <ele>1970.8299999999999</ele>
        <time>2020-02-23T10:04:54Z</time>
      </trkpt>
      <trkpt lat="46.426037829369307" lon="8.424149723723531">
        <ele>1972.1500000000001</ele>
        <time>2020-02-23T10:05:03Z</time>
      </trkpt>
      <trkpt lat="46.426076889038086" lon="8.424177300184965">
        <ele>1974.1300000000001</ele>
        <time>2020-02-23T10:05:14Z</time>
      </trkpt>
      <trkpt lat="46.42610153183341" lon="8.424195237457752">
        <ele>1975.7</ele>
        <time>2020-02-23T10:05:25Z</time>
      </trkpt>
      <trkpt lat="46.42612935975194" lon="8.42421711422503">
        <ele>1977.6400000000001</ele>
        <time>2020-02-23T10:05:34Z</time>
      </trkpt>
      <trkpt lat="46.426137741655111" lon="8.424251899123192">
        <ele>1979.5</ele>
        <time>2020-02-23T10:05:44Z</time>
      </trkpt>
      <trkpt lat="46.426158025860786" lon="8.424301939085126">
        <ele>1981.9200000000001</ele>
        <time>2020-02-23T10:05:55Z</time>
      </trkpt>
      <trkpt lat="46.426178980618715" lon="8.424343513324857">
        <ele>1981.96</ele>
        <time>2020-02-23T10:06:05Z</time>
      </trkpt>
      <trkpt lat="46.426211502403021" lon="8.42433194629848">
        <ele>1982.78</ele>
        <time>2020-02-23T10:06:16Z</time>
      </trkpt>
      <trkpt lat="46.426208820194006" lon="8.424338484182954">
        <ele>1982.71</ele>
        <time>2020-02-23T10:06:32Z</time>
      </trkpt>
      <trkpt lat="46.426210748031735" lon="8.424339154735208">
        <ele>1982.9200000000001</ele>
        <time>2020-02-23T10:06:48Z</time>
      </trkpt>
      <trkpt lat="46.426205048337579" lon="8.424337226897478">
        <ele>1982.4100000000001</ele>
        <time>2020-02-23T10:07:05Z</time>
      </trkpt>
      <trkpt lat="46.426209826022387" lon="8.42433244921267">
        <ele>1982.6099999999999</ele>
        <time>2020-02-23T10:07:21Z</time>
      </trkpt>
      <trkpt lat="46.426201863214374" lon="8.424338651821017">
        <ele>1982.46</ele>
        <time>2020-02-23T10:07:43Z</time>
      </trkpt>
      <trkpt lat="46.426199851557612" lon="8.424344267696142">
        <ele>1983.6800000000001</ele>
        <time>2020-02-23T10:07:57Z</time>
      </trkpt>
      <trkpt lat="46.42620119266212" lon="8.424341836944223">
        <ele>1983.6900000000001</ele>
        <time>2020-02-23T10:08:15Z</time>
      </trkpt>
      <trkpt lat="46.426202785223722" lon="8.424334796145558">
        <ele>1983.6199999999999</ele>
        <time>2020-02-23T10:08:39Z</time>
      </trkpt>
      <trkpt lat="46.426196666434407" lon="8.424332197755575">
        <ele>1983.4100000000001</ele>
        <time>2020-02-23T10:09:00Z</time>
      </trkpt>
      <trkpt lat="46.426192056387663" lon="8.424332616850734">
        <ele>1984.01</ele>
        <time>2020-02-23T10:09:21Z</time>
      </trkpt>
      <trkpt lat="46.426209574565291" lon="8.424350218847394">
        <ele>1985.3299999999999</ele>
        <time>2020-02-23T10:09:39Z</time>
      </trkpt>
      <trkpt lat="46.426254753023386" lon="8.424393218010664">
        <ele>1987.95</ele>
        <time>2020-02-23T10:09:51Z</time>
      </trkpt>
      <trkpt lat="46.426286017522216" lon="8.424426494166255">
        <ele>1989.72</ele>
        <time>2020-02-23T10:10:00Z</time>
      </trkpt>
      <trkpt lat="46.426325161010027" lon="8.424491370096803">
        <ele>1992.23</ele>
        <time>2020-02-23T10:10:14Z</time>
      </trkpt>
      <trkpt lat="46.426362963393331" lon="8.424515007063747">
        <ele>1993.6800000000001</ele>
        <time>2020-02-23T10:10:24Z</time>
      </trkpt>
      <trkpt lat="46.426394982263446" lon="8.424537219107151">
        <ele>1995.0999999999999</ele>
        <time>2020-02-23T10:10:33Z</time>
      </trkpt>
      <trkpt lat="46.42641861923039" lon="8.424564460292459">
        <ele>1996.5599999999999</ele>
        <time>2020-02-23T10:10:42Z</time>
      </trkpt>
      <trkpt lat="46.426437143236399" lon="8.424604944884777">
        <ele>1998.4000000000001</ele>
        <time>2020-02-23T10:10:53Z</time>
      </trkpt>
      <trkpt lat="46.426458600908518" lon="8.424640232697129">
        <ele>2000.6300000000001</ele>
        <time>2020-02-23T10:11:04Z</time>
      </trkpt>
      <trkpt lat="46.426476705819368" lon="8.42467937618494">
        <ele>2002.3299999999999</ele>
        <time>2020-02-23T10:11:15Z</time>
      </trkpt>
      <trkpt lat="46.426500761881471" lon="8.424737211316824">
        <ele>2004</ele>
        <time>2020-02-23T10:11:26Z</time>
      </trkpt>
      <trkpt lat="46.426511909812689" lon="8.424796219915152">
        <ele>2005.6400000000001</ele>
        <time>2020-02-23T10:11:38Z</time>
      </trkpt>
      <trkpt lat="46.426532445475459" lon="8.424859922379255">
        <ele>2007.8099999999999</ele>
        <time>2020-02-23T10:11:52Z</time>
      </trkpt>
      <trkpt lat="46.426580809056759" lon="8.424855563789606">
        <ele>2009.78</ele>
        <time>2020-02-23T10:12:03Z</time>
      </trkpt>
      <trkpt lat="46.42661115154624" lon="8.42487433925271">
        <ele>2011.1400000000001</ele>
        <time>2020-02-23T10:12:12Z</time>
      </trkpt>
      <trkpt lat="46.4266321901232" lon="8.424892192706466">
        <ele>2013.1199999999999</ele>
        <time>2020-02-23T10:12:21Z</time>
      </trkpt>
      <trkpt lat="46.42662632279098" lon="8.424959918484092">
        <ele>2014.5799999999999</ele>
        <time>2020-02-23T10:12:33Z</time>
      </trkpt>
      <trkpt lat="46.42662045545876" lon="8.425032505765557">
        <ele>2016.3299999999999</ele>
        <time>2020-02-23T10:12:45Z</time>
      </trkpt>
      <trkpt lat="46.426638141274452" lon="8.425057819113135">
        <ele>2017.71</ele>
        <time>2020-02-23T10:12:58Z</time>
      </trkpt>
      <trkpt lat="46.426624227315187" lon="8.425055053085089">
        <ele>2017.9000000000001</ele>
        <time>2020-02-23T10:13:09Z</time>
      </trkpt>
      <trkpt lat="46.426623053848743" lon="8.42503946274519">
        <ele>2018.01</ele>
        <time>2020-02-23T10:13:20Z</time>
      </trkpt>
      <trkpt lat="46.426640236750245" lon="8.425011551007628">
        <ele>2018.22</ele>
        <time>2020-02-23T10:13:30Z</time>
      </trkpt>
      <trkpt lat="46.426659179851413" lon="8.424979113042355">
        <ele>2018.29</ele>
        <time>2020-02-23T10:13:39Z</time>
      </trkpt>
      <trkpt lat="46.426661442965269" lon="8.42496226541698">
        <ele>2019.05</ele>
        <time>2020-02-23T10:13:48Z</time>
      </trkpt>
      <trkpt lat="46.426669238135219" lon="8.424954554066062">
        <ele>2018.46</ele>
        <time>2020-02-23T10:14:04Z</time>
      </trkpt>
      <trkpt lat="46.426689606159925" lon="8.424911890178919">
        <ele>2019.5899999999999</ele>
        <time>2020-02-23T10:14:14Z</time>
      </trkpt>
      <trkpt lat="46.426692623645067" lon="8.424906441941857">
        <ele>2018.51</ele>
        <time>2020-02-23T10:14:27Z</time>
      </trkpt>
      <trkpt lat="46.426695305854082" lon="8.424917925149202">
        <ele>2018.53</ele>
        <time>2020-02-23T10:14:45Z</time>
      </trkpt>
      <trkpt lat="46.42674358561635" lon="8.424900658428669">
        <ele>2019.99</ele>
        <time>2020-02-23T10:14:56Z</time>
      </trkpt>
      <trkpt lat="46.426786500960588" lon="8.424814911559224">
        <ele>2020.8299999999999</ele>
        <time>2020-02-23T10:15:06Z</time>
      </trkpt>
      <trkpt lat="46.426844922825694" lon="8.424710389226675">
        <ele>2022.1700000000001</ele>
        <time>2020-02-23T10:15:19Z</time>
      </trkpt>
      <trkpt lat="46.426890017464757" lon="8.424556748941541">
        <ele>2023.1800000000001</ele>
        <time>2020-02-23T10:15:32Z</time>
      </trkpt>
      <trkpt lat="46.426916252821684" lon="8.424417860805988">
        <ele>2024.6099999999999</ele>
        <time>2020-02-23T10:15:44Z</time>
      </trkpt>
      <trkpt lat="46.426918767392635" lon="8.424405790865421">
        <ele>2024.6800000000001</ele>
        <time>2020-02-23T10:15:45Z</time>
      </trkpt>
      <trkpt lat="46.426957407966256" lon="8.42423127964139">
        <ele>2025.45</ele>
        <time>2020-02-23T10:15:59Z</time>
      </trkpt>
      <trkpt lat="46.427019098773599" lon="8.424128266051412">
        <ele>2026.1300000000001</ele>
        <time>2020-02-23T10:16:12Z</time>
      </trkpt>
      <trkpt lat="46.427113898098469" lon="8.424057858064771">
        <ele>2027.0599999999999</ele>
        <time>2020-02-23T10:16:25Z</time>
      </trkpt>
      <trkpt lat="46.427153293043375" lon="8.424060959368944">
        <ele>2027.8299999999999</ele>
        <time>2020-02-23T10:16:37Z</time>
      </trkpt>
      <trkpt lat="46.427190592512488" lon="8.424095744267106">
        <ele>2027.97</ele>
        <time>2020-02-23T10:16:48Z</time>
      </trkpt>
      <trkpt lat="46.427253875881433" lon="8.424116615206003">
        <ele>2030.0799999999999</ele>
        <time>2020-02-23T10:17:00Z</time>
      </trkpt>
      <trkpt lat="46.427326379343867" lon="8.424141258001328">
        <ele>2031.8699999999999</ele>
        <time>2020-02-23T10:17:13Z</time>
      </trkpt>
      <trkpt lat="46.427374491468072" lon="8.424164308235049">
        <ele>2033.0799999999999</ele>
        <time>2020-02-23T10:17:24Z</time>
      </trkpt>
      <trkpt lat="46.427436349913478" lon="8.424190208315849">
        <ele>2034.3399999999999</ele>
        <time>2020-02-23T10:17:36Z</time>
      </trkpt>
      <trkpt lat="46.427482450380921" lon="8.424201356247068">
        <ele>2035.9400000000001</ele>
        <time>2020-02-23T10:17:46Z</time>
      </trkpt>
      <trkpt lat="46.427535340189934" lon="8.424207726493478">
        <ele>2038.01</ele>
        <time>2020-02-23T10:17:58Z</time>
      </trkpt>
      <trkpt lat="46.42758353613317" lon="8.424226082861424">
        <ele>2040.29</ele>
        <time>2020-02-23T10:18:10Z</time>
      </trkpt>
      <trkpt lat="46.42762309871614" lon="8.424238571897149">
        <ele>2041.5899999999999</ele>
        <time>2020-02-23T10:18:20Z</time>
      </trkpt>
      <trkpt lat="46.427670288830996" lon="8.424242092296481">
        <ele>2043.03</ele>
        <time>2020-02-23T10:18:30Z</time>
      </trkpt>
      <trkpt lat="46.427701804786921" lon="8.42425374314189">
        <ele>2044.8299999999999</ele>
        <time>2020-02-23T10:18:39Z</time>
      </trkpt>
      <trkpt lat="46.4277408644557" lon="8.424261119216681">
        <ele>2046.73</ele>
        <time>2020-02-23T10:18:49Z</time>
      </trkpt>
      <trkpt lat="46.4277702011168" lon="8.4242601133883">
        <ele>2048.02</ele>
        <time>2020-02-23T10:18:59Z</time>
      </trkpt>
      <trkpt lat="46.427804231643677" lon="8.42427964322269">
        <ele>2049.8200000000002</ele>
        <time>2020-02-23T10:19:09Z</time>
      </trkpt>
      <trkpt lat="46.42784639261663" lon="8.424285259097815">
        <ele>2051.5500000000002</ele>
        <time>2020-02-23T10:19:20Z</time>
      </trkpt>
      <trkpt lat="46.427895342931151" lon="8.424273524433374">
        <ele>2053.0700000000002</ele>
        <time>2020-02-23T10:19:30Z</time>
      </trkpt>
      <trkpt lat="46.427944879978895" lon="8.42425717972219">
        <ele>2054.7199999999998</ele>
        <time>2020-02-23T10:19:41Z</time>
      </trkpt>
      <trkpt lat="46.427999697625637" lon="8.424244103953242">
        <ele>2055.8499999999999</ele>
        <time>2020-02-23T10:19:52Z</time>
      </trkpt>
      <trkpt lat="46.428068177774549" lon="8.424221305176616">
        <ele>2057.3800000000001</ele>
        <time>2020-02-23T10:20:05Z</time>
      </trkpt>
      <trkpt lat="46.428137579932809" lon="8.424197416752577">
        <ele>2058.8800000000001</ele>
        <time>2020-02-23T10:20:18Z</time>
      </trkpt>
      <trkpt lat="46.428201617673039" lon="8.42421418055892">
        <ele>2060.0599999999999</ele>
        <time>2020-02-23T10:20:30Z</time>
      </trkpt>
      <trkpt lat="46.428261129185557" lon="8.424215773120523">
        <ele>2062.0599999999999</ele>
        <time>2020-02-23T10:20:41Z</time>
      </trkpt>
      <trkpt lat="46.428297087550163" lon="8.424202110618353">
        <ele>2062.0500000000002</ele>
        <time>2020-02-23T10:20:51Z</time>
      </trkpt>
      <trkpt lat="46.428330615162849" lon="8.424251060932875">
        <ele>2062.52</ele>
        <time>2020-02-23T10:21:05Z</time>
      </trkpt>
      <trkpt lat="46.428328016772866" lon="8.424247959628701">
        <ele>2063.5599999999999</ele>
        <time>2020-02-23T10:21:18Z</time>
      </trkpt>
      <trkpt lat="46.428318293765187" lon="8.424246618524194">
        <ele>2061.6500000000001</ele>
        <time>2020-02-23T10:21:34Z</time>
      </trkpt>
      <trkpt lat="46.428309995681047" lon="8.424249552190304">
        <ele>2062.2199999999998</ele>
        <time>2020-02-23T10:22:03Z</time>
      </trkpt>
      <trkpt lat="46.428309576585889" lon="8.424267573282123">
        <ele>2062.8299999999999</ele>
        <time>2020-02-23T10:22:25Z</time>
      </trkpt>
      <trkpt lat="46.428308906033635" lon="8.424249803647399">
        <ele>2063.1199999999999</ele>
        <time>2020-02-23T10:22:38Z</time>
      </trkpt>
      <trkpt lat="46.428304212167859" lon="8.424248630180955">
        <ele>2063.9200000000001</ele>
        <time>2020-02-23T10:22:51Z</time>
      </trkpt>
      <trkpt lat="46.428305050358176" lon="8.424246869981289">
        <ele>2062.8600000000001</ele>
        <time>2020-02-23T10:23:07Z</time>
      </trkpt>
      <trkpt lat="46.428299518302083" lon="8.424232956022024">
        <ele>2062.8699999999999</ele>
        <time>2020-02-23T10:23:25Z</time>
      </trkpt>
      <trkpt lat="46.42829499207437" lon="8.424236979335547">
        <ele>2063.1399999999999</ele>
        <time>2020-02-23T10:23:55Z</time>
      </trkpt>
      <trkpt lat="46.42829398624599" lon="8.424238739535213">
        <ele>2063.04</ele>
        <time>2020-02-23T10:24:16Z</time>
      </trkpt>
      <trkpt lat="46.428296081721783" lon="8.424249216914177">
        <ele>2062.75</ele>
        <time>2020-02-23T10:24:42Z</time>
      </trkpt>
      <trkpt lat="46.428296836093068" lon="8.424252402037382">
        <ele>2063.27</ele>
        <time>2020-02-23T10:24:47Z</time>
      </trkpt>
      <trkpt lat="46.428298596292734" lon="8.424244355410337">
        <ele>2062.98</ele>
        <time>2020-02-23T10:25:07Z</time>
      </trkpt>
      <trkpt lat="46.428298931568861" lon="8.424247456714511">
        <ele>2063.0300000000002</ele>
        <time>2020-02-23T10:25:29Z</time>
      </trkpt>
      <trkpt lat="46.428297758102417" lon="8.424244523048401">
        <ele>2063.4099999999999</ele>
        <time>2020-02-23T10:25:44Z</time>
      </trkpt>
      <trkpt lat="46.428298596292734" lon="8.424247121438384">
        <ele>2063.8499999999999</ele>
        <time>2020-02-23T10:26:00Z</time>
      </trkpt>
      <trkpt lat="46.428309744223952" lon="8.424250474199653">
        <ele>2064.1599999999999</ele>
        <time>2020-02-23T10:26:22Z</time>
      </trkpt>
      <trkpt lat="46.428390210494399" lon="8.424220466986299">
        <ele>2064.7399999999998</ele>
        <time>2020-02-23T10:26:34Z</time>
      </trkpt>
      <trkpt lat="46.428431533277035" lon="8.424189621582627">
        <ele>2065</ele>
        <time>2020-02-23T10:26:41Z</time>
      </trkpt>
      <trkpt lat="46.428464557975531" lon="8.42416045255959">
        <ele>2065.3299999999999</ele>
        <time>2020-02-23T10:26:45Z</time>
      </trkpt>
      <trkpt lat="46.428541839122772" lon="8.424082919955254">
        <ele>2067.1799999999998</ele>
        <time>2020-02-23T10:26:56Z</time>
      </trkpt>
      <trkpt lat="46.428615096956491" lon="8.423941098153591">
        <ele>2069.0900000000001</ele>
        <time>2020-02-23T10:27:10Z</time>
      </trkpt>
      <trkpt lat="46.428653486073017" lon="8.423792738467455">
        <ele>2070.54</ele>
        <time>2020-02-23T10:27:23Z</time>
      </trkpt>
      <trkpt lat="46.428668238222599" lon="8.423654437065125">
        <ele>2071.54</ele>
        <time>2020-02-23T10:27:35Z</time>
      </trkpt>
      <trkpt lat="46.428670668974519" lon="8.423539940267801">
        <ele>2072.21</ele>
        <time>2020-02-23T10:27:45Z</time>
      </trkpt>
      <trkpt lat="46.428657593205571" lon="8.423399208113551">
        <ele>2073.1300000000001</ele>
        <time>2020-02-23T10:27:57Z</time>
      </trkpt>
      <trkpt lat="46.428633788600564" lon="8.42328286729753">
        <ele>2074.4299999999998</ele>
        <time>2020-02-23T10:28:08Z</time>
      </trkpt>
      <trkpt lat="46.428580982610583" lon="8.423132998868823">
        <ele>2076.04</ele>
        <time>2020-02-23T10:28:22Z</time>
      </trkpt>
      <trkpt lat="46.428532619029284" lon="8.422997882589698">
        <ele>2077.4099999999999</ele>
        <time>2020-02-23T10:28:35Z</time>
      </trkpt>
      <trkpt lat="46.42850018106401" lon="8.422851534560323">
        <ele>2078.2399999999998</ele>
        <time>2020-02-23T10:28:47Z</time>
      </trkpt>
      <trkpt lat="46.428491463884711" lon="8.42269697226584">
        <ele>2079.3200000000002</ele>
        <time>2020-02-23T10:28:59Z</time>
      </trkpt>
      <trkpt lat="46.4285041205585" lon="8.422552216798067">
        <ele>2080.5500000000002</ele>
        <time>2020-02-23T10:29:11Z</time>
      </trkpt>
      <trkpt lat="46.428520129993558" lon="8.422392541542649">
        <ele>2082.3400000000001</ele>
        <time>2020-02-23T10:29:24Z</time>
      </trkpt>
      <trkpt lat="46.428536558523774" lon="8.422224568203092">
        <ele>2083.98</ele>
        <time>2020-02-23T10:29:38Z</time>
      </trkpt>
      <trkpt lat="46.428548628464341" lon="8.422085260972381">
        <ele>2085.6999999999998</ele>
        <time>2020-02-23T10:29:50Z</time>
      </trkpt>
      <trkpt lat="46.428608475252986" lon="8.422021558508277">
        <ele>2086.9000000000001</ele>
        <time>2020-02-23T10:30:02Z</time>
      </trkpt>
      <trkpt lat="46.428636722266674" lon="8.42206665314734">
        <ele>2086.7600000000002</ele>
        <time>2020-02-23T10:30:12Z</time>
      </trkpt>
      <trkpt lat="46.428665556013584" lon="8.422130942344666">
        <ele>2087.9400000000001</ele>
        <time>2020-02-23T10:30:25Z</time>
      </trkpt>
      <trkpt lat="46.428680727258325" lon="8.422234123572707">
        <ele>2089.3699999999999</ele>
        <time>2020-02-23T10:30:35Z</time>
      </trkpt>
      <trkpt lat="46.428675446659327" lon="8.422412909567356">
        <ele>2090.6999999999998</ele>
        <time>2020-02-23T10:30:52Z</time>
      </trkpt>
      <trkpt lat="46.428692378103733" lon="8.422533525153995">
        <ele>2091.98</ele>
        <time>2020-02-23T10:31:03Z</time>
      </trkpt>
      <trkpt lat="46.42871911637485" lon="8.422670820727944">
        <ele>2092.4000000000001</ele>
        <time>2020-02-23T10:31:16Z</time>
      </trkpt>
      <trkpt lat="46.428778963163495" lon="8.422741312533617">
        <ele>2093.9099999999999</ele>
        <time>2020-02-23T10:31:28Z</time>
      </trkpt>
      <trkpt lat="46.428813664242625" lon="8.422765452414751">
        <ele>2094.6900000000001</ele>
        <time>2020-02-23T10:31:38Z</time>
      </trkpt>
      <trkpt lat="46.428856998682022" lon="8.422784563153982">
        <ele>2096.6399999999999</ele>
        <time>2020-02-23T10:31:51Z</time>
      </trkpt>
      <trkpt lat="46.428885413333774" lon="8.422811217606068">
        <ele>2099.04</ele>
        <time>2020-02-23T10:32:02Z</time>
      </trkpt>
      <trkpt lat="46.428927574306726" lon="8.422834854573011">
        <ele>2100.6100000000001</ele>
        <time>2020-02-23T10:32:11Z</time>
      </trkpt>
      <trkpt lat="46.428963029757142" lon="8.422861592844129">
        <ele>2102.0500000000002</ele>
        <time>2020-02-23T10:32:21Z</time>
      </trkpt>
      <trkpt lat="46.428997982293367" lon="8.422889420762658">
        <ele>2103.8299999999999</ele>
        <time>2020-02-23T10:32:30Z</time>
      </trkpt>
      <trkpt lat="46.429029246792197" lon="8.422930659726262">
        <ele>2104.96</ele>
        <time>2020-02-23T10:32:41Z</time>
      </trkpt>
      <trkpt lat="46.429053889587522" lon="8.422983633354306">
        <ele>2107.29</ele>
        <time>2020-02-23T10:32:51Z</time>
      </trkpt>
      <trkpt lat="46.429093452170491" lon="8.423061165958643">
        <ele>2108.21</ele>
        <time>2020-02-23T10:33:03Z</time>
      </trkpt>
      <trkpt lat="46.429129494354129" lon="8.423125538975">
        <ele>2110.4499999999998</ele>
        <time>2020-02-23T10:33:12Z</time>
      </trkpt>
      <trkpt lat="46.42914080992341" lon="8.423134172335267">
        <ele>2111.0700000000002</ele>
        <time>2020-02-23T10:33:14Z</time>
      </trkpt>
      <trkpt lat="46.429187329486012" lon="8.423190247267485">
        <ele>2112.3600000000001</ele>
        <time>2020-02-23T10:33:25Z</time>
      </trkpt>
      <trkpt lat="46.429210128262639" lon="8.423260571435094">
        <ele>2113.4499999999998</ele>
        <time>2020-02-23T10:33:37Z</time>
      </trkpt>
      <trkpt lat="46.429212642833591" lon="8.423266522586346">
        <ele>2113.4200000000001</ele>
        <time>2020-02-23T10:33:38Z</time>
      </trkpt>
      <trkpt lat="46.429224880412221" lon="8.423314802348614">
        <ele>2116.5700000000002</ele>
        <time>2020-02-23T10:33:47Z</time>
      </trkpt>
      <trkpt lat="46.42922974191606" lon="8.423315305262804">
        <ele>2112.6300000000001</ele>
        <time>2020-02-23T10:33:55Z</time>
      </trkpt>
      <trkpt lat="46.429228987544775" lon="8.423315808176994">
        <ele>2111.1900000000001</ele>
        <time>2020-02-23T10:33:57Z</time>
      </trkpt>
      <trkpt lat="46.429228819906712" lon="8.423318238928914">
        <ele>2116.0799999999999</ele>
        <time>2020-02-23T10:33:59Z</time>
      </trkpt>
      <trkpt lat="46.429229155182838" lon="8.423325782641769">
        <ele>2116.3800000000001</ele>
        <time>2020-02-23T10:34:00Z</time>
      </trkpt>
      <trkpt lat="46.429232256487012" lon="8.423342714086175">
        <ele>2113.1399999999999</ele>
        <time>2020-02-23T10:34:02Z</time>
      </trkpt>
      <trkpt lat="46.429233765229583" lon="8.423350928351283">
        <ele>2113.3200000000002</ele>
        <time>2020-02-23T10:34:03Z</time>
      </trkpt>
      <trkpt lat="46.429233178496361" lon="8.423443799838424">
        <ele>2114.9200000000001</ele>
        <time>2020-02-23T10:34:14Z</time>
      </trkpt>
      <trkpt lat="46.429233849048615" lon="8.423581682145596">
        <ele>2114.21</ele>
        <time>2020-02-23T10:34:27Z</time>
      </trkpt>
      <trkpt lat="46.429259078577161" lon="8.423683941364288">
        <ele>2117.5900000000001</ele>
        <time>2020-02-23T10:34:36Z</time>
      </trkpt>
      <trkpt lat="46.429261676967144" lon="8.423695927485824">
        <ele>2117.6300000000001</ele>
        <time>2020-02-23T10:34:37Z</time>
      </trkpt>
      <trkpt lat="46.429284978657961" lon="8.423798521980643">
        <ele>2117.2800000000002</ele>
        <time>2020-02-23T10:34:47Z</time>
      </trkpt>
      <trkpt lat="46.429301239550114" lon="8.423853423446417">
        <ele>2118.7800000000002</ele>
        <time>2020-02-23T10:34:52Z</time>
      </trkpt>
      <trkpt lat="46.429336275905371" lon="8.42398988083005">
        <ele>2118.3099999999999</ele>
        <time>2020-02-23T10:35:03Z</time>
      </trkpt>
      <trkpt lat="46.42934993840754" lon="8.424132121726871">
        <ele>2119.7199999999998</ele>
        <time>2020-02-23T10:35:15Z</time>
      </trkpt>
      <trkpt lat="46.429354883730412" lon="8.424241254106164">
        <ele>2121.96</ele>
        <time>2020-02-23T10:35:24Z</time>
      </trkpt>
      <trkpt lat="46.429350944235921" lon="8.424377040937543">
        <ele>2121.5700000000002</ele>
        <time>2020-02-23T10:35:36Z</time>
      </trkpt>
      <trkpt lat="46.429321691393852" lon="8.424468655139208">
        <ele>2122.5599999999999</ele>
        <time>2020-02-23T10:35:44Z</time>
      </trkpt>
      <trkpt lat="46.429299730807543" lon="8.424514923244715">
        <ele>2123.4499999999998</ele>
        <time>2020-02-23T10:35:48Z</time>
      </trkpt>
      <trkpt lat="46.429222198203206" lon="8.424656996503472">
        <ele>2124.1599999999999</ele>
        <time>2020-02-23T10:36:01Z</time>
      </trkpt>
      <trkpt lat="46.429191268980503" lon="8.424790352582932">
        <ele>2123.2600000000002</ele>
        <time>2020-02-23T10:36:12Z</time>
      </trkpt>
      <trkpt lat="46.429200153797865" lon="8.424945082515478">
        <ele>2124.4299999999998</ele>
        <time>2020-02-23T10:36:24Z</time>
      </trkpt>
      <trkpt lat="46.429232340306044" lon="8.425028147175908">
        <ele>2126.8699999999999</ele>
        <time>2020-02-23T10:36:32Z</time>
      </trkpt>
      <trkpt lat="46.429300904273987" lon="8.425158318132162">
        <ele>2126.79</ele>
        <time>2020-02-23T10:36:45Z</time>
      </trkpt>
      <trkpt lat="46.429365025833249" lon="8.425280442461371">
        <ele>2129.1300000000001</ele>
        <time>2020-02-23T10:36:58Z</time>
      </trkpt>
      <trkpt lat="46.429407941177487" lon="8.425380438566208">
        <ele>2129.0300000000002</ele>
        <time>2020-02-23T10:37:09Z</time>
      </trkpt>
      <trkpt lat="46.429468207061291" lon="8.425499796867371">
        <ele>2129.2600000000002</ele>
        <time>2020-02-23T10:37:21Z</time>
      </trkpt>
      <trkpt lat="46.429532496258616" lon="8.425637008622289">
        <ele>2130.1799999999998</ele>
        <time>2020-02-23T10:37:33Z</time>
      </trkpt>
      <trkpt lat="46.429597456008196" lon="8.425777489319444">
        <ele>2130.21</ele>
        <time>2020-02-23T10:37:45Z</time>
      </trkpt>
      <trkpt lat="46.429673228412867" lon="8.425926519557834">
        <ele>2130.4899999999998</ele>
        <time>2020-02-23T10:37:58Z</time>
      </trkpt>
      <trkpt lat="46.429764004424214" lon="8.426090637221932">
        <ele>2130.3800000000001</ele>
        <time>2020-02-23T10:38:12Z</time>
      </trkpt>
      <trkpt lat="46.429855786263943" lon="8.426228184252977">
        <ele>2131.73</ele>
        <time>2020-02-23T10:38:25Z</time>
      </trkpt>
      <trkpt lat="46.429942874237895" lon="8.426376208662987">
        <ele>2131.5</ele>
        <time>2020-02-23T10:38:38Z</time>
      </trkpt>
      <trkpt lat="46.430027028545737" lon="8.426571590825915">
        <ele>2130.77</ele>
        <time>2020-02-23T10:38:53Z</time>
      </trkpt>
      <trkpt lat="46.430084528401494" lon="8.426755992695689">
        <ele>2131.2399999999998</ele>
        <time>2020-02-23T10:39:06Z</time>
      </trkpt>
      <trkpt lat="46.430138004943728" lon="8.426921702921391">
        <ele>2131.6799999999998</ele>
        <time>2020-02-23T10:39:18Z</time>
      </trkpt>
      <trkpt lat="46.430203467607498" lon="8.42708682641387">
        <ele>2131.8600000000001</ele>
        <time>2020-02-23T10:39:30Z</time>
      </trkpt>
      <trkpt lat="46.430280078202486" lon="8.42725002206862">
        <ele>2131.8400000000001</ele>
        <time>2020-02-23T10:39:43Z</time>
      </trkpt>
      <trkpt lat="46.4303760509938" lon="8.427401734516025">
        <ele>2132.98</ele>
        <time>2020-02-23T10:39:57Z</time>
      </trkpt>
      <trkpt lat="46.430436819791794" lon="8.427480356767774">
        <ele>2133.6199999999999</ele>
        <time>2020-02-23T10:40:08Z</time>
      </trkpt>
      <trkpt lat="46.430544191971421" lon="8.427600553259254">
        <ele>2134.75</ele>
        <time>2020-02-23T10:40:22Z</time>
      </trkpt>
      <trkpt lat="46.430638236925006" lon="8.427702896296978">
        <ele>2136.6300000000001</ele>
        <time>2020-02-23T10:40:35Z</time>
      </trkpt>
      <trkpt lat="46.430775364860892" lon="8.427798366174102">
        <ele>2138.1799999999998</ele>
        <time>2020-02-23T10:40:50Z</time>
      </trkpt>
      <trkpt lat="46.430902434512973" lon="8.427862739190459">
        <ele>2139.29</ele>
        <time>2020-02-23T10:41:04Z</time>
      </trkpt>
      <trkpt lat="46.431028414517641" lon="8.427912862971425">
        <ele>2140.1799999999998</ele>
        <time>2020-02-23T10:41:19Z</time>
      </trkpt>
      <trkpt lat="46.431139977648854" lon="8.427992910146713">
        <ele>2140.98</ele>
        <time>2020-02-23T10:41:32Z</time>
      </trkpt>
      <trkpt lat="46.431232346221805" lon="8.428131463006139">
        <ele>2141.8200000000002</ele>
        <time>2020-02-23T10:41:46Z</time>
      </trkpt>
      <trkpt lat="46.431296383962035" lon="8.428277978673577">
        <ele>2142.1999999999998</ele>
        <time>2020-02-23T10:41:59Z</time>
      </trkpt>
      <trkpt lat="46.431374922394753" lon="8.428447963669896">
        <ele>2143.1599999999999</ele>
        <time>2020-02-23T10:42:15Z</time>
      </trkpt>
      <trkpt lat="46.431446336209774" lon="8.42859473079443">
        <ele>2144.9200000000001</ele>
        <time>2020-02-23T10:42:31Z</time>
      </trkpt>
      <trkpt lat="46.431515486910939" lon="8.428728422150016">
        <ele>2146.0300000000002</ele>
        <time>2020-02-23T10:42:46Z</time>
      </trkpt>
      <trkpt lat="46.431564101949334" lon="8.428829843178392">
        <ele>2147.0900000000001</ele>
        <time>2020-02-23T10:42:57Z</time>
      </trkpt>
      <trkpt lat="46.431622775271535" lon="8.428952721878886">
        <ele>2147.3400000000001</ele>
        <time>2020-02-23T10:43:09Z</time>
      </trkpt>
      <trkpt lat="46.431678850203753" lon="8.429135447368026">
        <ele>2146.79</ele>
        <time>2020-02-23T10:43:22Z</time>
      </trkpt>
      <trkpt lat="46.4316919259727" lon="8.429193282499909">
        <ele>2147.2600000000002</ele>
        <time>2020-02-23T10:43:26Z</time>
      </trkpt>
      <trkpt lat="46.431741630658507" lon="8.429402494803071">
        <ele>2147.4499999999998</ele>
        <time>2020-02-23T10:43:41Z</time>
      </trkpt>
      <trkpt lat="46.431802064180374" lon="8.42956711538136">
        <ele>2147.8800000000001</ele>
        <time>2020-02-23T10:43:54Z</time>
      </trkpt>
      <trkpt lat="46.431879261508584" lon="8.429720252752304">
        <ele>2148.3899999999999</ele>
        <time>2020-02-23T10:44:06Z</time>
      </trkpt>
      <trkpt lat="46.431981520727277" lon="8.429876742884517">
        <ele>2148.8499999999999</ele>
        <time>2020-02-23T10:44:20Z</time>
      </trkpt>
      <trkpt lat="46.432073470205069" lon="8.430039351806045">
        <ele>2149.8200000000002</ele>
        <time>2020-02-23T10:44:34Z</time>
      </trkpt>
      <trkpt lat="46.43215661868453" lon="8.430173378437758">
        <ele>2150.5799999999999</ele>
        <time>2020-02-23T10:44:47Z</time>
      </trkpt>
      <trkpt lat="46.432248735800385" lon="8.430308913812041">
        <ele>2150.98</ele>
        <time>2020-02-23T10:45:01Z</time>
      </trkpt>
      <trkpt lat="46.432330962270498" lon="8.430422572419047">
        <ele>2150.8800000000001</ele>
        <time>2020-02-23T10:45:14Z</time>
      </trkpt>
      <trkpt lat="46.432403884828091" lon="8.430541846901178">
        <ele>2150.6700000000001</ele>
        <time>2020-02-23T10:45:27Z</time>
      </trkpt>
      <trkpt lat="46.432395670562983" lon="8.430578475818038">
        <ele>2151.1300000000001</ele>
        <time>2020-02-23T10:45:38Z</time>
      </trkpt>
      <trkpt lat="46.432376392185688" lon="8.430566238239408">
        <ele>2151.1799999999998</ele>
        <time>2020-02-23T10:45:52Z</time>
      </trkpt>
      <trkpt lat="46.432365830987692" lon="8.430573530495167">
        <ele>2151.8499999999999</ele>
        <time>2020-02-23T10:46:09Z</time>
      </trkpt>
      <trkpt lat="46.43235057592392" lon="8.43056783080101">
        <ele>2151.5599999999999</ele>
        <time>2020-02-23T10:46:27Z</time>
      </trkpt>
      <trkpt lat="46.432376308366656" lon="8.430581074208021">
        <ele>2150.8099999999999</ele>
        <time>2020-02-23T10:46:37Z</time>
      </trkpt>
      <trkpt lat="46.432396341115236" lon="8.43058249913156">
        <ele>2150.9699999999998</ele>
        <time>2020-02-23T10:47:00Z</time>
      </trkpt>
      <trkpt lat="46.432395838201046" lon="8.430580990388989">
        <ele>2151.8499999999999</ele>
        <time>2020-02-23T10:47:17Z</time>
      </trkpt>
      <trkpt lat="46.432390976697206" lon="8.430583169683814">
        <ele>2151.3099999999999</ele>
        <time>2020-02-23T10:47:36Z</time>
      </trkpt>
      <trkpt lat="46.432378068566322" lon="8.430589456111193">
        <ele>2150.2800000000002</ele>
        <time>2020-02-23T10:47:57Z</time>
      </trkpt>
      <trkpt lat="46.432381421327591" lon="8.430588617920876">
        <ele>2150.5100000000002</ele>
        <time>2020-02-23T10:48:33Z</time>
      </trkpt>
      <trkpt lat="46.432394245639443" lon="8.430589539930224">
        <ele>2151.0599999999999</ele>
        <time>2020-02-23T10:48:44Z</time>
      </trkpt>
      <trkpt lat="46.432388294488192" lon="8.430585600435734">
        <ele>2150.0900000000001</ele>
        <time>2020-02-23T10:49:02Z</time>
      </trkpt>
      <trkpt lat="46.432372871786356" lon="8.430579397827387">
        <ele>2150.7199999999998</ele>
        <time>2020-02-23T10:49:24Z</time>
      </trkpt>
      <trkpt lat="46.432379661127925" lon="8.430582582950592">
        <ele>2150.5900000000001</ele>
        <time>2020-02-23T10:49:47Z</time>
      </trkpt>
      <trkpt lat="46.432380499318242" lon="8.4305839240551">
        <ele>2150.52</ele>
        <time>2020-02-23T10:50:00Z</time>
      </trkpt>
      <trkpt lat="46.432390557602048" lon="8.430594652891159">
        <ele>2149.6199999999999</ele>
        <time>2020-02-23T10:50:13Z</time>
      </trkpt>
      <trkpt lat="46.432401956990361" lon="8.430589456111193">
        <ele>2149.8499999999999</ele>
        <time>2020-02-23T10:50:39Z</time>
      </trkpt>
      <trkpt lat="46.432402459904552" lon="8.430588450282812">
        <ele>2150.0500000000002</ele>
        <time>2020-02-23T10:51:21Z</time>
      </trkpt>
      <trkpt lat="46.432405980303884" lon="8.430589623749256">
        <ele>2151.4499999999998</ele>
        <time>2020-02-23T10:51:47Z</time>
      </trkpt>
      <trkpt lat="46.432417463511229" lon="8.430600771680474">
        <ele>2150.2600000000002</ele>
        <time>2020-02-23T10:52:02Z</time>
      </trkpt>
      <trkpt lat="46.432392988353968" lon="8.430606219917536">
        <ele>2150.9099999999999</ele>
        <time>2020-02-23T10:52:18Z</time>
      </trkpt>
      <trkpt lat="46.432393742725253" lon="8.430608315393329">
        <ele>2151.4899999999998</ele>
        <time>2020-02-23T10:52:32Z</time>
      </trkpt>
      <trkpt lat="46.43239751458168" lon="8.430599682033062">
        <ele>2152.1599999999999</ele>
        <time>2020-02-23T10:52:45Z</time>
      </trkpt>
      <trkpt lat="46.432399861514568" lon="8.430609153583646">
        <ele>2151.9899999999998</ele>
        <time>2020-02-23T10:53:00Z</time>
      </trkpt>
      <trkpt lat="46.432402459904552" lon="8.430613428354263">
        <ele>2152.1700000000001</ele>
        <time>2020-02-23T10:53:15Z</time>
      </trkpt>
      <trkpt lat="46.432403884828091" lon="8.430612841621041">
        <ele>2151.77</ele>
        <time>2020-02-23T10:53:35Z</time>
      </trkpt>
      <trkpt lat="46.432401873171329" lon="8.430621223524213">
        <ele>2151.5</ele>
        <time>2020-02-23T10:53:52Z</time>
      </trkpt>
      <trkpt lat="46.432379996404052" lon="8.430714933201671">
        <ele>2152.8299999999999</ele>
        <time>2020-02-23T10:54:08Z</time>
      </trkpt>
      <trkpt lat="46.43238577991724" lon="8.430797914043069">
        <ele>2154.4499999999998</ele>
        <time>2020-02-23T10:54:18Z</time>
      </trkpt>
      <trkpt lat="46.432375302538276" lon="8.430896149948239">
        <ele>2156.0799999999999</ele>
        <time>2020-02-23T10:54:29Z</time>
      </trkpt>
      <trkpt lat="46.432368429377675" lon="8.430995894595981">
        <ele>2157.7399999999998</ele>
        <time>2020-02-23T10:54:40Z</time>
      </trkpt>
      <trkpt lat="46.432379242032766" lon="8.431110475212336">
        <ele>2158.4000000000001</ele>
        <time>2020-02-23T10:54:51Z</time>
      </trkpt>
      <trkpt lat="46.432399693876505" lon="8.431192450225353">
        <ele>2158.75</ele>
        <time>2020-02-23T10:55:00Z</time>
      </trkpt>
      <trkpt lat="46.432392736896873" lon="8.431227989494801">
        <ele>2158.7199999999998</ele>
        <time>2020-02-23T10:55:12Z</time>
      </trkpt>
      <trkpt lat="46.432396592572331" lon="8.431236622855067">
        <ele>2158.3899999999999</ele>
        <time>2020-02-23T10:55:23Z</time>
      </trkpt>
      <trkpt lat="46.432405058294535" lon="8.431268054991961">
        <ele>2158.7600000000002</ele>
        <time>2020-02-23T10:55:39Z</time>
      </trkpt>
      <trkpt lat="46.432434478774667" lon="8.43133938498795">
        <ele>2160.3299999999999</ele>
        <time>2020-02-23T10:55:50Z</time>
      </trkpt>
      <trkpt lat="46.43245710991323" lon="8.431393783539534">
        <ele>2161.1999999999998</ele>
        <time>2020-02-23T10:55:59Z</time>
      </trkpt>
      <trkpt lat="46.432481249794364" lon="8.431490426883102">
        <ele>2162.0799999999999</ele>
        <time>2020-02-23T10:56:10Z</time>
      </trkpt>
      <trkpt lat="46.432499019429088" lon="8.431574078276753">
        <ele>2163.5500000000002</ele>
        <time>2020-02-23T10:56:19Z</time>
      </trkpt>
      <trkpt lat="46.432521482929587" lon="8.431704333052039">
        <ele>2165.21</ele>
        <time>2020-02-23T10:56:34Z</time>
      </trkpt>
      <trkpt lat="46.432526260614395" lon="8.431804915890098">
        <ele>2167.0100000000002</ele>
        <time>2020-02-23T10:56:46Z</time>
      </trkpt>
      <trkpt lat="46.432525422424078" lon="8.431910527870059">
        <ele>2167.75</ele>
        <time>2020-02-23T10:56:58Z</time>
      </trkpt>
      <trkpt lat="46.432520560920238" lon="8.432034831494093">
        <ele>2169.0999999999999</ele>
        <time>2020-02-23T10:57:12Z</time>
      </trkpt>
      <trkpt lat="46.432521147653461" lon="8.432128876447678">
        <ele>2170.0900000000001</ele>
        <time>2020-02-23T10:57:22Z</time>
      </trkpt>
      <trkpt lat="46.432518465444446" lon="8.43223599717021">
        <ele>2171.5</ele>
        <time>2020-02-23T10:57:34Z</time>
      </trkpt>
      <trkpt lat="46.432512849569321" lon="8.432366587221623">
        <ele>2172.96</ele>
        <time>2020-02-23T10:57:48Z</time>
      </trkpt>
      <trkpt lat="46.432474376633763" lon="8.432437749579549">
        <ele>2174.9299999999998</ele>
        <time>2020-02-23T10:57:58Z</time>
      </trkpt>
      <trkpt lat="46.432408830150962" lon="8.432533722370863">
        <ele>2176.2399999999998</ele>
        <time>2020-02-23T10:58:12Z</time>
      </trkpt>
      <trkpt lat="46.432360298931599" lon="8.432608572766185">
        <ele>2177.3299999999999</ele>
        <time>2020-02-23T10:58:23Z</time>
      </trkpt>
      <trkpt lat="46.432314701378345" lon="8.432661211118102">
        <ele>2178.9699999999998</ele>
        <time>2020-02-23T10:58:35Z</time>
      </trkpt>
      <trkpt lat="46.432260889559984" lon="8.432707563042641">
        <ele>2180.29</ele>
        <time>2020-02-23T10:58:47Z</time>
      </trkpt>
      <trkpt lat="46.432180088013411" lon="8.432742431759834">
        <ele>2181.48</ele>
        <time>2020-02-23T10:59:01Z</time>
      </trkpt>
      <trkpt lat="46.43211261369288" lon="8.432761039584875">
        <ele>2182.3600000000001</ele>
        <time>2020-02-23T10:59:12Z</time>
      </trkpt>
      <trkpt lat="46.432044468820095" lon="8.432774534448981">
        <ele>2184.29</ele>
        <time>2020-02-23T10:59:23Z</time>
      </trkpt>
      <trkpt lat="46.431977329775691" lon="8.432773193344474">
        <ele>2185.4400000000001</ele>
        <time>2020-02-23T10:59:34Z</time>
      </trkpt>
      <trkpt lat="46.431916393339634" lon="8.432779563590884">
        <ele>2186.4099999999999</ele>
        <time>2020-02-23T10:59:43Z</time>
      </trkpt>
      <trkpt lat="46.431832574307919" lon="8.432790292426944">
        <ele>2188.0300000000002</ele>
        <time>2020-02-23T10:59:57Z</time>
      </trkpt>
      <trkpt lat="46.431777337566018" lon="8.432798841968179">
        <ele>2188.8699999999999</ele>
        <time>2020-02-23T11:00:06Z</time>
      </trkpt>
      <trkpt lat="46.431741714477539" lon="8.432819461449981">
        <ele>2188.77</ele>
        <time>2020-02-23T11:00:17Z</time>
      </trkpt>
      <trkpt lat="46.431681700050831" lon="8.432847708463669">
        <ele>2189.8600000000001</ele>
        <time>2020-02-23T11:00:29Z</time>
      </trkpt>
      <trkpt lat="46.431639287620783" lon="8.43291618861258">
        <ele>2190.8600000000001</ele>
        <time>2020-02-23T11:00:40Z</time>
      </trkpt>
      <trkpt lat="46.43162646330893" lon="8.433022471144795">
        <ele>2191.7399999999998</ele>
        <time>2020-02-23T11:00:50Z</time>
      </trkpt>
      <trkpt lat="46.431624535471201" lon="8.433159347623587">
        <ele>2192.6599999999999</ele>
        <time>2020-02-23T11:01:03Z</time>
      </trkpt>
      <trkpt lat="46.431622607633471" lon="8.433281974866986">
        <ele>2193.6599999999999</ele>
        <time>2020-02-23T11:01:15Z</time>
      </trkpt>
      <trkpt lat="46.431632163003087" lon="8.433347186073661">
        <ele>2194.4000000000001</ele>
        <time>2020-02-23T11:01:24Z</time>
      </trkpt>
      <trkpt lat="46.431606682017446" lon="8.433427652344108">
        <ele>2196.02</ele>
        <time>2020-02-23T11:01:34Z</time>
      </trkpt>
      <trkpt lat="46.431554295122623" lon="8.43348104506731">
        <ele>2197.8800000000001</ele>
        <time>2020-02-23T11:01:45Z</time>
      </trkpt>
      <trkpt lat="46.431492352858186" lon="8.433518847450614">
        <ele>2198.6900000000001</ele>
        <time>2020-02-23T11:01:56Z</time>
      </trkpt>
      <trkpt lat="46.431436529383063" lon="8.433545585721731">
        <ele>2200.1300000000001</ele>
        <time>2020-02-23T11:02:05Z</time>
      </trkpt>
      <trkpt lat="46.431374838575721" lon="8.43356947414577">
        <ele>2201.6799999999998</ele>
        <time>2020-02-23T11:02:16Z</time>
      </trkpt>
      <trkpt lat="46.431313147768378" lon="8.433588081970811">
        <ele>2203.0599999999999</ele>
        <time>2020-02-23T11:02:28Z</time>
      </trkpt>
      <trkpt lat="46.431253468617797" lon="8.433649353682995">
        <ele>2204.0999999999999</ele>
        <time>2020-02-23T11:02:41Z</time>
      </trkpt>
      <trkpt lat="46.431245505809784" lon="8.433665279299021">
        <ele>2205.5999999999999</ele>
        <time>2020-02-23T11:02:45Z</time>
      </trkpt>
      <trkpt lat="46.431243494153023" lon="8.433674750849605">
        <ele>2205.6700000000001</ele>
        <time>2020-02-23T11:02:56Z</time>
      </trkpt>
      <trkpt lat="46.431235615164042" lon="8.433684138581157">
        <ele>2205.4499999999998</ele>
        <time>2020-02-23T11:03:17Z</time>
      </trkpt>
      <trkpt lat="46.431218180805445" lon="8.433746583759785">
        <ele>2205.3000000000002</ele>
        <time>2020-02-23T11:03:34Z</time>
      </trkpt>
      <trkpt lat="46.431199824437499" lon="8.433830486610532">
        <ele>2207.21</ele>
        <time>2020-02-23T11:03:45Z</time>
      </trkpt>
      <trkpt lat="46.431162022054195" lon="8.43395596370101">
        <ele>2209.25</ele>
        <time>2020-02-23T11:04:01Z</time>
      </trkpt>
      <trkpt lat="46.431139642372727" lon="8.434053612872958">
        <ele>2210.0900000000001</ele>
        <time>2020-02-23T11:04:13Z</time>
      </trkpt>
      <trkpt lat="46.431163446977735" lon="8.434189902618527">
        <ele>2213.0900000000001</ele>
        <time>2020-02-23T11:04:26Z</time>
      </trkpt>
      <trkpt lat="46.431174427270889" lon="8.434304902330041">
        <ele>2213.2800000000002</ele>
        <time>2020-02-23T11:04:40Z</time>
      </trkpt>
      <trkpt lat="46.431186581030488" lon="8.434436582028866">
        <ele>2214.3200000000002</ele>
        <time>2020-02-23T11:04:53Z</time>
      </trkpt>
      <trkpt lat="46.431186497211456" lon="8.434447897598147">
        <ele>2215.3200000000002</ele>
        <time>2020-02-23T11:05:03Z</time>
      </trkpt>
      <trkpt lat="46.431198734790087" lon="8.434483101591468">
        <ele>2215.6199999999999</ele>
        <time>2020-02-23T11:05:16Z</time>
      </trkpt>
      <trkpt lat="46.43121600151062" lon="8.434618301689625">
        <ele>2217.0500000000002</ele>
        <time>2020-02-23T11:05:30Z</time>
      </trkpt>
      <trkpt lat="46.431230837479234" lon="8.434771858155727">
        <ele>2218.9299999999998</ele>
        <time>2020-02-23T11:05:44Z</time>
      </trkpt>
      <trkpt lat="46.431243410333991" lon="8.434943100437522">
        <ele>2219.9699999999998</ele>
        <time>2020-02-23T11:05:59Z</time>
      </trkpt>
      <trkpt lat="46.431262269616127" lon="8.435104116797447">
        <ele>2221.3600000000001</ele>
        <time>2020-02-23T11:06:13Z</time>
      </trkpt>
      <trkpt lat="46.431287918239832" lon="8.435237724334002">
        <ele>2222.5900000000001</ele>
        <time>2020-02-23T11:06:25Z</time>
      </trkpt>
      <trkpt lat="46.431310633197427" lon="8.435397986322641">
        <ele>2222.6900000000001</ele>
        <time>2020-02-23T11:06:38Z</time>
      </trkpt>
      <trkpt lat="46.431380286812782" lon="8.435556991025806">
        <ele>2220.98</ele>
        <time>2020-02-23T11:06:52Z</time>
      </trkpt>
      <trkpt lat="46.431450694799423" lon="8.435670481994748">
        <ele>2218.98</ele>
        <time>2020-02-23T11:07:05Z</time>
      </trkpt>
      <trkpt lat="46.43154188990593" lon="8.435776513069868">
        <ele>2216.9400000000001</ele>
        <time>2020-02-23T11:07:18Z</time>
      </trkpt>
      <trkpt lat="46.431564688682556" lon="8.435789505019784">
        <ele>2216.3899999999999</ele>
        <time>2020-02-23T11:07:21Z</time>
      </trkpt>
      <trkpt lat="46.431647837162018" lon="8.435877347365022">
        <ele>2213.5300000000002</ele>
        <time>2020-02-23T11:07:33Z</time>
      </trkpt>
      <trkpt lat="46.431723525747657" lon="8.435943983495235">
        <ele>2213.0300000000002</ele>
        <time>2020-02-23T11:07:43Z</time>
      </trkpt>
      <trkpt lat="46.431771218776703" lon="8.43600089661777">
        <ele>2211.9699999999998</ele>
        <time>2020-02-23T11:07:51Z</time>
      </trkpt>
      <trkpt lat="46.4317696262151" lon="8.436159398406744">
        <ele>2212.6999999999998</ele>
        <time>2020-02-23T11:08:06Z</time>
      </trkpt>
      <trkpt lat="46.431749928742647" lon="8.436231650412083">
        <ele>2213.4299999999998</ele>
        <time>2020-02-23T11:08:18Z</time>
      </trkpt>
      <trkpt lat="46.431729141622782" lon="8.436231901869178">
        <ele>2215.2600000000002</ele>
        <time>2020-02-23T11:08:22Z</time>
      </trkpt>
      <trkpt lat="46.431673485785723" lon="8.436231734231114">
        <ele>2215.21</ele>
        <time>2020-02-23T11:08:33Z</time>
      </trkpt>
      <trkpt lat="46.43158589489758" lon="8.436217987909913">
        <ele>2216.3499999999999</ele>
        <time>2020-02-23T11:08:44Z</time>
      </trkpt>
      <trkpt lat="46.431502914056182" lon="8.436213545501232">
        <ele>2217.6700000000001</ele>
        <time>2020-02-23T11:08:55Z</time>
      </trkpt>
      <trkpt lat="46.431440887972713" lon="8.436225363984704">
        <ele>2218.6700000000001</ele>
        <time>2020-02-23T11:09:06Z</time>
      </trkpt>
      <trkpt lat="46.431371150538325" lon="8.436279678717256">
        <ele>2220.8899999999999</ele>
        <time>2020-02-23T11:09:19Z</time>
      </trkpt>
      <trkpt lat="46.431308537721634" lon="8.436364671215415">
        <ele>2221.23</ele>
        <time>2020-02-23T11:09:30Z</time>
      </trkpt>
      <trkpt lat="46.431288504973054" lon="8.436408843845129">
        <ele>2220.6199999999999</ele>
        <time>2020-02-23T11:09:34Z</time>
      </trkpt>
      <trkpt lat="46.431257324293256" lon="8.436532141640782">
        <ele>2219.5500000000002</ele>
        <time>2020-02-23T11:09:43Z</time>
      </trkpt>
      <trkpt lat="46.431250534951687" lon="8.436719393357635">
        <ele>2219.5500000000002</ele>
        <time>2020-02-23T11:09:57Z</time>
      </trkpt>
      <trkpt lat="46.43127559684217" lon="8.436890300363302">
        <ele>2221.3600000000001</ele>
        <time>2020-02-23T11:10:11Z</time>
      </trkpt>
      <trkpt lat="46.431305268779397" lon="8.437041258439422">
        <ele>2223.0300000000002</ele>
        <time>2020-02-23T11:10:24Z</time>
      </trkpt>
      <trkpt lat="46.431333683431149" lon="8.437167406082153">
        <ele>2224.5799999999999</ele>
        <time>2020-02-23T11:10:36Z</time>
      </trkpt>
      <trkpt lat="46.431360924616456" lon="8.437278717756271">
        <ele>2226.4299999999998</ele>
        <time>2020-02-23T11:10:48Z</time>
      </trkpt>
      <trkpt lat="46.43138556741178" lon="8.437354657799006">
        <ele>2227.79</ele>
        <time>2020-02-23T11:10:58Z</time>
      </trkpt>
      <trkpt lat="46.431444492191076" lon="8.437503520399332">
        <ele>2230.9699999999998</ele>
        <time>2020-02-23T11:11:18Z</time>
      </trkpt>
      <trkpt lat="46.431485982611775" lon="8.437604857608676">
        <ele>2233.1900000000001</ele>
        <time>2020-02-23T11:11:32Z</time>
      </trkpt>
      <trkpt lat="46.431524958461523" lon="8.437746511772275">
        <ele>2235.1599999999999</ele>
        <time>2020-02-23T11:11:50Z</time>
      </trkpt>
      <trkpt lat="46.431546499952674" lon="8.437827313318849">
        <ele>2236.23</ele>
        <time>2020-02-23T11:12:00Z</time>
      </trkpt>
      <trkpt lat="46.431568879634142" lon="8.437920939177275">
        <ele>2238.0300000000002</ele>
        <time>2020-02-23T11:12:12Z</time>
      </trkpt>
      <trkpt lat="46.431585308164358" lon="8.43801305629313">
        <ele>2239.1599999999999</ele>
        <time>2020-02-23T11:12:23Z</time>
      </trkpt>
      <trkpt lat="46.431631073355675" lon="8.438169378787279">
        <ele>2241.8899999999999</ele>
        <time>2020-02-23T11:12:43Z</time>
      </trkpt>
      <trkpt lat="46.431656554341316" lon="8.438270715996623">
        <ele>2244.1300000000001</ele>
        <time>2020-02-23T11:12:57Z</time>
      </trkpt>
      <trkpt lat="46.431672815233469" lon="8.438355540856719">
        <ele>2245.8699999999999</ele>
        <time>2020-02-23T11:13:09Z</time>
      </trkpt>
      <trkpt lat="46.431690584868193" lon="8.438425362110138">
        <ele>2246.52</ele>
        <time>2020-02-23T11:13:18Z</time>
      </trkpt>
      <trkpt lat="46.431712126359344" lon="8.438520831987262">
        <ele>2247.98</ele>
        <time>2020-02-23T11:13:30Z</time>
      </trkpt>
      <trkpt lat="46.431733081117272" lon="8.438607836142182">
        <ele>2249.8499999999999</ele>
        <time>2020-02-23T11:13:42Z</time>
      </trkpt>
      <trkpt lat="46.431749509647489" lon="8.438681596890092">
        <ele>2251.4499999999998</ele>
        <time>2020-02-23T11:13:51Z</time>
      </trkpt>
      <trkpt lat="46.431770380586386" lon="8.438766254112124">
        <ele>2252.9699999999998</ele>
        <time>2020-02-23T11:14:01Z</time>
      </trkpt>
      <trkpt lat="46.431795777752995" lon="8.438891731202602">
        <ele>2253.7800000000002</ele>
        <time>2020-02-23T11:14:16Z</time>
      </trkpt>
      <trkpt lat="46.431827712804079" lon="8.439008994027972">
        <ele>2254.7199999999998</ele>
        <time>2020-02-23T11:14:31Z</time>
      </trkpt>
      <trkpt lat="46.431849841028452" lon="8.439122987911105">
        <ele>2257.5999999999999</ele>
        <time>2020-02-23T11:14:44Z</time>
      </trkpt>
      <trkpt lat="46.431845314800739" lon="8.439205465838313">
        <ele>2259.0100000000002</ele>
        <time>2020-02-23T11:14:56Z</time>
      </trkpt>
      <trkpt lat="46.431823773309588" lon="8.439281657338142">
        <ele>2259.29</ele>
        <time>2020-02-23T11:15:12Z</time>
      </trkpt>
      <trkpt lat="46.43178085796535" lon="8.439358100295067">
        <ele>2260.5300000000002</ele>
        <time>2020-02-23T11:15:23Z</time>
      </trkpt>
      <trkpt lat="46.431752778589725" lon="8.439429933205247">
        <ele>2262.1900000000001</ele>
        <time>2020-02-23T11:15:34Z</time>
      </trkpt>
      <trkpt lat="46.43174565397203" lon="8.439521715044975">
        <ele>2263.6199999999999</ele>
        <time>2020-02-23T11:15:47Z</time>
      </trkpt>
      <trkpt lat="46.431790161877871" lon="8.439541412517428">
        <ele>2266.46</ele>
        <time>2020-02-23T11:16:01Z</time>
      </trkpt>
      <trkpt lat="46.431791754439473" lon="8.439533952623606">
        <ele>2265.3200000000002</ele>
        <time>2020-02-23T11:16:18Z</time>
      </trkpt>
      <trkpt lat="46.431787563487887" lon="8.439538395032287">
        <ele>2266.6700000000001</ele>
        <time>2020-02-23T11:16:34Z</time>
      </trkpt>
      <trkpt lat="46.431782366707921" lon="8.439537221565843">
        <ele>2265.98</ele>
        <time>2020-02-23T11:16:52Z</time>
      </trkpt>
      <trkpt lat="46.431782701984048" lon="8.439538227394223">
        <ele>2266.3000000000002</ele>
        <time>2020-02-23T11:17:06Z</time>
      </trkpt>
      <trkpt lat="46.431789072230458" lon="8.439536551013589">
        <ele>2265.4099999999999</ele>
        <time>2020-02-23T11:17:22Z</time>
      </trkpt>
      <trkpt lat="46.431798208504915" lon="8.439538730308414">
        <ele>2264.8499999999999</ele>
        <time>2020-02-23T11:17:44Z</time>
      </trkpt>
      <trkpt lat="46.431796196848154" lon="8.439541831612587">
        <ele>2264.8099999999999</ele>
        <time>2020-02-23T11:17:58Z</time>
      </trkpt>
      <trkpt lat="46.431796448305249" lon="8.439533282071352">
        <ele>2265.1599999999999</ele>
        <time>2020-02-23T11:18:09Z</time>
      </trkpt>
      <trkpt lat="46.431791754439473" lon="8.439524983987212">
        <ele>2265.1100000000001</ele>
        <time>2020-02-23T11:18:33Z</time>
      </trkpt>
      <trkpt lat="46.431871298700571" lon="8.43950972892344">
        <ele>2266.1999999999998</ele>
        <time>2020-02-23T11:18:44Z</time>
      </trkpt>
      <trkpt lat="46.432004487141967" lon="8.439523810520768">
        <ele>2267.7600000000002</ele>
        <time>2020-02-23T11:18:57Z</time>
      </trkpt>
      <trkpt lat="46.432166928425431" lon="8.439621794968844">
        <ele>2267.3600000000001</ele>
        <time>2020-02-23T11:19:14Z</time>
      </trkpt>
      <trkpt lat="46.432192660868168" lon="8.439619615674019">
        <ele>2267.5599999999999</ele>
        <time>2020-02-23T11:19:19Z</time>
      </trkpt>
      <trkpt lat="46.432258123531938" lon="8.439589776098728">
        <ele>2266.98</ele>
        <time>2020-02-23T11:19:31Z</time>
      </trkpt>
      <trkpt lat="46.432249909266829" lon="8.43960402533412">
        <ele>2266.79</ele>
        <time>2020-02-23T11:20:10Z</time>
      </trkpt>
      <trkpt lat="46.432230547070503" lon="8.439611485227943">
        <ele>2266.5799999999999</ele>
        <time>2020-02-23T11:20:21Z</time>
      </trkpt>
      <trkpt lat="46.432184698060155" lon="8.439619867131114">
        <ele>2266.6500000000001</ele>
        <time>2020-02-23T11:20:32Z</time>
      </trkpt>
      <trkpt lat="46.432172376662493" lon="8.439619028940797">
        <ele>2266.6500000000001</ele>
        <time>2020-02-23T11:20:47Z</time>
      </trkpt>
      <trkpt lat="46.432177573442459" lon="8.439624225720763">
        <ele>2266.4400000000001</ele>
        <time>2020-02-23T11:21:00Z</time>
      </trkpt>
      <trkpt lat="46.432179249823093" lon="8.439618945121765">
        <ele>2266.0999999999999</ele>
        <time>2020-02-23T11:21:18Z</time>
      </trkpt>
      <trkpt lat="46.432212023064494" lon="8.439649790525436">
        <ele>2266.25</ele>
        <time>2020-02-23T11:21:31Z</time>
      </trkpt>
      <trkpt lat="46.432226523756981" lon="8.439658172428608">
        <ele>2266.2399999999998</ele>
        <time>2020-02-23T11:21:45Z</time>
      </trkpt>
      <trkpt lat="46.432299362495542" lon="8.439734363928437">
        <ele>2266.8000000000002</ele>
        <time>2020-02-23T11:21:57Z</time>
      </trkpt>
      <trkpt lat="46.432394245639443" lon="8.439839975908399">
        <ele>2267.96</ele>
        <time>2020-02-23T11:22:11Z</time>
      </trkpt>
      <trkpt lat="46.43249231390655" lon="8.439967799931765">
        <ele>2269.2399999999998</ele>
        <time>2020-02-23T11:22:26Z</time>
      </trkpt>
      <trkpt lat="46.432533720508218" lon="8.440023036673665">
        <ele>2269.0799999999999</ele>
        <time>2020-02-23T11:22:32Z</time>
      </trkpt>
      <trkpt lat="46.432641008868814" lon="8.440182209014893">
        <ele>2269</ele>
        <time>2020-02-23T11:22:48Z</time>
      </trkpt>
      <trkpt lat="46.432739077135921" lon="8.440335346385837">
        <ele>2269.8600000000001</ele>
        <time>2020-02-23T11:23:03Z</time>
      </trkpt>
      <trkpt lat="46.432812502607703" lon="8.440439868718386">
        <ele>2271.5100000000002</ele>
        <time>2020-02-23T11:23:16Z</time>
      </trkpt>
      <trkpt lat="46.432881066575646" lon="8.440537182614207">
        <ele>2272.6999999999998</ele>
        <time>2020-02-23T11:23:29Z</time>
      </trkpt>
      <trkpt lat="46.432944182306528" lon="8.440624941140413">
        <ele>2273.73</ele>
        <time>2020-02-23T11:23:41Z</time>
      </trkpt>
      <trkpt lat="46.433014757931232" lon="8.440712951123714">
        <ele>2274.6199999999999</ele>
        <time>2020-02-23T11:23:54Z</time>
      </trkpt>
      <trkpt lat="46.433043172582984" lon="8.440720997750759">
        <ele>2275.0999999999999</ele>
        <time>2020-02-23T11:24:00Z</time>
      </trkpt>
      <trkpt lat="46.433172505348921" lon="8.440801715478301">
        <ele>2274.8000000000002</ele>
        <time>2020-02-23T11:24:14Z</time>
      </trkpt>
      <trkpt lat="46.433304185047746" lon="8.440895592793822">
        <ele>2275.1100000000001</ele>
        <time>2020-02-23T11:24:29Z</time>
      </trkpt>
      <trkpt lat="46.433429243043065" lon="8.440969018265605">
        <ele>2274.9099999999999</ele>
        <time>2020-02-23T11:24:43Z</time>
      </trkpt>
      <trkpt lat="46.433548266068101" lon="8.441065493971109">
        <ele>2273.3699999999999</ele>
        <time>2020-02-23T11:24:57Z</time>
      </trkpt>
      <trkpt lat="46.433666115626693" lon="8.441228186711669">
        <ele>2272.6900000000001</ele>
        <time>2020-02-23T11:25:14Z</time>
      </trkpt>
      <trkpt lat="46.433726968243718" lon="8.441334469243884">
        <ele>2275.1900000000001</ele>
        <time>2020-02-23T11:25:27Z</time>
      </trkpt>
      <trkpt lat="46.433782791718841" lon="8.441435974091291">
        <ele>2277.1100000000001</ele>
        <time>2020-02-23T11:25:40Z</time>
      </trkpt>
      <trkpt lat="46.433854876086116" lon="8.441551644355059">
        <ele>2278.6900000000001</ele>
        <time>2020-02-23T11:25:54Z</time>
      </trkpt>
      <trkpt lat="46.433912040665746" lon="8.441641917452216">
        <ele>2279.5599999999999</ele>
        <time>2020-02-23T11:26:05Z</time>
      </trkpt>
      <trkpt lat="46.433981861919165" lon="8.441758425906301">
        <ele>2280.77</ele>
        <time>2020-02-23T11:26:19Z</time>
      </trkpt>
      <trkpt lat="46.434038188308477" lon="8.44186688773334">
        <ele>2281.9499999999998</ele>
        <time>2020-02-23T11:26:31Z</time>
      </trkpt>
      <trkpt lat="46.434081103652716" lon="8.441958585754037">
        <ele>2282.27</ele>
        <time>2020-02-23T11:26:41Z</time>
      </trkpt>
      <trkpt lat="46.434142123907804" lon="8.442072831094265">
        <ele>2283.0700000000002</ele>
        <time>2020-02-23T11:26:53Z</time>
      </trkpt>
      <trkpt lat="46.434247484430671" lon="8.442177688702941">
        <ele>2283.3099999999999</ele>
        <time>2020-02-23T11:27:07Z</time>
      </trkpt>
      <trkpt lat="46.434373380616307" lon="8.442226303741336">
        <ele>2283.4499999999998</ele>
        <time>2020-02-23T11:27:21Z</time>
      </trkpt>
      <trkpt lat="46.434468431398273" lon="8.442259412258863">
        <ele>2286.1199999999999</ele>
        <time>2020-02-23T11:27:36Z</time>
      </trkpt>
      <trkpt lat="46.434537079185247" lon="8.442301237955689">
        <ele>2288.27</ele>
        <time>2020-02-23T11:27:49Z</time>
      </trkpt>
      <trkpt lat="46.434556106105447" lon="8.442258238792419">
        <ele>2291.3099999999999</ele>
        <time>2020-02-23T11:28:02Z</time>
      </trkpt>
      <trkpt lat="46.434578904882073" lon="8.442222028970718">
        <ele>2292.9200000000001</ele>
        <time>2020-02-23T11:28:13Z</time>
      </trkpt>
      <trkpt lat="46.434622490778565" lon="8.442196799442172">
        <ele>2294.6399999999999</ele>
        <time>2020-02-23T11:28:25Z</time>
      </trkpt>
      <trkpt lat="46.434682756662369" lon="8.442187663167715">
        <ele>2296.4499999999998</ele>
        <time>2020-02-23T11:28:38Z</time>
      </trkpt>
      <trkpt lat="46.434741513803601" lon="8.442185651510954">
        <ele>2298.48</ele>
        <time>2020-02-23T11:28:50Z</time>
      </trkpt>
      <trkpt lat="46.434811921790242" lon="8.442192357033491">
        <ele>2299.5599999999999</ele>
        <time>2020-02-23T11:29:03Z</time>
      </trkpt>
      <trkpt lat="46.434889119118452" lon="8.442221274599433">
        <ele>2300.2399999999998</ele>
        <time>2020-02-23T11:29:15Z</time>
      </trkpt>
      <trkpt lat="46.434939913451672" lon="8.442289922386408">
        <ele>2300.6199999999999</ele>
        <time>2020-02-23T11:29:26Z</time>
      </trkpt>
      <trkpt lat="46.434983415529132" lon="8.4423369448632">
        <ele>2301.6599999999999</ele>
        <time>2020-02-23T11:29:40Z</time>
      </trkpt>
      <trkpt lat="46.435059104114771" lon="8.442445658147335">
        <ele>2302.2800000000002</ele>
        <time>2020-02-23T11:29:53Z</time>
      </trkpt>
      <trkpt lat="46.43512649461627" lon="8.442540289834142">
        <ele>2303.0900000000001</ele>
        <time>2020-02-23T11:30:05Z</time>
      </trkpt>
      <trkpt lat="46.435215761885047" lon="8.442678926512599">
        <ele>2304.5599999999999</ele>
        <time>2020-02-23T11:30:21Z</time>
      </trkpt>
      <trkpt lat="46.435281643643975" lon="8.442774815484881">
        <ele>2306.54</ele>
        <time>2020-02-23T11:30:33Z</time>
      </trkpt>
      <trkpt lat="46.435329588130116" lon="8.442847402766347">
        <ele>2308.1599999999999</ele>
        <time>2020-02-23T11:30:44Z</time>
      </trkpt>
      <trkpt lat="46.435379041358829" lon="8.442917391657829">
        <ele>2308.48</ele>
        <time>2020-02-23T11:30:54Z</time>
      </trkpt>
      <trkpt lat="46.435460010543466" lon="8.443045802414417">
        <ele>2308.5799999999999</ele>
        <time>2020-02-23T11:31:10Z</time>
      </trkpt>
      <trkpt lat="46.435514073818922" lon="8.443144457414746">
        <ele>2309.8099999999999</ele>
        <time>2020-02-23T11:31:25Z</time>
      </trkpt>
      <trkpt lat="46.435559587553144" lon="8.443235233426094">
        <ele>2312.02</ele>
        <time>2020-02-23T11:31:38Z</time>
      </trkpt>
      <trkpt lat="46.435612225905061" lon="8.443311508744955">
        <ele>2312.3499999999999</ele>
        <time>2020-02-23T11:31:49Z</time>
      </trkpt>
      <trkpt lat="46.435680957511067" lon="8.443421311676502">
        <ele>2313.2199999999998</ele>
        <time>2020-02-23T11:32:03Z</time>
      </trkpt>
      <trkpt lat="46.435742983594537" lon="8.44349549151957">
        <ele>2313.9299999999998</ele>
        <time>2020-02-23T11:32:14Z</time>
      </trkpt>
      <trkpt lat="46.435816409066319" lon="8.443588027730584">
        <ele>2315.5300000000002</ele>
        <time>2020-02-23T11:32:28Z</time>
      </trkpt>
      <trkpt lat="46.435909532010555" lon="8.443703195080161">
        <ele>2317.9499999999998</ele>
        <time>2020-02-23T11:32:46Z</time>
      </trkpt>
      <trkpt lat="46.435985639691353" lon="8.443806376308203">
        <ele>2319.3000000000002</ele>
        <time>2020-02-23T11:33:01Z</time>
      </trkpt>
      <trkpt lat="46.436043223366141" lon="8.443881142884493">
        <ele>2320.3899999999999</ele>
        <time>2020-02-23T11:33:12Z</time>
      </trkpt>
      <trkpt lat="46.436095107346773" lon="8.443953562527895">
        <ele>2321.73</ele>
        <time>2020-02-23T11:33:22Z</time>
      </trkpt>
      <trkpt lat="46.436160150915384" lon="8.444065460935235">
        <ele>2322.75</ele>
        <time>2020-02-23T11:33:37Z</time>
      </trkpt>
      <trkpt lat="46.436222763732076" lon="8.444174509495497">
        <ele>2323.6300000000001</ele>
        <time>2020-02-23T11:33:51Z</time>
      </trkpt>
      <trkpt lat="46.43632217310369" lon="8.444329407066107">
        <ele>2325.5900000000001</ele>
        <time>2020-02-23T11:34:11Z</time>
      </trkpt>
      <trkpt lat="46.436407249420881" lon="8.444473994895816">
        <ele>2325.0599999999999</ele>
        <time>2020-02-23T11:34:28Z</time>
      </trkpt>
      <trkpt lat="46.436406997963786" lon="8.44448933377862">
        <ele>2327.5700000000002</ele>
        <time>2020-02-23T11:34:38Z</time>
      </trkpt>
      <trkpt lat="46.436404818668962" lon="8.44449863769114">
        <ele>2326.5700000000002</ele>
        <time>2020-02-23T11:35:07Z</time>
      </trkpt>
      <trkpt lat="46.436401298269629" lon="8.444490088149905">
        <ele>2327.46</ele>
        <time>2020-02-23T11:35:28Z</time>
      </trkpt>
      <trkpt lat="46.436397694051266" lon="8.444497799500823">
        <ele>2325.8699999999999</ele>
        <time>2020-02-23T11:35:48Z</time>
      </trkpt>
      <trkpt lat="46.436402136459947" lon="8.444486316293478">
        <ele>2327.3499999999999</ele>
        <time>2020-02-23T11:36:01Z</time>
      </trkpt>
      <trkpt lat="46.43640716560185" lon="8.444480616599321">
        <ele>2327.6399999999999</ele>
        <time>2020-02-23T11:36:15Z</time>
      </trkpt>
      <trkpt lat="46.436417559161782" lon="8.444483885541558">
        <ele>2324.0799999999999</ele>
        <time>2020-02-23T11:36:28Z</time>
      </trkpt>
      <trkpt lat="46.436418481171131" lon="8.44448153860867">
        <ele>2325.0700000000002</ele>
        <time>2020-02-23T11:36:32Z</time>
      </trkpt>
      <trkpt lat="46.436437424272299" lon="8.444528561085463">
        <ele>2325.8000000000002</ele>
        <time>2020-02-23T11:36:43Z</time>
      </trkpt>
      <trkpt lat="46.436444884166121" lon="8.444569213315845">
        <ele>2327.0799999999999</ele>
        <time>2020-02-23T11:36:51Z</time>
      </trkpt>
      <trkpt lat="46.436441028490663" lon="8.444570638239384">
        <ele>2327.1500000000001</ele>
        <time>2020-02-23T11:37:14Z</time>
      </trkpt>
      <trkpt lat="46.436435747891665" lon="8.444566614925861">
        <ele>2326.6999999999998</ele>
        <time>2020-02-23T11:37:36Z</time>
      </trkpt>
      <trkpt lat="46.43643457442522" lon="8.444568291306496">
        <ele>2326.79</ele>
        <time>2020-02-23T11:37:56Z</time>
      </trkpt>
      <trkpt lat="46.43647413700819" lon="8.444631239399314">
        <ele>2324.3600000000001</ele>
        <time>2020-02-23T11:38:07Z</time>
      </trkpt>
      <trkpt lat="46.436541276052594" lon="8.444778760895133">
        <ele>2324.7199999999998</ele>
        <time>2020-02-23T11:38:21Z</time>
      </trkpt>
      <trkpt lat="46.436598859727383" lon="8.444936759769917">
        <ele>2326.27</ele>
        <time>2020-02-23T11:38:35Z</time>
      </trkpt>
      <trkpt lat="46.436648983508348" lon="8.445072211325169">
        <ele>2326.1199999999999</ele>
        <time>2020-02-23T11:38:49Z</time>
      </trkpt>
      <trkpt lat="46.436695083975792" lon="8.445206405594945">
        <ele>2328.1599999999999</ele>
        <time>2020-02-23T11:39:03Z</time>
      </trkpt>
      <trkpt lat="46.436750739812851" lon="8.44535468146205">
        <ele>2330.4200000000001</ele>
        <time>2020-02-23T11:39:19Z</time>
      </trkpt>
      <trkpt lat="46.436790889129043" lon="8.445459790527821">
        <ele>2331.0999999999999</ele>
        <time>2020-02-23T11:39:32Z</time>
      </trkpt>
      <trkpt lat="46.436841934919357" lon="8.44557847827673">
        <ele>2332.8600000000001</ele>
        <time>2020-02-23T11:39:48Z</time>
      </trkpt>
      <trkpt lat="46.436893148347735" lon="8.44571677967906">
        <ele>2334.3400000000001</ele>
        <time>2020-02-23T11:40:06Z</time>
      </trkpt>
      <trkpt lat="46.436922987923026" lon="8.445796072483063">
        <ele>2336.8600000000001</ele>
        <time>2020-02-23T11:40:18Z</time>
      </trkpt>
      <trkpt lat="46.436951402574778" lon="8.445863462984562">
        <ele>2338.0700000000002</ele>
        <time>2020-02-23T11:40:30Z</time>
      </trkpt>
      <trkpt lat="46.436977805569768" lon="8.445921130478382">
        <ele>2339.1900000000001</ele>
        <time>2020-02-23T11:40:40Z</time>
      </trkpt>
      <trkpt lat="46.437002867460251" lon="8.445994388312101">
        <ele>2341.1399999999999</ele>
        <time>2020-02-23T11:40:52Z</time>
      </trkpt>
      <trkpt lat="46.437036478891969" lon="8.446073764935136">
        <ele>2341.5599999999999</ele>
        <time>2020-02-23T11:41:04Z</time>
      </trkpt>
      <trkpt lat="46.437073610723019" lon="8.446173258125782">
        <ele>2342.7800000000002</ele>
        <time>2020-02-23T11:41:17Z</time>
      </trkpt>
      <trkpt lat="46.437103617936373" lon="8.446282306686044">
        <ele>2342.6700000000001</ele>
        <time>2020-02-23T11:41:29Z</time>
      </trkpt>
      <trkpt lat="46.437133373692632" lon="8.446384817361832">
        <ele>2342.9400000000001</ele>
        <time>2020-02-23T11:41:39Z</time>
      </trkpt>
      <trkpt lat="46.437160028144717" lon="8.446487579494715">
        <ele>2342.6100000000001</ele>
        <time>2020-02-23T11:41:49Z</time>
      </trkpt>
      <trkpt lat="46.437187604606152" lon="8.446588329970837">
        <ele>2343.3000000000002</ele>
        <time>2020-02-23T11:41:59Z</time>
      </trkpt>
      <trkpt lat="46.437217695638537" lon="8.446736270561814">
        <ele>2342.6999999999998</ele>
        <time>2020-02-23T11:42:12Z</time>
      </trkpt>
      <trkpt lat="46.437220545485616" lon="8.446749346330762">
        <ele>2342.4499999999998</ele>
        <time>2020-02-23T11:42:13Z</time>
      </trkpt>
      <trkpt lat="46.437268573790789" lon="8.446927377954125">
        <ele>2342.5700000000002</ele>
        <time>2020-02-23T11:42:27Z</time>
      </trkpt>
      <trkpt lat="46.437313752248883" lon="8.447051765397191">
        <ele>2342.5300000000002</ele>
        <time>2020-02-23T11:42:39Z</time>
      </trkpt>
      <trkpt lat="46.437358092516661" lon="8.447168441489339">
        <ele>2343.9699999999998</ele>
        <time>2020-02-23T11:42:52Z</time>
      </trkpt>
      <trkpt lat="46.437402097508311" lon="8.44728184863925">
        <ele>2344.5300000000002</ele>
        <time>2020-02-23T11:43:05Z</time>
      </trkpt>
      <trkpt lat="46.437446605414152" lon="8.447381760925055">
        <ele>2342.8899999999999</ele>
        <time>2020-02-23T11:43:17Z</time>
      </trkpt>
      <trkpt lat="46.437481725588441" lon="8.447467088699341">
        <ele>2345.25</ele>
        <time>2020-02-23T11:43:28Z</time>
      </trkpt>
      <trkpt lat="46.43748507834971" lon="8.447475051507354">
        <ele>2345.5500000000002</ele>
        <time>2020-02-23T11:43:29Z</time>
      </trkpt>
      <trkpt lat="46.437528664246202" lon="8.447558702901006">
        <ele>2346.1199999999999</ele>
        <time>2020-02-23T11:43:40Z</time>
      </trkpt>
      <trkpt lat="46.437591863796115" lon="8.447674456983805">
        <ele>2347.3299999999999</ele>
        <time>2020-02-23T11:43:55Z</time>
      </trkpt>
      <trkpt lat="46.437650620937347" lon="8.447768837213516">
        <ele>2349.0700000000002</ele>
        <time>2020-02-23T11:44:08Z</time>
      </trkpt>
      <trkpt lat="46.437730332836509" lon="8.447907557711005">
        <ele>2350.6799999999998</ele>
        <time>2020-02-23T11:44:25Z</time>
      </trkpt>
      <trkpt lat="46.43777584657073" lon="8.447981989011169">
        <ele>2350.77</ele>
        <time>2020-02-23T11:44:36Z</time>
      </trkpt>
      <trkpt lat="46.437820605933666" lon="8.448048876598477">
        <ele>2352.1300000000001</ele>
        <time>2020-02-23T11:44:48Z</time>
      </trkpt>
      <trkpt lat="46.437873244285583" lon="8.448117272928357">
        <ele>2353.6700000000001</ele>
        <time>2020-02-23T11:45:00Z</time>
      </trkpt>
      <trkpt lat="46.437932923436165" lon="8.448203941807151">
        <ele>2356.6700000000001</ele>
        <time>2020-02-23T11:45:14Z</time>
      </trkpt>
      <trkpt lat="46.437932839617133" lon="8.448205031454563">
        <ele>2356.52</ele>
        <time>2020-02-23T11:45:15Z</time>
      </trkpt>
      <trkpt lat="46.437931917607784" lon="8.448205031454563">
        <ele>2354.5100000000002</ele>
        <time>2020-02-23T11:45:18Z</time>
      </trkpt>
      <trkpt lat="46.437928648665547" lon="8.448204779997468">
        <ele>2356.6500000000001</ele>
        <time>2020-02-23T11:45:25Z</time>
      </trkpt>
      <trkpt lat="46.437960164621472" lon="8.448264459148049">
        <ele>2354.9000000000001</ele>
        <time>2020-02-23T11:45:36Z</time>
      </trkpt>
      <trkpt lat="46.438058568164706" lon="8.448401670902968">
        <ele>2355.1500000000001</ele>
        <time>2020-02-23T11:45:52Z</time>
      </trkpt>
      <trkpt lat="46.438099974766374" lon="8.448460260406137">
        <ele>2353.8499999999999</ele>
        <time>2020-02-23T11:45:58Z</time>
      </trkpt>
      <trkpt lat="46.43820776604116" lon="8.448604010045528">
        <ele>2351.9400000000001</ele>
        <time>2020-02-23T11:46:13Z</time>
      </trkpt>
      <trkpt lat="46.438298961147666" lon="8.448718590661883">
        <ele>2353.4299999999998</ele>
        <time>2020-02-23T11:46:27Z</time>
      </trkpt>
      <trkpt lat="46.438377415761352" lon="8.448821101337671">
        <ele>2353.4000000000001</ele>
        <time>2020-02-23T11:46:40Z</time>
      </trkpt>
      <trkpt lat="46.438458049669862" lon="8.448915984481573">
        <ele>2354.0500000000002</ele>
        <time>2020-02-23T11:46:52Z</time>
      </trkpt>
      <trkpt lat="46.438539354130626" lon="8.449007095769048">
        <ele>2354.4899999999998</ele>
        <time>2020-02-23T11:47:04Z</time>
      </trkpt>
      <trkpt lat="46.438642535358667" lon="8.449136344715953">
        <ele>2352.9299999999998</ele>
        <time>2020-02-23T11:47:19Z</time>
      </trkpt>
      <trkpt lat="46.438738005235791" lon="8.449261821806431">
        <ele>2352.5100000000002</ele>
        <time>2020-02-23T11:47:33Z</time>
      </trkpt>
      <trkpt lat="46.438834816217422" lon="8.449367098510265">
        <ele>2351.5999999999999</ele>
        <time>2020-02-23T11:47:47Z</time>
      </trkpt>
      <trkpt lat="46.43893975764513" lon="8.4494723752141">
        <ele>2351.4400000000001</ele>
        <time>2020-02-23T11:48:01Z</time>
      </trkpt>
      <trkpt lat="46.439054505899549" lon="8.449594918638468">
        <ele>2350.3000000000002</ele>
        <time>2020-02-23T11:48:15Z</time>
      </trkpt>
      <trkpt lat="46.439167242497206" lon="8.44968443736434">
        <ele>2350.29</ele>
        <time>2020-02-23T11:48:30Z</time>
      </trkpt>
      <trkpt lat="46.439243014901876" lon="8.449737913906574">
        <ele>2352</ele>
        <time>2020-02-23T11:48:41Z</time>
      </trkpt>
      <trkpt lat="46.439339825883508" lon="8.449811171740294">
        <ele>2352.25</ele>
        <time>2020-02-23T11:48:55Z</time>
      </trkpt>
      <trkpt lat="46.439421800896525" lon="8.449864313006401">
        <ele>2351.3800000000001</ele>
        <time>2020-02-23T11:49:06Z</time>
      </trkpt>
      <trkpt lat="46.439531352370977" lon="8.449962381273508">
        <ele>2351.3200000000002</ele>
        <time>2020-02-23T11:49:21Z</time>
      </trkpt>
      <trkpt lat="46.439668731763959" lon="8.450073525309563">
        <ele>2348.21</ele>
        <time>2020-02-23T11:49:38Z</time>
      </trkpt>
      <trkpt lat="46.439804770052433" lon="8.450141921639442">
        <ele>2347.8400000000001</ele>
        <time>2020-02-23T11:49:53Z</time>
      </trkpt>
      <trkpt lat="46.439863024279475" lon="8.450165642425418">
        <ele>2345.8299999999999</ele>
        <time>2020-02-23T11:49:59Z</time>
      </trkpt>
      <trkpt lat="46.440046923235059" lon="8.450231775641441">
        <ele>2344.3200000000002</ele>
        <time>2020-02-23T11:50:19Z</time>
      </trkpt>
      <trkpt lat="46.440194696187973" lon="8.450278714299202">
        <ele>2344.9499999999998</ele>
        <time>2020-02-23T11:50:36Z</time>
      </trkpt>
      <trkpt lat="46.440340541303158" lon="8.45031576231122">
        <ele>2344.9400000000001</ele>
        <time>2020-02-23T11:50:52Z</time>
      </trkpt>
      <trkpt lat="46.440436262637377" lon="8.450331268832088">
        <ele>2346.23</ele>
        <time>2020-02-23T11:51:05Z</time>
      </trkpt>
      <trkpt lat="46.44054782576859" lon="8.450349038466811">
        <ele>2348.2399999999998</ele>
        <time>2020-02-23T11:51:22Z</time>
      </trkpt>
      <trkpt lat="46.440645139664412" lon="8.450368735939264">
        <ele>2349.6599999999999</ele>
        <time>2020-02-23T11:51:37Z</time>
      </trkpt>
      <trkpt lat="46.440657209604979" lon="8.450377369299531">
        <ele>2349.48</ele>
        <time>2020-02-23T11:51:48Z</time>
      </trkpt>
      <trkpt lat="46.44065729342401" lon="8.450380889698863">
        <ele>2349.4000000000001</ele>
        <time>2020-02-23T11:52:04Z</time>
      </trkpt>
      <trkpt lat="46.440657712519169" lon="8.450380554422736">
        <ele>2350.6900000000001</ele>
        <time>2020-02-23T11:52:07Z</time>
      </trkpt>
      <trkpt lat="46.440671039745212" lon="8.450382901355624">
        <ele>2349.2800000000002</ele>
        <time>2020-02-23T11:52:12Z</time>
      </trkpt>
      <trkpt lat="46.440756618976593" lon="8.450419278815389">
        <ele>2347.6999999999998</ele>
        <time>2020-02-23T11:52:24Z</time>
      </trkpt>
      <trkpt lat="46.440859381109476" lon="8.450488680973649">
        <ele>2347.73</ele>
        <time>2020-02-23T11:52:37Z</time>
      </trkpt>
      <trkpt lat="46.441004974767566" lon="8.450567135587335">
        <ele>2346.4400000000001</ele>
        <time>2020-02-23T11:52:52Z</time>
      </trkpt>
      <trkpt lat="46.441178983077407" lon="8.450664198026061">
        <ele>2345.6599999999999</ele>
        <time>2020-02-23T11:53:11Z</time>
      </trkpt>
      <trkpt lat="46.441320804879069" lon="8.450751202180982">
        <ele>2345.46</ele>
        <time>2020-02-23T11:53:29Z</time>
      </trkpt>
      <trkpt lat="46.441434295848012" lon="8.450837703421712">
        <ele>2345.8800000000001</ele>
        <time>2020-02-23T11:53:43Z</time>
      </trkpt>
      <trkpt lat="46.441562036052346" lon="8.450955636799336">
        <ele>2344.7199999999998</ele>
        <time>2020-02-23T11:53:59Z</time>
      </trkpt>
      <trkpt lat="46.441667983308434" lon="8.451035432517529">
        <ele>2344.3699999999999</ele>
        <time>2020-02-23T11:54:13Z</time>
      </trkpt>
      <trkpt lat="46.441752137616277" lon="8.451076168566942">
        <ele>2344.6199999999999</ele>
        <time>2020-02-23T11:54:28Z</time>
      </trkpt>
      <trkpt lat="46.441808631643653" lon="8.45110877417028">
        <ele>2344.4200000000001</ele>
        <time>2020-02-23T11:54:41Z</time>
      </trkpt>
      <trkpt lat="46.441910639405251" lon="8.451162753626704">
        <ele>2344.4899999999998</ele>
        <time>2020-02-23T11:54:56Z</time>
      </trkpt>
      <trkpt lat="46.441911393776536" lon="8.451158227398992">
        <ele>2343.2800000000002</ele>
        <time>2020-02-23T11:55:15Z</time>
      </trkpt>
      <trkpt lat="46.441925894469023" lon="8.451170297339559">
        <ele>2343.6300000000001</ele>
        <time>2020-02-23T11:55:33Z</time>
      </trkpt>
      <trkpt lat="46.441927319392562" lon="8.451177254319191">
        <ele>2344.2800000000002</ele>
        <time>2020-02-23T11:55:48Z</time>
      </trkpt>
      <trkpt lat="46.441923882812262" lon="8.451177254319191">
        <ele>2343.7600000000002</ele>
        <time>2020-02-23T11:56:04Z</time>
      </trkpt>
      <trkpt lat="46.44192430190742" lon="8.45118354074657">
        <ele>2343.7199999999998</ele>
        <time>2020-02-23T11:56:18Z</time>
      </trkpt>
      <trkpt lat="46.441953051835299" lon="8.451196700334549">
        <ele>2343.6100000000001</ele>
        <time>2020-02-23T11:56:30Z</time>
      </trkpt>
      <trkpt lat="46.442067380994558" lon="8.45122997649014">
        <ele>2342.8099999999999</ele>
        <time>2020-02-23T11:56:43Z</time>
      </trkpt>
      <trkpt lat="46.442169304937124" lon="8.451268449425697">
        <ele>2343.5900000000001</ele>
        <time>2020-02-23T11:56:55Z</time>
      </trkpt>
      <trkpt lat="46.442288244143128" lon="8.451315220445395">
        <ele>2342.5700000000002</ele>
        <time>2020-02-23T11:57:10Z</time>
      </trkpt>
      <trkpt lat="46.442389497533441" lon="8.451346568763256">
        <ele>2342.8099999999999</ele>
        <time>2020-02-23T11:57:23Z</time>
      </trkpt>
      <trkpt lat="46.442521512508392" lon="8.451382024213672">
        <ele>2343.7199999999998</ele>
        <time>2020-02-23T11:57:39Z</time>
      </trkpt>
      <trkpt lat="46.442665848881006" lon="8.451402643695474">
        <ele>2343.8499999999999</ele>
        <time>2020-02-23T11:57:56Z</time>
      </trkpt>
      <trkpt lat="46.442777412012219" lon="8.451446648687124">
        <ele>2344.4000000000001</ele>
        <time>2020-02-23T11:58:10Z</time>
      </trkpt>
      <trkpt lat="46.442908840253949" lon="8.4515031427145">
        <ele>2344.6599999999999</ele>
        <time>2020-02-23T11:58:27Z</time>
      </trkpt>
      <trkpt lat="46.443027444183826" lon="8.451563995331526">
        <ele>2343.79</ele>
        <time>2020-02-23T11:58:43Z</time>
      </trkpt>
      <trkpt lat="46.443143617361784" lon="8.451592242345214">
        <ele>2345.46</ele>
        <time>2020-02-23T11:58:58Z</time>
      </trkpt>
      <trkpt lat="46.443155854940414" lon="8.451607497408986">
        <ele>2342.4200000000001</ele>
        <time>2020-02-23T11:59:00Z</time>
      </trkpt>
      <trkpt lat="46.443163063377142" lon="8.451613448560238">
        <ele>2342.52</ele>
        <time>2020-02-23T11:59:01Z</time>
      </trkpt>
      <trkpt lat="46.443261299282312" lon="8.451663153246045">
        <ele>2343.9499999999998</ele>
        <time>2020-02-23T11:59:14Z</time>
      </trkpt>
      <trkpt lat="46.443368336185813" lon="8.451717048883438">
        <ele>2342.8499999999999</ele>
        <time>2020-02-23T11:59:28Z</time>
      </trkpt>
      <trkpt lat="46.443430110812187" lon="8.451742781326175">
        <ele>2344.5</ele>
        <time>2020-02-23T11:59:39Z</time>
      </trkpt>
      <trkpt lat="46.443436816334724" lon="8.451746050268412">
        <ele>2343.5900000000001</ele>
        <time>2020-02-23T11:59:48Z</time>
      </trkpt>
      <trkpt lat="46.44348107278347" lon="8.451759712770581">
        <ele>2345.8600000000001</ele>
        <time>2020-02-23T11:59:59Z</time>
      </trkpt>
      <trkpt lat="46.4435675740242" lon="8.45179240219295">
        <ele>2347.7199999999998</ele>
        <time>2020-02-23T12:00:14Z</time>
      </trkpt>
      <trkpt lat="46.443621385842562" lon="8.45180262811482">
        <ele>2348.1199999999999</ele>
        <time>2020-02-23T12:00:24Z</time>
      </trkpt>
      <trkpt lat="46.443664049729705" lon="8.451775554567576">
        <ele>2349.5900000000001</ele>
        <time>2020-02-23T12:00:35Z</time>
      </trkpt>
      <trkpt lat="46.443694643676281" lon="8.451733225956559">
        <ele>2350.6500000000001</ele>
        <time>2020-02-23T12:00:46Z</time>
      </trkpt>
      <trkpt lat="46.443722303956747" lon="8.451685700565577">
        <ele>2351.9899999999998</ele>
        <time>2020-02-23T12:00:57Z</time>
      </trkpt>
      <trkpt lat="46.443756083026528" lon="8.451639851555228">
        <ele>2353.1799999999998</ele>
        <time>2020-02-23T12:01:08Z</time>
      </trkpt>
      <trkpt lat="46.443789526820183" lon="8.451592745259404">
        <ele>2354.4200000000001</ele>
        <time>2020-02-23T12:01:19Z</time>
      </trkpt>
      <trkpt lat="46.44382162950933" lon="8.451536083593965">
        <ele>2355.0700000000002</ele>
        <time>2020-02-23T12:01:30Z</time>
      </trkpt>
      <trkpt lat="46.443861946463585" lon="8.451541950926185">
        <ele>2356.29</ele>
        <time>2020-02-23T12:01:40Z</time>
      </trkpt>
      <trkpt lat="46.443916009739041" lon="8.451584950089455">
        <ele>2357.48</ele>
        <time>2020-02-23T12:01:53Z</time>
      </trkpt>
      <trkpt lat="46.443960601463914" lon="8.451624428853393">
        <ele>2358.46</ele>
        <time>2020-02-23T12:02:04Z</time>
      </trkpt>
      <trkpt lat="46.444001002237201" lon="8.45166340470314">
        <ele>2359.2399999999998</ele>
        <time>2020-02-23T12:02:16Z</time>
      </trkpt>
      <trkpt lat="46.44403763115406" lon="8.451680839061737">
        <ele>2360.7199999999998</ele>
        <time>2020-02-23T12:02:27Z</time>
      </trkpt>
      <trkpt lat="46.44406009465456" lon="8.451649323105812">
        <ele>2361.75</ele>
        <time>2020-02-23T12:02:37Z</time>
      </trkpt>
      <trkpt lat="46.444083815440536" lon="8.45160917378962">
        <ele>2363.0900000000001</ele>
        <time>2020-02-23T12:02:48Z</time>
      </trkpt>
      <trkpt lat="46.44410208798945" lon="8.451572041958571">
        <ele>2363.9000000000001</ele>
        <time>2020-02-23T12:02:58Z</time>
      </trkpt>
      <trkpt lat="46.444129245355725" lon="8.451519152149558">
        <ele>2365.2600000000002</ele>
        <time>2020-02-23T12:03:10Z</time>
      </trkpt>
      <trkpt lat="46.444153469055891" lon="8.451464837417007">
        <ele>2366.9200000000001</ele>
        <time>2020-02-23T12:03:22Z</time>
      </trkpt>
      <trkpt lat="46.444175262004137" lon="8.451412115246058">
        <ele>2368.5700000000002</ele>
        <time>2020-02-23T12:03:33Z</time>
      </trkpt>
      <trkpt lat="46.444202419370413" lon="8.451388897374272">
        <ele>2369.6700000000001</ele>
        <time>2020-02-23T12:03:46Z</time>
      </trkpt>
      <trkpt lat="46.444239970296621" lon="8.451372385025024">
        <ele>2371.1999999999998</ele>
        <time>2020-02-23T12:03:57Z</time>
      </trkpt>
      <trkpt lat="46.444284562021494" lon="8.451356710866094">
        <ele>2373.1100000000001</ele>
        <time>2020-02-23T12:04:10Z</time>
      </trkpt>
      <trkpt lat="46.444325549528003" lon="8.451346652582288">
        <ele>2375</ele>
        <time>2020-02-23T12:04:22Z</time>
      </trkpt>
      <trkpt lat="46.444363435730338" lon="8.451345143839717">
        <ele>2376.3699999999999</ele>
        <time>2020-02-23T12:04:33Z</time>
      </trkpt>
      <trkpt lat="46.444405596703291" lon="8.451345143839717">
        <ele>2377.79</ele>
        <time>2020-02-23T12:04:43Z</time>
      </trkpt>
      <trkpt lat="46.444441638886929" lon="8.451368613168597">
        <ele>2378.52</ele>
        <time>2020-02-23T12:04:54Z</time>
      </trkpt>
      <trkpt lat="46.444471143186092" lon="8.451404655352235">
        <ele>2379.3099999999999</ele>
        <time>2020-02-23T12:05:04Z</time>
      </trkpt>
      <trkpt lat="46.444492600858212" lon="8.451444720849395">
        <ele>2381.8699999999999</ele>
        <time>2020-02-23T12:05:13Z</time>
      </trkpt>
      <trkpt lat="46.444513387978077" lon="8.451484953984618">
        <ele>2383.3099999999999</ele>
        <time>2020-02-23T12:05:23Z</time>
      </trkpt>
      <trkpt lat="46.444534594193101" lon="8.451525019481778">
        <ele>2385.2199999999998</ele>
        <time>2020-02-23T12:05:33Z</time>
      </trkpt>
      <trkpt lat="46.444553034380078" lon="8.451560977846384">
        <ele>2386.1300000000001</ele>
        <time>2020-02-23T12:05:43Z</time>
      </trkpt>
      <trkpt lat="46.444563930854201" lon="8.451586542651057">
        <ele>2387.5100000000002</ele>
        <time>2020-02-23T12:05:51Z</time>
      </trkpt>
      <trkpt lat="46.44457072019577" lon="8.451611353084445">
        <ele>2388.5599999999999</ele>
        <time>2020-02-23T12:06:01Z</time>
      </trkpt>
      <trkpt lat="46.444577090442181" lon="8.451649071648717">
        <ele>2389.6700000000001</ele>
        <time>2020-02-23T12:06:12Z</time>
      </trkpt>
      <trkpt lat="46.444581029936671" lon="8.451692741364241">
        <ele>2392.0500000000002</ele>
        <time>2020-02-23T12:06:23Z</time>
      </trkpt>
      <trkpt lat="46.444599470123649" lon="8.45169366337359">
        <ele>2393.5900000000001</ele>
        <time>2020-02-23T12:06:34Z</time>
      </trkpt>
      <trkpt lat="46.444627717137337" lon="8.451673043891788">
        <ele>2395.3000000000002</ele>
        <time>2020-02-23T12:06:44Z</time>
      </trkpt>
      <trkpt lat="46.444653198122978" lon="8.451653849333525">
        <ele>2397.1199999999999</ele>
        <time>2020-02-23T12:06:54Z</time>
      </trkpt>
      <trkpt lat="46.444695862010121" lon="8.451611269265413">
        <ele>2398.3200000000002</ele>
        <time>2020-02-23T12:07:06Z</time>
      </trkpt>
      <trkpt lat="46.444729724898934" lon="8.451589224860072">
        <ele>2400.3400000000001</ele>
        <time>2020-02-23T12:07:15Z</time>
      </trkpt>
      <trkpt lat="46.444764761254191" lon="8.451564330607653">
        <ele>2401.3099999999999</ele>
        <time>2020-02-23T12:07:25Z</time>
      </trkpt>
      <trkpt lat="46.444803401827812" lon="8.451523594558239">
        <ele>2402.3699999999999</ele>
        <time>2020-02-23T12:07:40Z</time>
      </trkpt>
      <trkpt lat="46.444849753752351" lon="8.45147967338562">
        <ele>2403.3200000000002</ele>
        <time>2020-02-23T12:07:51Z</time>
      </trkpt>
      <trkpt lat="46.444896440953016" lon="8.451428962871432">
        <ele>2404.3899999999999</ele>
        <time>2020-02-23T12:08:03Z</time>
      </trkpt>
      <trkpt lat="46.444987133145332" lon="8.451332068070769">
        <ele>2405.1999999999998</ele>
        <time>2020-02-23T12:08:17Z</time>
      </trkpt>
      <trkpt lat="46.445055278018117" lon="8.451254367828369">
        <ele>2405.5500000000002</ele>
        <time>2020-02-23T12:08:30Z</time>
      </trkpt>
      <trkpt lat="46.445093918591738" lon="8.451193263754249">
        <ele>2406.3099999999999</ele>
        <time>2020-02-23T12:08:41Z</time>
      </trkpt>
      <trkpt lat="46.445093918591738" lon="8.451192174106836">
        <ele>2405.5500000000002</ele>
        <time>2020-02-23T12:08:56Z</time>
      </trkpt>
      <trkpt lat="46.445087632164359" lon="8.451196448877454">
        <ele>2405.8000000000002</ele>
        <time>2020-02-23T12:09:17Z</time>
      </trkpt>
      <trkpt lat="46.445088051259518" lon="8.451122101396322">
        <ele>2406.8200000000002</ele>
        <time>2020-02-23T12:09:30Z</time>
      </trkpt>
      <trkpt lat="46.445027953013778" lon="8.451071139425039">
        <ele>2408.9099999999999</ele>
        <time>2020-02-23T12:09:42Z</time>
      </trkpt>
      <trkpt lat="46.444970620796084" lon="8.451015148311853">
        <ele>2412</ele>
        <time>2020-02-23T12:09:57Z</time>
      </trkpt>
      <trkpt lat="46.444966932758689" lon="8.450980866327882">
        <ele>2410.5</ele>
        <time>2020-02-23T12:10:08Z</time>
      </trkpt>
      <trkpt lat="46.444967016577721" lon="8.450980614870787">
        <ele>2410.2199999999998</ele>
        <time>2020-02-23T12:10:09Z</time>
      </trkpt>
      <trkpt lat="46.444974225014448" lon="8.450974496081471">
        <ele>2414.4299999999998</ele>
        <time>2020-02-23T12:10:15Z</time>
      </trkpt>
      <trkpt lat="46.444952683523297" lon="8.450954295694828">
        <ele>2417.04</ele>
        <time>2020-02-23T12:10:25Z</time>
      </trkpt>
      <trkpt lat="46.444929214194417" lon="8.450928227975965">
        <ele>2419.73</ele>
        <time>2020-02-23T12:10:34Z</time>
      </trkpt>
      <trkpt lat="46.444909097626805" lon="8.450859161093831">
        <ele>2420.1599999999999</ele>
        <time>2020-02-23T12:10:45Z</time>
      </trkpt>
      <trkpt lat="46.444921251386404" lon="8.450770732015371">
        <ele>2422.02</ele>
        <time>2020-02-23T12:10:57Z</time>
      </trkpt>
      <trkpt lat="46.444965926930308" lon="8.450669562444091">
        <ele>2422.1100000000001</ele>
        <time>2020-02-23T12:11:10Z</time>
      </trkpt>
      <trkpt lat="46.445002974942327" lon="8.450556574389339">
        <ele>2422.0500000000002</ele>
        <time>2020-02-23T12:11:22Z</time>
      </trkpt>
      <trkpt lat="46.444987133145332" lon="8.450440904125571">
        <ele>2421.5799999999999</ele>
        <time>2020-02-23T12:11:33Z</time>
      </trkpt>
      <trkpt lat="46.444966932758689" lon="8.450318360701203">
        <ele>2422.6900000000001</ele>
        <time>2020-02-23T12:11:45Z</time>
      </trkpt>
      <trkpt lat="46.444956203922629" lon="8.450232446193695">
        <ele>2419.23</ele>
        <time>2020-02-23T12:11:57Z</time>
      </trkpt>
      <trkpt lat="46.444953521713614" lon="8.450227081775665">
        <ele>2422.1500000000001</ele>
        <time>2020-02-23T12:12:08Z</time>
      </trkpt>
      <trkpt lat="46.444939356297255" lon="8.450128091499209">
        <ele>2422.4099999999999</ele>
        <time>2020-02-23T12:12:22Z</time>
      </trkpt>
      <trkpt lat="46.444935668259859" lon="8.450103113427758">
        <ele>2422.23</ele>
        <time>2020-02-23T12:12:24Z</time>
      </trkpt>
      <trkpt lat="46.4449093490839" lon="8.449887111783028">
        <ele>2420.52</ele>
        <time>2020-02-23T12:12:40Z</time>
      </trkpt>
      <trkpt lat="46.444886215031147" lon="8.449723748490214">
        <ele>2421.5100000000002</ele>
        <time>2020-02-23T12:12:54Z</time>
      </trkpt>
      <trkpt lat="46.444860231131315" lon="8.449597684666514">
        <ele>2422.0300000000002</ele>
        <time>2020-02-23T12:13:06Z</time>
      </trkpt>
      <trkpt lat="46.444840952754021" lon="8.449429795145989">
        <ele>2422.8499999999999</ele>
        <time>2020-02-23T12:13:20Z</time>
      </trkpt>
      <trkpt lat="46.444826871156693" lon="8.449300462380052">
        <ele>2424.1399999999999</ele>
        <time>2020-02-23T12:13:32Z</time>
      </trkpt>
      <trkpt lat="46.444821590557694" lon="8.449197700247169">
        <ele>2424.75</ele>
        <time>2020-02-23T12:13:44Z</time>
      </trkpt>
      <trkpt lat="46.44481111317873" lon="8.449126034975052">
        <ele>2426.5999999999999</ele>
        <time>2020-02-23T12:13:56Z</time>
      </trkpt>
      <trkpt lat="46.444809101521969" lon="8.449069540947676">
        <ele>2428.6599999999999</ele>
        <time>2020-02-23T12:14:06Z</time>
      </trkpt>
      <trkpt lat="46.444806922227144" lon="8.449014807119966">
        <ele>2430.02</ele>
        <time>2020-02-23T12:14:16Z</time>
      </trkpt>
      <trkpt lat="46.444803653284907" lon="8.448962336406112">
        <ele>2432.21</ele>
        <time>2020-02-23T12:14:27Z</time>
      </trkpt>
      <trkpt lat="46.444792589172721" lon="8.448904417455196">
        <ele>2434.3400000000001</ele>
        <time>2020-02-23T12:14:39Z</time>
      </trkpt>
      <trkpt lat="46.444793092086911" lon="8.448853371664882">
        <ele>2435</ele>
        <time>2020-02-23T12:14:51Z</time>
      </trkpt>
      <trkpt lat="46.444794768467546" lon="8.448855048045516">
        <ele>2436.0100000000002</ele>
        <time>2020-02-23T12:15:02Z</time>
      </trkpt>
      <trkpt lat="46.444780435413122" lon="8.448793524876237">
        <ele>2434.8499999999999</ele>
        <time>2020-02-23T12:15:20Z</time>
      </trkpt>
      <trkpt lat="46.444763252511621" lon="8.44869788736105">
        <ele>2435.29</ele>
        <time>2020-02-23T12:15:30Z</time>
      </trkpt>
      <trkpt lat="46.444738358259201" lon="8.448604177683592">
        <ele>2435.75</ele>
        <time>2020-02-23T12:15:42Z</time>
      </trkpt>
      <trkpt lat="46.444689743220806" lon="8.448537793010473">
        <ele>2435.79</ele>
        <time>2020-02-23T12:15:52Z</time>
      </trkpt>
      <trkpt lat="46.444669375196099" lon="8.44850342720747">
        <ele>2435.5500000000002</ele>
        <time>2020-02-23T12:16:02Z</time>
      </trkpt>
      <trkpt lat="46.444667363539338" lon="8.448499487712979">
        <ele>2434.4400000000001</ele>
        <time>2020-02-23T12:16:18Z</time>
      </trkpt>
      <trkpt lat="46.444672560319304" lon="8.448494542390108">
        <ele>2434.3600000000001</ele>
        <time>2020-02-23T12:16:39Z</time>
      </trkpt>
      <trkpt lat="46.444676415994763" lon="8.448501164093614">
        <ele>2436.3400000000001</ele>
        <time>2020-02-23T12:16:50Z</time>
      </trkpt>
      <trkpt lat="46.444678511470556" lon="8.448503678664565">
        <ele>2434.4699999999998</ele>
        <time>2020-02-23T12:17:04Z</time>
      </trkpt>
      <trkpt lat="46.444671051576734" lon="8.448490938171744">
        <ele>2434.8600000000001</ele>
        <time>2020-02-23T12:17:59Z</time>
      </trkpt>
      <trkpt lat="46.444671219214797" lon="8.448500409722328">
        <ele>2435.3000000000002</ele>
        <time>2020-02-23T12:18:49Z</time>
      </trkpt>
      <trkpt lat="46.444673985242844" lon="8.448505690321326">
        <ele>2434.8099999999999</ele>
        <time>2020-02-23T12:19:46Z</time>
      </trkpt>
      <trkpt lat="46.444676835089922" lon="8.448501834645867">
        <ele>2435.4699999999998</ele>
        <time>2020-02-23T12:20:28Z</time>
      </trkpt>
      <trkpt lat="46.444675913080573" lon="8.448481131345034">
        <ele>2434.8699999999999</ele>
        <time>2020-02-23T12:20:56Z</time>
      </trkpt>
      <trkpt lat="46.444675242528319" lon="8.448480628430843">
        <ele>2435.4899999999998</ele>
        <time>2020-02-23T12:21:55Z</time>
      </trkpt>
      <trkpt lat="46.444672308862209" lon="8.448479706421495">
        <ele>2436.48</ele>
        <time>2020-02-23T12:23:02Z</time>
      </trkpt>
      <trkpt lat="46.444671219214797" lon="8.448481466621161">
        <ele>2435.2199999999998</ele>
        <time>2020-02-23T12:24:05Z</time>
      </trkpt>
      <trkpt lat="46.444671638309956" lon="8.448482556268573">
        <ele>2435.54</ele>
        <time>2020-02-23T12:25:05Z</time>
      </trkpt>
      <trkpt lat="46.444673733785748" lon="8.448485909029841">
        <ele>2438.6100000000001</ele>
        <time>2020-02-23T12:25:19Z</time>
      </trkpt>
      <trkpt lat="46.444664597511292" lon="8.448489597067237">
        <ele>2435.9400000000001</ele>
        <time>2020-02-23T12:25:34Z</time>
      </trkpt>
      <trkpt lat="46.444672727957368" lon="8.448481718078256">
        <ele>2436.6199999999999</ele>
        <time>2020-02-23T12:25:48Z</time>
      </trkpt>
      <trkpt lat="46.444695023819804" lon="8.448490435257554">
        <ele>2435.5799999999999</ele>
        <time>2020-02-23T12:26:42Z</time>
      </trkpt>
      <trkpt lat="46.444697622209787" lon="8.448482640087605">
        <ele>2434.6500000000001</ele>
        <time>2020-02-23T12:27:36Z</time>
      </trkpt>
      <trkpt lat="46.444687312468886" lon="8.448482556268573">
        <ele>2434.8699999999999</ele>
        <time>2020-02-23T12:28:10Z</time>
      </trkpt>
      <trkpt lat="46.444673649966717" lon="8.448482640087605">
        <ele>2435.4000000000001</ele>
        <time>2020-02-23T12:28:50Z</time>
      </trkpt>
      <trkpt lat="46.444670464843512" lon="8.448475431650877">
        <ele>2434.9000000000001</ele>
        <time>2020-02-23T12:29:32Z</time>
      </trkpt>
      <trkpt lat="46.444670632481575" lon="8.448484567925334">
        <ele>2434.6700000000001</ele>
        <time>2020-02-23T12:30:26Z</time>
      </trkpt>
      <trkpt lat="46.444673566147685" lon="8.448487082496285">
        <ele>2435.5</ele>
        <time>2020-02-23T12:31:15Z</time>
      </trkpt>
      <trkpt lat="46.444668117910624" lon="8.448481550440192">
        <ele>2436.0700000000002</ele>
        <time>2020-02-23T12:31:57Z</time>
      </trkpt>
      <trkpt lat="46.444667782634497" lon="8.448494961485267">
        <ele>2435.5100000000002</ele>
        <time>2020-02-23T12:32:41Z</time>
      </trkpt>
      <trkpt lat="46.444666609168053" lon="8.448500158265233">
        <ele>2434.1599999999999</ele>
        <time>2020-02-23T12:32:54Z</time>
      </trkpt>
      <trkpt lat="46.444668872281909" lon="8.448491021990776">
        <ele>2436.6799999999998</ele>
        <time>2020-02-23T12:33:58Z</time>
      </trkpt>
      <trkpt lat="46.444668620824814" lon="8.448489932343364">
        <ele>2439</ele>
        <time>2020-02-23T12:34:04Z</time>
      </trkpt>
      <trkpt lat="46.444670548662543" lon="8.448487585410476">
        <ele>2435.9400000000001</ele>
        <time>2020-02-23T12:34:18Z</time>
      </trkpt>
      <trkpt lat="46.444669291377068" lon="8.448491608723998">
        <ele>2437.23</ele>
        <time>2020-02-23T12:35:21Z</time>
      </trkpt>
      <trkpt lat="46.444671303033829" lon="8.448494374752045">
        <ele>2437.0999999999999</ele>
        <time>2020-02-23T12:36:08Z</time>
      </trkpt>
      <trkpt lat="46.444672644138336" lon="8.448493201285601">
        <ele>2437.8699999999999</ele>
        <time>2020-02-23T12:36:20Z</time>
      </trkpt>
      <trkpt lat="46.444670967757702" lon="8.448495883494616">
        <ele>2435.71</ele>
        <time>2020-02-23T12:36:36Z</time>
      </trkpt>
      <trkpt lat="46.444664429873228" lon="8.44850393012166">
        <ele>2436.4299999999998</ele>
        <time>2020-02-23T12:36:46Z</time>
      </trkpt>
      <trkpt lat="46.444666441529989" lon="8.448507534340024">
        <ele>2437.1799999999998</ele>
        <time>2020-02-23T12:37:04Z</time>
      </trkpt>
      <trkpt lat="46.444665184244514" lon="8.448508288711309">
        <ele>2437.3000000000002</ele>
        <time>2020-02-23T12:37:05Z</time>
      </trkpt>
      <trkpt lat="46.444667195901275" lon="8.448503175750375">
        <ele>2437.7399999999998</ele>
        <time>2020-02-23T12:37:18Z</time>
      </trkpt>
      <trkpt lat="46.444668034091592" lon="8.448513736948371">
        <ele>2437.4299999999998</ele>
        <time>2020-02-23T12:37:34Z</time>
      </trkpt>
      <trkpt lat="46.444663424044847" lon="8.448508121073246">
        <ele>2438.0300000000002</ele>
        <time>2020-02-23T12:37:41Z</time>
      </trkpt>
      <trkpt lat="46.444662921130657" lon="8.448503678664565">
        <ele>2436.6300000000001</ele>
        <time>2020-02-23T12:37:52Z</time>
      </trkpt>
      <trkpt lat="46.444661831483245" lon="8.448517173528671">
        <ele>2436.3299999999999</ele>
        <time>2020-02-23T12:38:12Z</time>
      </trkpt>
      <trkpt lat="46.444660490378737" lon="8.4485087916255">
        <ele>2436.75</ele>
        <time>2020-02-23T12:38:31Z</time>
      </trkpt>
      <trkpt lat="46.444662250578403" lon="8.448509210720658">
        <ele>2436.29</ele>
        <time>2020-02-23T12:38:47Z</time>
      </trkpt>
      <trkpt lat="46.444663004949689" lon="8.448508037254214">
        <ele>2439.0700000000002</ele>
        <time>2020-02-23T12:38:58Z</time>
      </trkpt>
      <trkpt lat="46.444679098203778" lon="8.448508456349373">
        <ele>2439.3099999999999</ele>
        <time>2020-02-23T12:39:11Z</time>
      </trkpt>
      <trkpt lat="46.444736430421472" lon="8.44857718795538">
        <ele>2438.5900000000001</ele>
        <time>2020-02-23T12:39:21Z</time>
      </trkpt>
      <trkpt lat="46.44479158334434" lon="8.448726302012801">
        <ele>2436.6399999999999</ele>
        <time>2020-02-23T12:39:35Z</time>
      </trkpt>
      <trkpt lat="46.444813292473555" lon="8.44887818209827">
        <ele>2434.5599999999999</ele>
        <time>2020-02-23T12:39:49Z</time>
      </trkpt>
      <trkpt lat="46.444802982732654" lon="8.448942806571722">
        <ele>2432.96</ele>
        <time>2020-02-23T12:39:58Z</time>
      </trkpt>
      <trkpt lat="46.444808011874557" lon="8.449020506814122">
        <ele>2429.8699999999999</ele>
        <time>2020-02-23T12:40:05Z</time>
      </trkpt>
      <trkpt lat="46.444813124835491" lon="8.449108935892582">
        <ele>2426.73</ele>
        <time>2020-02-23T12:40:16Z</time>
      </trkpt>
      <trkpt lat="46.444828966632485" lon="8.44919485040009">
        <ele>2423.6199999999999</ele>
        <time>2020-02-23T12:40:26Z</time>
      </trkpt>
      <trkpt lat="46.444835755974054" lon="8.449318567290902">
        <ele>2422.3099999999999</ele>
        <time>2020-02-23T12:40:37Z</time>
      </trkpt>
      <trkpt lat="46.444835672155023" lon="8.449332481250167">
        <ele>2421.0100000000002</ele>
        <time>2020-02-23T12:40:48Z</time>
      </trkpt>
      <trkpt lat="46.444831397384405" lon="8.449362153187394">
        <ele>2421.7399999999998</ele>
        <time>2020-02-23T12:41:00Z</time>
      </trkpt>
      <trkpt lat="46.44486291334033" lon="8.44951830804348">
        <ele>2420.5900000000001</ele>
        <time>2020-02-23T12:41:13Z</time>
      </trkpt>
      <trkpt lat="46.444905996322632" lon="8.449735483154655">
        <ele>2420.0999999999999</ele>
        <time>2020-02-23T12:41:28Z</time>
      </trkpt>
      <trkpt lat="46.444932566955686" lon="8.449948718771339">
        <ele>2419.8200000000002</ele>
        <time>2020-02-23T12:41:43Z</time>
      </trkpt>
      <trkpt lat="46.444948660209775" lon="8.450086433440447">
        <ele>2420.6500000000001</ele>
        <time>2020-02-23T12:41:55Z</time>
      </trkpt>
      <trkpt lat="46.44496844150126" lon="8.450238900259137">
        <ele>2421.4400000000001</ele>
        <time>2020-02-23T12:42:08Z</time>
      </trkpt>
      <trkpt lat="46.444992581382394" lon="8.450425732880831">
        <ele>2420.9400000000001</ele>
        <time>2020-02-23T12:42:21Z</time>
      </trkpt>
      <trkpt lat="46.444980427622795" lon="8.450633436441422">
        <ele>2421.4400000000001</ele>
        <time>2020-02-23T12:42:37Z</time>
      </trkpt>
      <trkpt lat="46.444918401539326" lon="8.450804762542248">
        <ele>2419.8600000000001</ele>
        <time>2020-02-23T12:42:52Z</time>
      </trkpt>
      <trkpt lat="46.444915384054184" lon="8.450880870223045">
        <ele>2417.0700000000002</ele>
        <time>2020-02-23T12:42:58Z</time>
      </trkpt>
      <trkpt lat="46.444961568340659" lon="8.450967539101839">
        <ele>2415.4200000000001</ele>
        <time>2020-02-23T12:43:11Z</time>
      </trkpt>
      <trkpt lat="46.444973889738321" lon="8.450978016480804">
        <ele>2413.4699999999998</ele>
        <time>2020-02-23T12:43:15Z</time>
      </trkpt>
      <trkpt lat="46.444967016577721" lon="8.451001737266779">
        <ele>2413.6399999999999</ele>
        <time>2020-02-23T12:43:25Z</time>
      </trkpt>
      <trkpt lat="46.445010853931308" lon="8.451031157746911">
        <ele>2410.6700000000001</ele>
        <time>2020-02-23T12:43:34Z</time>
      </trkpt>
      <trkpt lat="46.445033485069871" lon="8.45104968175292">
        <ele>2409.6399999999999</ele>
        <time>2020-02-23T12:43:37Z</time>
      </trkpt>
      <trkpt lat="46.445059720426798" lon="8.451068792492151">
        <ele>2408.3200000000002</ele>
        <time>2020-02-23T12:43:40Z</time>
      </trkpt>
      <trkpt lat="46.445083105936646" lon="8.451206758618355">
        <ele>2410.73</ele>
        <time>2020-02-23T12:43:50Z</time>
      </trkpt>
      <trkpt lat="46.44505251199007" lon="8.451252272352576">
        <ele>2410.21</ele>
        <time>2020-02-23T12:44:00Z</time>
      </trkpt>
      <trkpt lat="46.445047985762358" lon="8.451263587921858">
        <ele>2409.5700000000002</ele>
        <time>2020-02-23T12:44:03Z</time>
      </trkpt>
      <trkpt lat="46.445016218349338" lon="8.451295020058751">
        <ele>2409.3600000000001</ele>
        <time>2020-02-23T12:44:07Z</time>
      </trkpt>
      <trkpt lat="46.444899626076221" lon="8.451433489099145">
        <ele>2406.5700000000002</ele>
        <time>2020-02-23T12:44:22Z</time>
      </trkpt>
      <trkpt lat="46.444885963574052" lon="8.45145620405674">
        <ele>2405.0900000000001</ele>
        <time>2020-02-23T12:44:33Z</time>
      </trkpt>
      <trkpt lat="46.444887137040496" lon="8.451463747769594">
        <ele>2404.5700000000002</ele>
        <time>2020-02-23T12:44:49Z</time>
      </trkpt>
      <trkpt lat="46.444830726832151" lon="8.45150507055223">
        <ele>2404.2199999999998</ele>
        <time>2020-02-23T12:45:03Z</time>
      </trkpt>
      <trkpt lat="46.444715308025479" lon="8.451595008373261">
        <ele>2400.8899999999999</ele>
        <time>2020-02-23T12:45:19Z</time>
      </trkpt>
      <trkpt lat="46.444630566984415" lon="8.45166583545506">
        <ele>2398.4099999999999</ele>
        <time>2020-02-23T12:45:34Z</time>
      </trkpt>
      <trkpt lat="46.444582622498274" lon="8.451693244278431">
        <ele>2396.0100000000002</ele>
        <time>2020-02-23T12:45:47Z</time>
      </trkpt>
      <trkpt lat="46.444550938904285" lon="8.451652340590954">
        <ele>2393.1199999999999</ele>
        <time>2020-02-23T12:45:59Z</time>
      </trkpt>
      <trkpt lat="46.444527469575405" lon="8.451590230688453">
        <ele>2390.0900000000001</ele>
        <time>2020-02-23T12:46:09Z</time>
      </trkpt>
      <trkpt lat="46.444507520645857" lon="8.45154220238328">
        <ele>2387.0799999999999</ele>
        <time>2020-02-23T12:46:17Z</time>
      </trkpt>
      <trkpt lat="46.444485560059547" lon="8.451494760811329">
        <ele>2383.8499999999999</ele>
        <time>2020-02-23T12:46:24Z</time>
      </trkpt>
      <trkpt lat="46.444483045488596" lon="8.451485792174935">
        <ele>2383.6199999999999</ele>
        <time>2020-02-23T12:46:25Z</time>
      </trkpt>
      <trkpt lat="46.44443878903985" lon="8.451410103589296">
        <ele>2381.3200000000002</ele>
        <time>2020-02-23T12:46:36Z</time>
      </trkpt>
      <trkpt lat="46.444375673308969" lon="8.451369786635041">
        <ele>2379.3400000000001</ele>
        <time>2020-02-23T12:46:48Z</time>
      </trkpt>
      <trkpt lat="46.444315491244197" lon="8.45139417797327">
        <ele>2376.4899999999998</ele>
        <time>2020-02-23T12:47:05Z</time>
      </trkpt>
      <trkpt lat="46.444252543151379" lon="8.451402811333537">
        <ele>2373.2800000000002</ele>
        <time>2020-02-23T12:47:13Z</time>
      </trkpt>
      <trkpt lat="46.444179369136691" lon="8.451419994235039">
        <ele>2370.0100000000002</ele>
        <time>2020-02-23T12:47:23Z</time>
      </trkpt>
      <trkpt lat="46.444109547883272" lon="8.451454862952232">
        <ele>2366.8099999999999</ele>
        <time>2020-02-23T12:47:32Z</time>
      </trkpt>
      <trkpt lat="46.444028075784445" lon="8.451497778296471">
        <ele>2363.6199999999999</ele>
        <time>2020-02-23T12:47:42Z</time>
      </trkpt>
      <trkpt lat="46.443996140733361" lon="8.451515464112163">
        <ele>2361.9400000000001</ele>
        <time>2020-02-23T12:47:46Z</time>
      </trkpt>
      <trkpt lat="46.443918524309993" lon="8.451553601771593">
        <ele>2358.73</ele>
        <time>2020-02-23T12:47:56Z</time>
      </trkpt>
      <trkpt lat="46.443851217627525" lon="8.451581597328186">
        <ele>2355.52</ele>
        <time>2020-02-23T12:48:05Z</time>
      </trkpt>
      <trkpt lat="46.443755580112338" lon="8.451632475480437">
        <ele>2352.4499999999998</ele>
        <time>2020-02-23T12:48:17Z</time>
      </trkpt>
      <trkpt lat="46.443682657554746" lon="8.451659297570586">
        <ele>2349.29</ele>
        <time>2020-02-23T12:48:26Z</time>
      </trkpt>
      <trkpt lat="46.443567406386137" lon="8.451719898730516">
        <ele>2345.9400000000001</ele>
        <time>2020-02-23T12:48:39Z</time>
      </trkpt>
      <trkpt lat="46.443558186292648" lon="8.451725849881768">
        <ele>2345.77</ele>
        <time>2020-02-23T12:48:40Z</time>
      </trkpt>
      <trkpt lat="46.443407144397497" lon="8.451734650880098">
        <ele>2343.3699999999999</ele>
        <time>2020-02-23T12:48:56Z</time>
      </trkpt>
      <trkpt lat="46.443385602906346" lon="8.451738003641367">
        <ele>2342.8699999999999</ele>
        <time>2020-02-23T12:49:07Z</time>
      </trkpt>
      <trkpt lat="46.443376047536731" lon="8.451738003641367">
        <ele>2342.1199999999999</ele>
        <time>2020-02-23T12:49:28Z</time>
      </trkpt>
      <trkpt lat="46.44337554462254" lon="8.451733477413654">
        <ele>2342.7800000000002</ele>
        <time>2020-02-23T12:49:48Z</time>
      </trkpt>
      <trkpt lat="46.443377556279302" lon="8.451728532090783">
        <ele>2343.6100000000001</ele>
        <time>2020-02-23T12:50:15Z</time>
      </trkpt>
      <trkpt lat="46.443378478288651" lon="8.451738338917494">
        <ele>2344.4099999999999</ele>
        <time>2020-02-23T12:50:46Z</time>
      </trkpt>
      <trkpt lat="46.443378059193492" lon="8.451737333089113">
        <ele>2344.77</ele>
        <time>2020-02-23T12:51:01Z</time>
      </trkpt>
      <trkpt lat="46.443380070850253" lon="8.451741775497794">
        <ele>2343.4200000000001</ele>
        <time>2020-02-23T12:51:18Z</time>
      </trkpt>
      <trkpt lat="46.443375293165445" lon="8.451737836003304">
        <ele>2344.02</ele>
        <time>2020-02-23T12:51:35Z</time>
      </trkpt>
      <trkpt lat="46.443326761946082" lon="8.451716965064406">
        <ele>2343.5700000000002</ele>
        <time>2020-02-23T12:51:44Z</time>
      </trkpt>
      <trkpt lat="46.443305471912026" lon="8.451698776334524">
        <ele>2343.9899999999998</ele>
        <time>2020-02-23T12:51:54Z</time>
      </trkpt>
      <trkpt lat="46.44330907613039" lon="8.451684024184942">
        <ele>2344.8800000000001</ele>
        <time>2020-02-23T12:52:08Z</time>
      </trkpt>
      <trkpt lat="46.443307315930724" lon="8.451688215136528">
        <ele>2344.98</ele>
        <time>2020-02-23T12:52:23Z</time>
      </trkpt>
      <trkpt lat="46.443243781104684" lon="8.45166927203536">
        <ele>2344.6199999999999</ele>
        <time>2020-02-23T12:52:35Z</time>
      </trkpt>
      <trkpt lat="46.4431082457304" lon="8.451609089970589">
        <ele>2344.4899999999998</ele>
        <time>2020-02-23T12:52:51Z</time>
      </trkpt>
      <trkpt lat="46.442968184128404" lon="8.451547985896468">
        <ele>2344.3000000000002</ele>
        <time>2020-02-23T12:53:06Z</time>
      </trkpt>
      <trkpt lat="46.442856872454286" lon="8.45149920322001">
        <ele>2344.04</ele>
        <time>2020-02-23T12:53:18Z</time>
      </trkpt>
      <trkpt lat="46.442732233554125" lon="8.451451007276774">
        <ele>2344.3699999999999</ele>
        <time>2020-02-23T12:53:32Z</time>
      </trkpt>
      <trkpt lat="46.442603319883347" lon="8.451416054740548">
        <ele>2344.6300000000001</ele>
        <time>2020-02-23T12:53:46Z</time>
      </trkpt>
      <trkpt lat="46.442491840571165" lon="8.45139124430716">
        <ele>2344.4099999999999</ele>
        <time>2020-02-23T12:53:58Z</time>
      </trkpt>
      <trkpt lat="46.442369380965829" lon="8.451359309256077">
        <ele>2344.8400000000001</ele>
        <time>2020-02-23T12:54:12Z</time>
      </trkpt>
      <trkpt lat="46.442253794521093" lon="8.451320920139551">
        <ele>2344.6599999999999</ele>
        <time>2020-02-23T12:54:25Z</time>
      </trkpt>
      <trkpt lat="46.442141477018595" lon="8.451274819672108">
        <ele>2344.1500000000001</ele>
        <time>2020-02-23T12:54:38Z</time>
      </trkpt>
      <trkpt lat="46.442044246941805" lon="8.45123483799398">
        <ele>2343.9099999999999</ele>
        <time>2020-02-23T12:54:49Z</time>
      </trkpt>
      <trkpt lat="46.441920949146152" lon="8.451180942356587">
        <ele>2344.0999999999999</ele>
        <time>2020-02-23T12:55:03Z</time>
      </trkpt>
      <trkpt lat="46.441815756261349" lon="8.45113031566143">
        <ele>2344.2600000000002</ele>
        <time>2020-02-23T12:55:15Z</time>
      </trkpt>
      <trkpt lat="46.441691955551505" lon="8.451066110283136">
        <ele>2344.5700000000002</ele>
        <time>2020-02-23T12:55:29Z</time>
      </trkpt>
      <trkpt lat="46.441572429612279" lon="8.450980531051755">
        <ele>2344.9699999999998</ele>
        <time>2020-02-23T12:55:44Z</time>
      </trkpt>
      <trkpt lat="46.44146547652781" lon="8.450886737555265">
        <ele>2345.9200000000001</ele>
        <time>2020-02-23T12:55:59Z</time>
      </trkpt>
      <trkpt lat="46.441361457109451" lon="8.45080635510385">
        <ele>2346.3000000000002</ele>
        <time>2020-02-23T12:56:12Z</time>
      </trkpt>
      <trkpt lat="46.441231621429324" lon="8.450718512758613">
        <ele>2345.8699999999999</ele>
        <time>2020-02-23T12:56:27Z</time>
      </trkpt>
      <trkpt lat="46.441138749942183" lon="8.450667131692171">
        <ele>2346.2800000000002</ele>
        <time>2020-02-23T12:56:39Z</time>
      </trkpt>
      <trkpt lat="46.441065743565559" lon="8.450631257146597">
        <ele>2347.1700000000001</ele>
        <time>2020-02-23T12:56:50Z</time>
      </trkpt>
      <trkpt lat="46.440986953675747" lon="8.450591778382659">
        <ele>2348.1999999999998</ele>
        <time>2020-02-23T12:57:01Z</time>
      </trkpt>
      <trkpt lat="46.440883604809642" lon="8.450546516105533">
        <ele>2349.6900000000001</ele>
        <time>2020-02-23T12:57:17Z</time>
      </trkpt>
      <trkpt lat="46.440794002264738" lon="8.450467307120562">
        <ele>2350.7800000000002</ele>
        <time>2020-02-23T12:57:32Z</time>
      </trkpt>
      <trkpt lat="46.44070222042501" lon="8.450411232188344">
        <ele>2351.02</ele>
        <time>2020-02-23T12:57:44Z</time>
      </trkpt>
      <trkpt lat="46.440589400008321" lon="8.450374770909548">
        <ele>2350.8099999999999</ele>
        <time>2020-02-23T12:57:57Z</time>
      </trkpt>
      <trkpt lat="46.440412709489465" lon="8.450347278267145">
        <ele>2348.1500000000001</ele>
        <time>2020-02-23T12:58:14Z</time>
      </trkpt>
      <trkpt lat="46.440278766676784" lon="8.450316265225411">
        <ele>2347.46</ele>
        <time>2020-02-23T12:58:28Z</time>
      </trkpt>
      <trkpt lat="46.440145326778293" lon="8.450275110080838">
        <ele>2348.1599999999999</ele>
        <time>2020-02-23T12:58:43Z</time>
      </trkpt>
      <trkpt lat="46.440013563260436" lon="8.450239738449454">
        <ele>2348.4400000000001</ele>
        <time>2020-02-23T12:58:58Z</time>
      </trkpt>
      <trkpt lat="46.439901916310191" lon="8.450211323797703">
        <ele>2349.3899999999999</ele>
        <time>2020-02-23T12:59:12Z</time>
      </trkpt>
      <trkpt lat="46.439800411462784" lon="8.450165810063481">
        <ele>2350.4499999999998</ele>
        <time>2020-02-23T12:59:26Z</time>
      </trkpt>
      <trkpt lat="46.439705779775977" lon="8.450121721252799">
        <ele>2352.0599999999999</ele>
        <time>2020-02-23T12:59:40Z</time>
      </trkpt>
      <trkpt lat="46.439625984057784" lon="8.450075704604387">
        <ele>2352.3400000000001</ele>
        <time>2020-02-23T12:59:51Z</time>
      </trkpt>
      <trkpt lat="46.439535291865468" lon="8.450005128979683">
        <ele>2353.2800000000002</ele>
        <time>2020-02-23T13:00:03Z</time>
      </trkpt>
      <trkpt lat="46.439444264397025" lon="8.449930781498551">
        <ele>2353.2199999999998</ele>
        <time>2020-02-23T13:00:15Z</time>
      </trkpt>
      <trkpt lat="46.439312417060137" lon="8.449831204488874">
        <ele>2353.1799999999998</ele>
        <time>2020-02-23T13:00:32Z</time>
      </trkpt>
      <trkpt lat="46.439185766503215" lon="8.449723748490214">
        <ele>2352.04</ele>
        <time>2020-02-23T13:00:47Z</time>
      </trkpt>
      <trkpt lat="46.439052075147629" lon="8.449616963043809">
        <ele>2351.4000000000001</ele>
        <time>2020-02-23T13:01:02Z</time>
      </trkpt>
      <trkpt lat="46.438940595835447" lon="8.449516212567687">
        <ele>2352.0900000000001</ele>
        <time>2020-02-23T13:01:17Z</time>
      </trkpt>
      <trkpt lat="46.438835235312581" lon="8.449415126815438">
        <ele>2353.2800000000002</ele>
        <time>2020-02-23T13:01:33Z</time>
      </trkpt>
      <trkpt lat="46.438744124025106" lon="8.449318734928966">
        <ele>2354.3600000000001</ele>
        <time>2020-02-23T13:01:46Z</time>
      </trkpt>
      <trkpt lat="46.43864069133997" lon="8.449182864278555">
        <ele>2355.1199999999999</ele>
        <time>2020-02-23T13:02:02Z</time>
      </trkpt>
      <trkpt lat="46.438533570617437" lon="8.449046071618795">
        <ele>2355.3200000000002</ele>
        <time>2020-02-23T13:02:18Z</time>
      </trkpt>
      <trkpt lat="46.43843986093998" lon="8.448935598134995">
        <ele>2356.4000000000001</ele>
        <time>2020-02-23T13:02:32Z</time>
      </trkpt>
      <trkpt lat="46.438329638913274" lon="8.448803415521979">
        <ele>2356.3600000000001</ele>
        <time>2020-02-23T13:02:47Z</time>
      </trkpt>
      <trkpt lat="46.438221344724298" lon="8.448657067492604">
        <ele>2355.6399999999999</ele>
        <time>2020-02-23T13:03:01Z</time>
      </trkpt>
      <trkpt lat="46.438116654753685" lon="8.44851172529161">
        <ele>2355.98</ele>
        <time>2020-02-23T13:03:16Z</time>
      </trkpt>
      <trkpt lat="46.43801967613399" lon="8.448370909318328">
        <ele>2357.3499999999999</ele>
        <time>2020-02-23T13:03:32Z</time>
      </trkpt>
      <trkpt lat="46.437925044447184" lon="8.448223639279604">
        <ele>2357.6500000000001</ele>
        <time>2020-02-23T13:03:46Z</time>
      </trkpt>
      <trkpt lat="46.437809709459543" lon="8.448062790557742">
        <ele>2356.1799999999998</ele>
        <time>2020-02-23T13:04:01Z</time>
      </trkpt>
      <trkpt lat="46.437793029472232" lon="8.448031609877944">
        <ele>2355.3200000000002</ele>
        <time>2020-02-23T13:04:09Z</time>
      </trkpt>
      <trkpt lat="46.437777271494269" lon="8.448012918233872">
        <ele>2354.9299999999998</ele>
        <time>2020-02-23T13:04:11Z</time>
      </trkpt>
      <trkpt lat="46.437732931226492" lon="8.447944270446897">
        <ele>2353.96</ele>
        <time>2020-02-23T13:04:17Z</time>
      </trkpt>
      <trkpt lat="46.437622290104628" lon="8.447759952396154">
        <ele>2353.1300000000001</ele>
        <time>2020-02-23T13:04:33Z</time>
      </trkpt>
      <trkpt lat="46.437514666467905" lon="8.447575969621539">
        <ele>2351.4000000000001</ele>
        <time>2020-02-23T13:04:49Z</time>
      </trkpt>
      <trkpt lat="46.437419950962067" lon="8.447379665449262">
        <ele>2348.73</ele>
        <time>2020-02-23T13:05:05Z</time>
      </trkpt>
      <trkpt lat="46.43734828568995" lon="8.447203477844596">
        <ele>2347.9400000000001</ele>
        <time>2020-02-23T13:05:19Z</time>
      </trkpt>
      <trkpt lat="46.437279805541039" lon="8.447017399594188">
        <ele>2346.77</ele>
        <time>2020-02-23T13:05:33Z</time>
      </trkpt>
      <trkpt lat="46.43721878528595" lon="8.446818245574832">
        <ele>2347.0999999999999</ele>
        <time>2020-02-23T13:05:49Z</time>
      </trkpt>
      <trkpt lat="46.437181066721678" lon="8.446622025221586">
        <ele>2347.27</ele>
        <time>2020-02-23T13:06:04Z</time>
      </trkpt>
      <trkpt lat="46.43713085912168" lon="8.446413483470678">
        <ele>2345.77</ele>
        <time>2020-02-23T13:06:19Z</time>
      </trkpt>
      <trkpt lat="46.437067911028862" lon="8.446211563423276">
        <ele>2345.0500000000002</ele>
        <time>2020-02-23T13:06:34Z</time>
      </trkpt>
      <trkpt lat="46.436997251585126" lon="8.446012828499079">
        <ele>2343.29</ele>
        <time>2020-02-23T13:06:49Z</time>
      </trkpt>
      <trkpt lat="46.436944277957082" lon="8.44588240608573">
        <ele>2340.27</ele>
        <time>2020-02-23T13:07:00Z</time>
      </trkpt>
      <trkpt lat="46.436901865527034" lon="8.445785092189908">
        <ele>2336.98</ele>
        <time>2020-02-23T13:07:09Z</time>
      </trkpt>
      <trkpt lat="46.436827182769775" lon="8.445572862401605">
        <ele>2334.1100000000001</ele>
        <time>2020-02-23T13:07:25Z</time>
      </trkpt>
      <trkpt lat="46.436739088967443" lon="8.445345712825656">
        <ele>2331.8000000000002</ele>
        <time>2020-02-23T13:07:42Z</time>
      </trkpt>
      <trkpt lat="46.436659377068281" lon="8.445137003436685">
        <ele>2330.8800000000001</ele>
        <time>2020-02-23T13:07:58Z</time>
      </trkpt>
      <trkpt lat="46.436572205275297" lon="8.444908680394292">
        <ele>2328.3299999999999</ele>
        <time>2020-02-23T13:08:15Z</time>
      </trkpt>
      <trkpt lat="46.43649073317647" lon="8.444697875529528">
        <ele>2327.9899999999998</ele>
        <time>2020-02-23T13:08:32Z</time>
      </trkpt>
      <trkpt lat="46.436408255249262" lon="8.444512384012342">
        <ele>2328.5799999999999</ele>
        <time>2020-02-23T13:08:48Z</time>
      </trkpt>
      <trkpt lat="46.436303313821554" lon="8.444320019334555">
        <ele>2327.8099999999999</ele>
        <time>2020-02-23T13:09:05Z</time>
      </trkpt>
      <trkpt lat="46.436219494789839" lon="8.444188088178635">
        <ele>2324.7600000000002</ele>
        <time>2020-02-23T13:09:17Z</time>
      </trkpt>
      <trkpt lat="46.436087815091014" lon="8.443979630246759">
        <ele>2322.5799999999999</ele>
        <time>2020-02-23T13:09:35Z</time>
      </trkpt>
      <trkpt lat="46.4359400421381" lon="8.443766813725233">
        <ele>2319.6399999999999</ele>
        <time>2020-02-23T13:09:54Z</time>
      </trkpt>
      <trkpt lat="46.435801321640611" lon="8.443600013852119">
        <ele>2316.4899999999998</ele>
        <time>2020-02-23T13:10:10Z</time>
      </trkpt>
      <trkpt lat="46.435673329979181" lon="8.44341779127717">
        <ele>2314.23</ele>
        <time>2020-02-23T13:10:26Z</time>
      </trkpt>
      <trkpt lat="46.43556235358119" lon="8.443256942555308">
        <ele>2313.4000000000001</ele>
        <time>2020-02-23T13:10:41Z</time>
      </trkpt>
      <trkpt lat="46.435441486537457" lon="8.443042449653149">
        <ele>2310.3099999999999</ele>
        <time>2020-02-23T13:10:58Z</time>
      </trkpt>
      <trkpt lat="46.435322882607579" lon="8.442841535434127">
        <ele>2309.02</ele>
        <time>2020-02-23T13:11:14Z</time>
      </trkpt>
      <trkpt lat="46.435213247314095" lon="8.442670460790396">
        <ele>2306</ele>
        <time>2020-02-23T13:11:28Z</time>
      </trkpt>
      <trkpt lat="46.435078047215939" lon="8.442488573491573">
        <ele>2303.6900000000001</ele>
        <time>2020-02-23T13:11:44Z</time>
      </trkpt>
      <trkpt lat="46.434959694743156" lon="8.442324120551348">
        <ele>2302.8200000000002</ele>
        <time>2020-02-23T13:12:00Z</time>
      </trkpt>
      <trkpt lat="46.434833882376552" lon="8.442197218537331">
        <ele>2301.02</ele>
        <time>2020-02-23T13:12:16Z</time>
      </trkpt>
      <trkpt lat="46.434822399169207" lon="8.442194117233157">
        <ele>2300.4099999999999</ele>
        <time>2020-02-23T13:12:26Z</time>
      </trkpt>
      <trkpt lat="46.434750063344836" lon="8.442195039242506">
        <ele>2299.2199999999998</ele>
        <time>2020-02-23T13:12:38Z</time>
      </trkpt>
      <trkpt lat="46.434620060026646" lon="8.442211048677564">
        <ele>2295.8600000000001</ele>
        <time>2020-02-23T13:12:52Z</time>
      </trkpt>
      <trkpt lat="46.434567254036665" lon="8.442249353975058">
        <ele>2292.54</ele>
        <time>2020-02-23T13:13:01Z</time>
      </trkpt>
      <trkpt lat="46.43450740724802" lon="8.442239630967379">
        <ele>2289.3600000000001</ele>
        <time>2020-02-23T13:13:11Z</time>
      </trkpt>
      <trkpt lat="46.434474466368556" lon="8.442243654280901">
        <ele>2287.9000000000001</ele>
        <time>2020-02-23T13:13:15Z</time>
      </trkpt>
      <trkpt lat="46.4344463031739" lon="8.442244911566377">
        <ele>2287.0500000000002</ele>
        <time>2020-02-23T13:13:18Z</time>
      </trkpt>
      <trkpt lat="46.434310767799616" lon="8.442208617925644">
        <ele>2285.1999999999998</ele>
        <time>2020-02-23T13:13:32Z</time>
      </trkpt>
      <trkpt lat="46.434189397841692" lon="8.442150028422475">
        <ele>2285.54</ele>
        <time>2020-02-23T13:13:46Z</time>
      </trkpt>
      <trkpt lat="46.434098621830344" lon="8.442013738676906">
        <ele>2285.8499999999999</ele>
        <time>2020-02-23T13:14:00Z</time>
      </trkpt>
      <trkpt lat="46.434023687615991" lon="8.441862445324659">
        <ele>2285.3499999999999</ele>
        <time>2020-02-23T13:14:13Z</time>
      </trkpt>
      <trkpt lat="46.433921596035361" lon="8.441690197214484">
        <ele>2283.5900000000001</ele>
        <time>2020-02-23T13:14:29Z</time>
      </trkpt>
      <trkpt lat="46.433810451999307" lon="8.441505879163742">
        <ele>2282.1500000000001</ele>
        <time>2020-02-23T13:14:45Z</time>
      </trkpt>
      <trkpt lat="46.43370945006609" lon="8.441335642710328">
        <ele>2279.1700000000001</ele>
        <time>2020-02-23T13:15:00Z</time>
      </trkpt>
      <trkpt lat="46.433638455346227" lon="8.441214440390468">
        <ele>2276.1700000000001</ele>
        <time>2020-02-23T13:15:10Z</time>
      </trkpt>
      <trkpt lat="46.433535777032375" lon="8.441082006320357">
        <ele>2276.5</ele>
        <time>2020-02-23T13:15:24Z</time>
      </trkpt>
      <trkpt lat="46.433430835604668" lon="8.440985530614853">
        <ele>2277.6199999999999</ele>
        <time>2020-02-23T13:15:38Z</time>
      </trkpt>
      <trkpt lat="46.433311561122537" lon="8.440911015495658">
        <ele>2278.0900000000001</ele>
        <time>2020-02-23T13:15:52Z</time>
      </trkpt>
      <trkpt lat="46.433178791776299" lon="8.440820993855596">
        <ele>2277.75</ele>
        <time>2020-02-23T13:16:07Z</time>
      </trkpt>
      <trkpt lat="46.433070497587323" lon="8.440747316926718">
        <ele>2277.7800000000002</ele>
        <time>2020-02-23T13:16:20Z</time>
      </trkpt>
      <trkpt lat="46.432922054082155" lon="8.440621001645923">
        <ele>2276.4699999999998</ele>
        <time>2020-02-23T13:16:37Z</time>
      </trkpt>
      <trkpt lat="46.432795487344265" lon="8.44044347293675">
        <ele>2274.4400000000001</ele>
        <time>2020-02-23T13:16:54Z</time>
      </trkpt>
      <trkpt lat="46.43267210572958" lon="8.440256724134088">
        <ele>2272.02</ele>
        <time>2020-02-23T13:17:11Z</time>
      </trkpt>
      <trkpt lat="46.432564901188016" lon="8.440090678632259">
        <ele>2271.2399999999998</ele>
        <time>2020-02-23T13:17:26Z</time>
      </trkpt>
      <trkpt lat="46.432462306693196" lon="8.439931590110064">
        <ele>2270.7199999999998</ele>
        <time>2020-02-23T13:17:41Z</time>
      </trkpt>
      <trkpt lat="46.432326855137944" lon="8.439777279272676">
        <ele>2268.79</ele>
        <time>2020-02-23T13:17:57Z</time>
      </trkpt>
      <trkpt lat="46.432192493230104" lon="8.439633864909411">
        <ele>2268.1300000000001</ele>
        <time>2020-02-23T13:18:13Z</time>
      </trkpt>
      <trkpt lat="46.432089228183031" lon="8.43955029733479">
        <ele>2268.6700000000001</ele>
        <time>2020-02-23T13:18:26Z</time>
      </trkpt>
      <trkpt lat="46.431956794112921" lon="8.439509477466345">
        <ele>2268.0900000000001</ele>
        <time>2020-02-23T13:18:40Z</time>
      </trkpt>
      <trkpt lat="46.431806087493896" lon="8.43953906558454">
        <ele>2266.1500000000001</ele>
        <time>2020-02-23T13:18:55Z</time>
      </trkpt>
      <trkpt lat="46.431662170216441" lon="8.439560020342469">
        <ele>2264.8899999999999</ele>
        <time>2020-02-23T13:19:10Z</time>
      </trkpt>
      <trkpt lat="46.431582625955343" lon="8.439547950401902">
        <ele>2263.04</ele>
        <time>2020-02-23T13:19:20Z</time>
      </trkpt>
      <trkpt lat="46.431455053389072" lon="8.439453234896064">
        <ele>2259.6999999999998</ele>
        <time>2020-02-23T13:19:35Z</time>
      </trkpt>
      <trkpt lat="46.431365869939327" lon="8.439301354810596">
        <ele>2256.6500000000001</ele>
        <time>2020-02-23T13:19:49Z</time>
      </trkpt>
      <trkpt lat="46.431290600448847" lon="8.439088370651007">
        <ele>2254.3600000000001</ele>
        <time>2020-02-23T13:20:04Z</time>
      </trkpt>
      <trkpt lat="46.4312066975981" lon="8.438864909112454">
        <ele>2253.2399999999998</ele>
        <time>2020-02-23T13:20:20Z</time>
      </trkpt>
      <trkpt lat="46.431174091994762" lon="8.438770696520805">
        <ele>2253.0599999999999</ele>
        <time>2020-02-23T13:20:27Z</time>
      </trkpt>
      <trkpt lat="46.431106785312295" lon="8.438581097871065">
        <ele>2251.21</ele>
        <time>2020-02-23T13:20:41Z</time>
      </trkpt>
      <trkpt lat="46.431029001250863" lon="8.438372975215316">
        <ele>2249.5799999999999</ele>
        <time>2020-02-23T13:20:56Z</time>
      </trkpt>
      <trkpt lat="46.430973093956709" lon="8.438229477033019">
        <ele>2249.8099999999999</ele>
        <time>2020-02-23T13:21:09Z</time>
      </trkpt>
      <trkpt lat="46.430929256603122" lon="8.438113387674093">
        <ele>2250.6500000000001</ele>
        <time>2020-02-23T13:21:21Z</time>
      </trkpt>
      <trkpt lat="46.430919365957379" lon="8.438087990507484">
        <ele>2251.6100000000001</ele>
        <time>2020-02-23T13:21:30Z</time>
      </trkpt>
      <trkpt lat="46.430921042338014" lon="8.438082039356232">
        <ele>2250.3499999999999</ele>
        <time>2020-02-23T13:21:44Z</time>
      </trkpt>
      <trkpt lat="46.43091500736773" lon="8.438071813434362">
        <ele>2250.3699999999999</ele>
        <time>2020-02-23T13:22:25Z</time>
      </trkpt>
      <trkpt lat="46.430913582444191" lon="8.438070388510823">
        <ele>2251.2199999999998</ele>
        <time>2020-02-23T13:23:12Z</time>
      </trkpt>
      <trkpt lat="46.430913917720318" lon="8.438061587512493">
        <ele>2251.0999999999999</ele>
        <time>2020-02-23T13:24:04Z</time>
      </trkpt>
      <trkpt lat="46.430907463654876" lon="8.438057983294129">
        <ele>2251.1199999999999</ele>
        <time>2020-02-23T13:25:02Z</time>
      </trkpt>
      <trkpt lat="46.430906374007463" lon="8.43807022087276">
        <ele>2250.5</ele>
        <time>2020-02-23T13:25:46Z</time>
      </trkpt>
      <trkpt lat="46.430908301845193" lon="8.438070388510823">
        <ele>2250.5500000000002</ele>
        <time>2020-02-23T13:26:22Z</time>
      </trkpt>
      <trkpt lat="46.430917521938682" lon="8.438065694645047">
        <ele>2250.4400000000001</ele>
        <time>2020-02-23T13:27:08Z</time>
      </trkpt>
      <trkpt lat="46.430919198319316" lon="8.43806779012084">
        <ele>2250.2600000000002</ele>
        <time>2020-02-23T13:27:59Z</time>
      </trkpt>
      <trkpt lat="46.430931519716978" lon="8.438066616654396">
        <ele>2250.0300000000002</ele>
        <time>2020-02-23T13:28:14Z</time>
      </trkpt>
      <trkpt lat="46.430925820022821" lon="8.438058067113161">
        <ele>2249.5799999999999</ele>
        <time>2020-02-23T13:28:42Z</time>
      </trkpt>
      <trkpt lat="46.430918863043189" lon="8.438060414046049">
        <ele>2249.7399999999998</ele>
        <time>2020-02-23T13:29:24Z</time>
      </trkpt>
      <trkpt lat="46.430908804759383" lon="8.438066365197301">
        <ele>2250.1700000000001</ele>
        <time>2020-02-23T13:30:07Z</time>
      </trkpt>
      <trkpt lat="46.430908134207129" lon="8.438069298863411">
        <ele>2250.8200000000002</ele>
        <time>2020-02-23T13:30:50Z</time>
      </trkpt>
      <trkpt lat="46.430910984054208" lon="8.438063431531191">
        <ele>2250.9299999999998</ele>
        <time>2020-02-23T13:31:30Z</time>
      </trkpt>
      <trkpt lat="46.430920623242855" lon="8.438057983294129">
        <ele>2250.1700000000001</ele>
        <time>2020-02-23T13:32:03Z</time>
      </trkpt>
      <trkpt lat="46.430912241339684" lon="8.438060833141208">
        <ele>2250.6199999999999</ele>
        <time>2020-02-23T13:32:42Z</time>
      </trkpt>
      <trkpt lat="46.430908720940351" lon="8.438064185902476">
        <ele>2250.7800000000002</ele>
        <time>2020-02-23T13:33:18Z</time>
      </trkpt>
      <trkpt lat="46.430909475311637" lon="8.43807122670114">
        <ele>2251.0599999999999</ele>
        <time>2020-02-23T13:33:48Z</time>
      </trkpt>
      <trkpt lat="46.430902434512973" lon="8.438079357147217">
        <ele>2253.4299999999998</ele>
        <time>2020-02-23T13:33:55Z</time>
      </trkpt>
      <trkpt lat="46.430900674313307" lon="8.438067454844713">
        <ele>2251.5999999999999</ele>
        <time>2020-02-23T13:33:59Z</time>
      </trkpt>
      <trkpt lat="46.430911822244525" lon="8.438054798170924">
        <ele>2252.2199999999998</ele>
        <time>2020-02-23T13:34:15Z</time>
      </trkpt>
      <trkpt lat="46.430916264653206" lon="8.438059659674764">
        <ele>2252.4000000000001</ele>
        <time>2020-02-23T13:34:28Z</time>
      </trkpt>
      <trkpt lat="46.430925652384758" lon="8.438064940273762">
        <ele>2251.8299999999999</ele>
        <time>2020-02-23T13:34:44Z</time>
      </trkpt>
      <trkpt lat="46.430905368179083" lon="8.438012385740876">
        <ele>2251.04</ele>
        <time>2020-02-23T13:34:55Z</time>
      </trkpt>
      <trkpt lat="46.430898243561387" lon="8.438010709360242">
        <ele>2250.9899999999998</ele>
        <time>2020-02-23T13:34:56Z</time>
      </trkpt>
      <trkpt lat="46.430850885808468" lon="8.437978941947222">
        <ele>2250.6900000000001</ele>
        <time>2020-02-23T13:35:02Z</time>
      </trkpt>
      <trkpt lat="46.430729264393449" lon="8.437788840383291">
        <ele>2247.98</ele>
        <time>2020-02-23T13:35:19Z</time>
      </trkpt>
      <trkpt lat="46.430631028488278" lon="8.437602678313851">
        <ele>2246.79</ele>
        <time>2020-02-23T13:35:35Z</time>
      </trkpt>
      <trkpt lat="46.430560536682606" lon="8.437457755208015">
        <ele>2246.6700000000001</ele>
        <time>2020-02-23T13:35:48Z</time>
      </trkpt>
      <trkpt lat="46.43046104349196" lon="8.43727670609951">
        <ele>2245.2600000000002</ele>
        <time>2020-02-23T13:36:03Z</time>
      </trkpt>
      <trkpt lat="46.430365992709994" lon="8.437074199318886">
        <ele>2243.6700000000001</ele>
        <time>2020-02-23T13:36:19Z</time>
      </trkpt>
      <trkpt lat="46.430266164243221" lon="8.436874123290181">
        <ele>2242.6199999999999</ele>
        <time>2020-02-23T13:36:35Z</time>
      </trkpt>
      <trkpt lat="46.430164743214846" lon="8.436685781925917">
        <ele>2241.8800000000001</ele>
        <time>2020-02-23T13:36:51Z</time>
      </trkpt>
      <trkpt lat="46.430071368813515" lon="8.436515461653471">
        <ele>2241.2199999999998</ele>
        <time>2020-02-23T13:37:06Z</time>
      </trkpt>
      <trkpt lat="46.429982269182801" lon="8.436361318454146">
        <ele>2240.79</ele>
        <time>2020-02-23T13:37:20Z</time>
      </trkpt>
      <trkpt lat="46.429902892559767" lon="8.436208013445139">
        <ele>2240.27</ele>
        <time>2020-02-23T13:37:33Z</time>
      </trkpt>
      <trkpt lat="46.429809266701341" lon="8.43602679669857">
        <ele>2239.6599999999999</ele>
        <time>2020-02-23T13:37:48Z</time>
      </trkpt>
      <trkpt lat="46.429714551195502" lon="8.435813896358013">
        <ele>2237.8600000000001</ele>
        <time>2020-02-23T13:38:04Z</time>
      </trkpt>
      <trkpt lat="46.429631067439914" lon="8.435603175312281">
        <ele>2236.1999999999998</ele>
        <time>2020-02-23T13:38:19Z</time>
      </trkpt>
      <trkpt lat="46.429553870111704" lon="8.435386922210455">
        <ele>2234.6799999999998</ele>
        <time>2020-02-23T13:38:34Z</time>
      </trkpt>
      <trkpt lat="46.429493185132742" lon="8.435167903080583">
        <ele>2232.6199999999999</ele>
        <time>2020-02-23T13:38:48Z</time>
      </trkpt>
      <trkpt lat="46.429449263960123" lon="8.434939077124">
        <ele>2231</ele>
        <time>2020-02-23T13:39:03Z</time>
      </trkpt>
      <trkpt lat="46.429429817944765" lon="8.434687871485949">
        <ele>2230.0799999999999</ele>
        <time>2020-02-23T13:39:21Z</time>
      </trkpt>
      <trkpt lat="46.429430739954114" lon="8.434485951438546">
        <ele>2228.3800000000001</ele>
        <time>2020-02-23T13:39:35Z</time>
      </trkpt>
      <trkpt lat="46.429398469626904" lon="8.43424673192203">
        <ele>2225.98</ele>
        <time>2020-02-23T13:39:51Z</time>
      </trkpt>
      <trkpt lat="46.42935823649168" lon="8.434034921228886">
        <ele>2224.2399999999998</ele>
        <time>2020-02-23T13:40:05Z</time>
      </trkpt>
      <trkpt lat="46.429322361946106" lon="8.433832414448261">
        <ele>2223.3699999999999</ele>
        <time>2020-02-23T13:40:19Z</time>
      </trkpt>
      <trkpt lat="46.42934113740921" lon="8.433643151074648">
        <ele>2222.7800000000002</ele>
        <time>2020-02-23T13:40:33Z</time>
      </trkpt>
      <trkpt lat="46.429395116865635" lon="8.433518009260297">
        <ele>2222.6500000000001</ele>
        <time>2020-02-23T13:40:46Z</time>
      </trkpt>
      <trkpt lat="46.429472398012877" lon="8.43333151191473">
        <ele>2222.1100000000001</ele>
        <time>2020-02-23T13:41:00Z</time>
      </trkpt>
      <trkpt lat="46.429561832919717" lon="8.433131603524089">
        <ele>2221.9200000000001</ele>
        <time>2020-02-23T13:41:16Z</time>
      </trkpt>
      <trkpt lat="46.429652189835906" lon="8.432940663769841">
        <ele>2222.2199999999998</ele>
        <time>2020-02-23T13:41:32Z</time>
      </trkpt>
      <trkpt lat="46.429763585329056" lon="8.432862460613251">
        <ele>2222.5999999999999</ele>
        <time>2020-02-23T13:41:45Z</time>
      </trkpt>
      <trkpt lat="46.429852517321706" lon="8.4327925555408">
        <ele>2223.48</ele>
        <time>2020-02-23T13:41:57Z</time>
      </trkpt>
      <trkpt lat="46.429913202300668" lon="8.432734720408917">
        <ele>2224.9200000000001</ele>
        <time>2020-02-23T13:42:09Z</time>
      </trkpt>
      <trkpt lat="46.429975731298327" lon="8.432719297707081">
        <ele>2225.8299999999999</ele>
        <time>2020-02-23T13:42:19Z</time>
      </trkpt>
      <trkpt lat="46.430080002173781" lon="8.432696834206581">
        <ele>2226.73</ele>
        <time>2020-02-23T13:42:33Z</time>
      </trkpt>
      <trkpt lat="46.430150745436549" lon="8.432707814499736">
        <ele>2226.54</ele>
        <time>2020-02-23T13:42:41Z</time>
      </trkpt>
      <trkpt lat="46.430323077365756" lon="8.432762464508414">
        <ele>2223.8099999999999</ele>
        <time>2020-02-23T13:42:58Z</time>
      </trkpt>
      <trkpt lat="46.430453583598137" lon="8.432816946879029">
        <ele>2220.75</ele>
        <time>2020-02-23T13:43:11Z</time>
      </trkpt>
      <trkpt lat="46.430552322417498" lon="8.432849049568176">
        <ele>2218.4499999999998</ele>
        <time>2020-02-23T13:43:21Z</time>
      </trkpt>
      <trkpt lat="46.430673273280263" lon="8.432731200009584">
        <ele>2216.8800000000001</ele>
        <time>2020-02-23T13:43:35Z</time>
      </trkpt>
      <trkpt lat="46.430792966857553" lon="8.432639921084046">
        <ele>2216.23</ele>
        <time>2020-02-23T13:43:48Z</time>
      </trkpt>
      <trkpt lat="46.430911654606462" lon="8.432587198913097">
        <ele>2216.8499999999999</ele>
        <time>2020-02-23T13:44:02Z</time>
      </trkpt>
      <trkpt lat="46.431013243272901" lon="8.432526933029294">
        <ele>2215.1100000000001</ele>
        <time>2020-02-23T13:44:15Z</time>
      </trkpt>
      <trkpt lat="46.431086417287588" lon="8.432522490620613">
        <ele>2212.0999999999999</ele>
        <time>2020-02-23T13:44:24Z</time>
      </trkpt>
      <trkpt lat="46.431096224114299" lon="8.432518299669027">
        <ele>2211.7199999999998</ele>
        <time>2020-02-23T13:44:25Z</time>
      </trkpt>
      <trkpt lat="46.431198567152023" lon="8.432433223351836">
        <ele>2208.54</ele>
        <time>2020-02-23T13:44:37Z</time>
      </trkpt>
      <trkpt lat="46.431206865236163" lon="8.432429367676377">
        <ele>2208.1900000000001</ele>
        <time>2020-02-23T13:44:38Z</time>
      </trkpt>
      <trkpt lat="46.431234693154693" lon="8.432420399039984">
        <ele>2207.5799999999999</ele>
        <time>2020-02-23T13:44:41Z</time>
      </trkpt>
      <trkpt lat="46.431349273771048" lon="8.432358875870705">
        <ele>2204.0300000000002</ele>
        <time>2020-02-23T13:44:54Z</time>
      </trkpt>
      <trkpt lat="46.431379532441497" lon="8.432338926941156">
        <ele>2203.3000000000002</ele>
        <time>2020-02-23T13:44:58Z</time>
      </trkpt>
      <trkpt lat="46.431479947641492" lon="8.432263070717454">
        <ele>2200.1799999999998</ele>
        <time>2020-02-23T13:45:11Z</time>
      </trkpt>
      <trkpt lat="46.431505512446165" lon="8.432253347709775">
        <ele>2199.3200000000002</ele>
        <time>2020-02-23T13:45:14Z</time>
      </trkpt>
      <trkpt lat="46.431609783321619" lon="8.43220422975719">
        <ele>2195.7199999999998</ele>
        <time>2020-02-23T13:45:26Z</time>
      </trkpt>
      <trkpt lat="46.431708605960011" lon="8.432138347998262">
        <ele>2192.4099999999999</ele>
        <time>2020-02-23T13:45:38Z</time>
      </trkpt>
      <trkpt lat="46.431792424991727" lon="8.432052182033658">
        <ele>2189.2399999999998</ele>
        <time>2020-02-23T13:45:50Z</time>
      </trkpt>
      <trkpt lat="46.431881273165345" lon="8.431993341073394">
        <ele>2186.1199999999999</ele>
        <time>2020-02-23T13:46:01Z</time>
      </trkpt>
      <trkpt lat="46.431912453845143" lon="8.431964758783579">
        <ele>2184.9000000000001</ele>
        <time>2020-02-23T13:46:05Z</time>
      </trkpt>
      <trkpt lat="46.431999877095222" lon="8.431861996650696">
        <ele>2181.5300000000002</ele>
        <time>2020-02-23T13:46:17Z</time>
      </trkpt>
      <trkpt lat="46.432097777724266" lon="8.431773399934173">
        <ele>2178.3200000000002</ele>
        <time>2020-02-23T13:46:29Z</time>
      </trkpt>
      <trkpt lat="46.432176316156983" lon="8.431672649458051">
        <ele>2175.2800000000002</ele>
        <time>2020-02-23T13:46:40Z</time>
      </trkpt>
      <trkpt lat="46.432221326977015" lon="8.4316061809659">
        <ele>2173.21</ele>
        <time>2020-02-23T13:46:50Z</time>
      </trkpt>
      <trkpt lat="46.43228754401207" lon="8.431501155719161">
        <ele>2169.8600000000001</ele>
        <time>2020-02-23T13:47:01Z</time>
      </trkpt>
      <trkpt lat="46.432371195405722" lon="8.431358495727181">
        <ele>2166.8099999999999</ele>
        <time>2020-02-23T13:47:14Z</time>
      </trkpt>
      <trkpt lat="46.432398520410061" lon="8.431275766342878">
        <ele>2166.1999999999998</ele>
        <time>2020-02-23T13:47:21Z</time>
      </trkpt>
      <trkpt lat="46.432412937283516" lon="8.431176189333201">
        <ele>2165.77</ele>
        <time>2020-02-23T13:47:34Z</time>
      </trkpt>
      <trkpt lat="46.432422073557973" lon="8.431181218475103">
        <ele>2164.8099999999999</ele>
        <time>2020-02-23T13:47:54Z</time>
      </trkpt>
      <trkpt lat="46.432424169033766" lon="8.431179542094469">
        <ele>2164.8099999999999</ele>
        <time>2020-02-23T13:48:12Z</time>
      </trkpt>
      <trkpt lat="46.432425091043115" lon="8.431164789944887">
        <ele>2165.1399999999999</ele>
        <time>2020-02-23T13:48:31Z</time>
      </trkpt>
      <trkpt lat="46.432429617270827" lon="8.431145260110498">
        <ele>2164.9899999999998</ele>
        <time>2020-02-23T13:48:36Z</time>
      </trkpt>
      <trkpt lat="46.432435736060143" lon="8.431102009490132">
        <ele>2164.5799999999999</ele>
        <time>2020-02-23T13:48:39Z</time>
      </trkpt>
      <trkpt lat="46.43242827616632" lon="8.430814761668444">
        <ele>2162.3299999999999</ele>
        <time>2020-02-23T13:48:57Z</time>
      </trkpt>
      <trkpt lat="46.43242534250021" lon="8.430636562407017">
        <ele>2159.2399999999998</ele>
        <time>2020-02-23T13:49:08Z</time>
      </trkpt>
      <trkpt lat="46.432418553158641" lon="8.43039482831955">
        <ele>2156.6500000000001</ele>
        <time>2020-02-23T13:49:23Z</time>
      </trkpt>
      <trkpt lat="46.432327777147293" lon="8.430199362337589">
        <ele>2155.6599999999999</ele>
        <time>2020-02-23T13:49:38Z</time>
      </trkpt>
      <trkpt lat="46.432217638939619" lon="8.430035077035427">
        <ele>2155.1900000000001</ele>
        <time>2020-02-23T13:49:52Z</time>
      </trkpt>
      <trkpt lat="46.432104986160994" lon="8.429860230535269">
        <ele>2154.6799999999998</ele>
        <time>2020-02-23T13:50:07Z</time>
      </trkpt>
      <trkpt lat="46.43199635669589" lon="8.429691586643457">
        <ele>2154.3699999999999</ele>
        <time>2020-02-23T13:50:22Z</time>
      </trkpt>
      <trkpt lat="46.431869538500905" lon="8.42952461913228">
        <ele>2153.73</ele>
        <time>2020-02-23T13:50:37Z</time>
      </trkpt>
      <trkpt lat="46.431804914027452" lon="8.429310880601406">
        <ele>2153.6199999999999</ele>
        <time>2020-02-23T13:50:52Z</time>
      </trkpt>
      <trkpt lat="46.431750515475869" lon="8.429126478731632">
        <ele>2153.2199999999998</ele>
        <time>2020-02-23T13:51:05Z</time>
      </trkpt>
      <trkpt lat="46.431702738627791" lon="8.428939562290907">
        <ele>2152.8899999999999</ele>
        <time>2020-02-23T13:51:18Z</time>
      </trkpt>
      <trkpt lat="46.431606682017446" lon="8.428694643080235">
        <ele>2151.8899999999999</ele>
        <time>2020-02-23T13:51:36Z</time>
      </trkpt>
      <trkpt lat="46.431504506617785" lon="8.428507810458541">
        <ele>2149.8400000000001</ele>
        <time>2020-02-23T13:51:51Z</time>
      </trkpt>
      <trkpt lat="46.431397804990411" lon="8.428299352526665">
        <ele>2147.8600000000001</ele>
        <time>2020-02-23T13:52:07Z</time>
      </trkpt>
      <trkpt lat="46.431302167475224" lon="8.428077064454556">
        <ele>2146.8000000000002</ele>
        <time>2020-02-23T13:52:23Z</time>
      </trkpt>
      <trkpt lat="46.431183228269219" lon="8.427908672019839">
        <ele>2145.9299999999998</ele>
        <time>2020-02-23T13:52:38Z</time>
      </trkpt>
      <trkpt lat="46.4311583340168" lon="8.427891489118338">
        <ele>2145.6599999999999</ele>
        <time>2020-02-23T13:52:41Z</time>
      </trkpt>
      <trkpt lat="46.431130422279239" lon="8.427878329530358">
        <ele>2145.1399999999999</ele>
        <time>2020-02-23T13:52:44Z</time>
      </trkpt>
      <trkpt lat="46.430942500010133" lon="8.427810184657574">
        <ele>2142.6599999999999</ele>
        <time>2020-02-23T13:53:00Z</time>
      </trkpt>
      <trkpt lat="46.430827081203461" lon="8.427742961794138">
        <ele>2142.5900000000001</ele>
        <time>2020-02-23T13:53:10Z</time>
      </trkpt>
      <trkpt lat="46.430673273280263" lon="8.42762871645391">
        <ele>2141.6199999999999</ele>
        <time>2020-02-23T13:53:24Z</time>
      </trkpt>
      <trkpt lat="46.430516028776765" lon="8.427458396181464">
        <ele>2140.0300000000002</ele>
        <time>2020-02-23T13:53:41Z</time>
      </trkpt>
      <trkpt lat="46.430516196414828" lon="8.427458060905337">
        <ele>2139.6900000000001</ele>
        <time>2020-02-23T13:53:45Z</time>
      </trkpt>
      <trkpt lat="46.430421061813831" lon="8.427339792251587">
        <ele>2139.3299999999999</ele>
        <time>2020-02-23T13:53:58Z</time>
      </trkpt>
      <trkpt lat="46.430320981889963" lon="8.427178105339408">
        <ele>2138.9099999999999</ele>
        <time>2020-02-23T13:54:11Z</time>
      </trkpt>
      <trkpt lat="46.43024118617177" lon="8.426976352930069">
        <ele>2138.1700000000001</ele>
        <time>2020-02-23T13:54:25Z</time>
      </trkpt>
      <trkpt lat="46.430155774578452" lon="8.426778456196189">
        <ele>2138.3899999999999</ele>
        <time>2020-02-23T13:54:40Z</time>
      </trkpt>
      <trkpt lat="46.430070614442229" lon="8.426536554470658">
        <ele>2137.8099999999999</ele>
        <time>2020-02-23T13:54:57Z</time>
      </trkpt>
      <trkpt lat="46.429994171485305" lon="8.426334969699383">
        <ele>2137.0900000000001</ele>
        <time>2020-02-23T13:55:11Z</time>
      </trkpt>
      <trkpt lat="46.429901970550418" lon="8.426168253645301">
        <ele>2136.7600000000002</ele>
        <time>2020-02-23T13:55:24Z</time>
      </trkpt>
      <trkpt lat="46.429789988324046" lon="8.425986533984542">
        <ele>2136.0599999999999</ele>
        <time>2020-02-23T13:55:39Z</time>
      </trkpt>
      <trkpt lat="46.429671552032232" lon="8.425758630037308">
        <ele>2134.8899999999999</ele>
        <time>2020-02-23T13:55:57Z</time>
      </trkpt>
      <trkpt lat="46.429588822647929" lon="8.425567941740155">
        <ele>2134.75</ele>
        <time>2020-02-23T13:56:11Z</time>
      </trkpt>
      <trkpt lat="46.4294901676476" lon="8.425378343090415">
        <ele>2134.02</ele>
        <time>2020-02-23T13:56:26Z</time>
      </trkpt>
      <trkpt lat="46.429384974762797" lon="8.425202406942844">
        <ele>2131.96</ele>
        <time>2020-02-23T13:56:40Z</time>
      </trkpt>
      <trkpt lat="46.429263269528747" lon="8.42498866841197">
        <ele>2129.8200000000002</ele>
        <time>2020-02-23T13:56:57Z</time>
      </trkpt>
      <trkpt lat="46.429207613691688" lon="8.424766128882766">
        <ele>2128.4499999999998</ele>
        <time>2020-02-23T13:57:13Z</time>
      </trkpt>
      <trkpt lat="46.429218174889684" lon="8.424696139991283">
        <ele>2128.1999999999998</ele>
        <time>2020-02-23T13:57:24Z</time>
      </trkpt>
      <trkpt lat="46.429221360012889" lon="8.424684321507812">
        <ele>2127.8800000000001</ele>
        <time>2020-02-23T13:57:25Z</time>
      </trkpt>
      <trkpt lat="46.42932697199285" lon="8.424475779756904">
        <ele>2126.98</ele>
        <time>2020-02-23T13:57:42Z</time>
      </trkpt>
      <trkpt lat="46.429385310038924" lon="8.424243433400989">
        <ele>2125.8299999999999</ele>
        <time>2020-02-23T13:57:58Z</time>
      </trkpt>
      <trkpt lat="46.429374581202865" lon="8.424000274389982">
        <ele>2124.4200000000001</ele>
        <time>2020-02-23T13:58:14Z</time>
      </trkpt>
      <trkpt lat="46.429332252591848" lon="8.423775639384985">
        <ele>2122.8099999999999</ele>
        <time>2020-02-23T13:58:30Z</time>
      </trkpt>
      <trkpt lat="46.429269975051284" lon="8.423551842570305">
        <ele>2121.46</ele>
        <time>2020-02-23T13:58:46Z</time>
      </trkpt>
      <trkpt lat="46.429274836555123" lon="8.423323938623071">
        <ele>2119.8299999999999</ele>
        <time>2020-02-23T13:59:02Z</time>
      </trkpt>
      <trkpt lat="46.42929227091372" lon="8.423299295827746">
        <ele>2120.1399999999999</ele>
        <time>2020-02-23T13:59:13Z</time>
      </trkpt>
      <trkpt lat="46.429300652816892" lon="8.423294518142939">
        <ele>2118.7800000000002</ele>
        <time>2020-02-23T13:59:23Z</time>
      </trkpt>
      <trkpt lat="46.429299563169479" lon="8.4232965297997">
        <ele>2118.8000000000002</ele>
        <time>2020-02-23T13:59:54Z</time>
      </trkpt>
      <trkpt lat="46.429304173216224" lon="8.423286722972989">
        <ele>2119.8299999999999</ele>
        <time>2020-02-23T14:00:03Z</time>
      </trkpt>
      <trkpt lat="46.429305179044604" lon="8.42328286729753">
        <ele>2119.8699999999999</ele>
        <time>2020-02-23T14:00:21Z</time>
      </trkpt>
      <trkpt lat="46.429278021678329" lon="8.423245484009385">
        <ele>2120.48</ele>
        <time>2020-02-23T14:00:32Z</time>
      </trkpt>
      <trkpt lat="46.429273663088679" lon="8.423232659697533">
        <ele>2120.9400000000001</ele>
        <time>2020-02-23T14:00:45Z</time>
      </trkpt>
      <trkpt lat="46.429267879575491" lon="8.423221260309219">
        <ele>2120.52</ele>
        <time>2020-02-23T14:01:13Z</time>
      </trkpt>
      <trkpt lat="46.42927173525095" lon="8.423184379935265">
        <ele>2121.1100000000001</ele>
        <time>2020-02-23T14:01:26Z</time>
      </trkpt>
      <trkpt lat="46.429247930645943" lon="8.423154288902879">
        <ele>2119.8600000000001</ele>
        <time>2020-02-23T14:01:30Z</time>
      </trkpt>
      <trkpt lat="46.429212978109717" lon="8.423103829845786">
        <ele>2117.79</ele>
        <time>2020-02-23T14:01:35Z</time>
      </trkpt>
      <trkpt lat="46.429116502404213" lon="8.422972150146961">
        <ele>2114.3600000000001</ele>
        <time>2020-02-23T14:01:47Z</time>
      </trkpt>
      <trkpt lat="46.42909336835146" lon="8.422942478209734">
        <ele>2113.4299999999998</ele>
        <time>2020-02-23T14:01:50Z</time>
      </trkpt>
      <trkpt lat="46.429038802161813" lon="8.422844661399722">
        <ele>2109.9099999999999</ele>
        <time>2020-02-23T14:01:59Z</time>
      </trkpt>
      <trkpt lat="46.428984487429261" lon="8.422787413001061">
        <ele>2107.5300000000002</ele>
        <time>2020-02-23T14:02:06Z</time>
      </trkpt>
      <trkpt lat="46.428918438032269" lon="8.422747850418091">
        <ele>2104.3299999999999</ele>
        <time>2020-02-23T14:02:13Z</time>
      </trkpt>
      <trkpt lat="46.428850376978517" lon="8.422709796577692">
        <ele>2101.0799999999999</ele>
        <time>2020-02-23T14:02:20Z</time>
      </trkpt>
      <trkpt lat="46.428780891001225" lon="8.422669731080532">
        <ele>2099.25</ele>
        <time>2020-02-23T14:02:27Z</time>
      </trkpt>
      <trkpt lat="46.42875675112009" lon="8.422621786594391">
        <ele>2098.1900000000001</ele>
        <time>2020-02-23T14:02:38Z</time>
      </trkpt>
      <trkpt lat="46.428753398358822" lon="8.42260217294097">
        <ele>2098.4200000000001</ele>
        <time>2020-02-23T14:02:46Z</time>
      </trkpt>
      <trkpt lat="46.428741160780191" lon="8.422565292567015">
        <ele>2097.8699999999999</ele>
        <time>2020-02-23T14:02:49Z</time>
      </trkpt>
      <trkpt lat="46.428715344518423" lon="8.422327246516943">
        <ele>2096.8899999999999</ele>
        <time>2020-02-23T14:03:04Z</time>
      </trkpt>
      <trkpt lat="46.428711153566837" lon="8.422116190195084">
        <ele>2093.98</ele>
        <time>2020-02-23T14:03:17Z</time>
      </trkpt>
      <trkpt lat="46.428675446659327" lon="8.422011751681566">
        <ele>2092.1900000000001</ele>
        <time>2020-02-23T14:03:25Z</time>
      </trkpt>
      <trkpt lat="46.428618868812919" lon="8.422057349234819">
        <ele>2090.3699999999999</ele>
        <time>2020-02-23T14:03:32Z</time>
      </trkpt>
      <trkpt lat="46.428592633455992" lon="8.422322301194072">
        <ele>2088.6900000000001</ele>
        <time>2020-02-23T14:03:49Z</time>
      </trkpt>
      <trkpt lat="46.42856421880424" lon="8.422567807137966">
        <ele>2086.0999999999999</ele>
        <time>2020-02-23T14:04:05Z</time>
      </trkpt>
      <trkpt lat="46.428556004539132" lon="8.42278984375298">
        <ele>2084.3499999999999</ele>
        <time>2020-02-23T14:04:20Z</time>
      </trkpt>
      <trkpt lat="46.428612666204572" lon="8.423027219250798">
        <ele>2082.9200000000001</ele>
        <time>2020-02-23T14:04:35Z</time>
      </trkpt>
      <trkpt lat="46.42869078554213" lon="8.423257134854794">
        <ele>2079.6500000000001</ele>
        <time>2020-02-23T14:04:50Z</time>
      </trkpt>
      <trkpt lat="46.428739232942462" lon="8.423504149541259">
        <ele>2078.1300000000001</ele>
        <time>2020-02-23T14:05:05Z</time>
      </trkpt>
      <trkpt lat="46.428734706714749" lon="8.423753594979644">
        <ele>2076.1399999999999</ele>
        <time>2020-02-23T14:05:20Z</time>
      </trkpt>
      <trkpt lat="46.428688773885369" lon="8.423966411501169">
        <ele>2073.71</ele>
        <time>2020-02-23T14:05:33Z</time>
      </trkpt>
      <trkpt lat="46.428651558235288" lon="8.424066156148911">
        <ele>2072.7800000000002</ele>
        <time>2020-02-23T14:05:40Z</time>
      </trkpt>
      <trkpt lat="46.428560363128781" lon="8.42416531406343">
        <ele>2071.4899999999998</ele>
        <time>2020-02-23T14:05:52Z</time>
      </trkpt>
      <trkpt lat="46.428503366187215" lon="8.424192471429706">
        <ele>2070.5700000000002</ele>
        <time>2020-02-23T14:06:02Z</time>
      </trkpt>
      <trkpt lat="46.42836238257587" lon="8.424237733706832">
        <ele>2069.8899999999999</ele>
        <time>2020-02-23T14:06:17Z</time>
      </trkpt>
      <trkpt lat="46.428231205791235" lon="8.424261538311839">
        <ele>2066.5900000000001</ele>
        <time>2020-02-23T14:06:31Z</time>
      </trkpt>
      <trkpt lat="46.428127437829971" lon="8.424272770062089">
        <ele>2064</ele>
        <time>2020-02-23T14:06:42Z</time>
      </trkpt>
      <trkpt lat="46.428003385663033" lon="8.424295820295811">
        <ele>2061</ele>
        <time>2020-02-23T14:06:56Z</time>
      </trkpt>
      <trkpt lat="46.427897606045008" lon="8.424316942691803">
        <ele>2057.8499999999999</ele>
        <time>2020-02-23T14:07:09Z</time>
      </trkpt>
      <trkpt lat="46.427819319069386" lon="8.424321217462421">
        <ele>2054.6199999999999</ele>
        <time>2020-02-23T14:07:19Z</time>
      </trkpt>
      <trkpt lat="46.427747486159205" lon="8.424318870529532">
        <ele>2051.3099999999999</ele>
        <time>2020-02-23T14:07:28Z</time>
      </trkpt>
      <trkpt lat="46.42773893661797" lon="8.42431778088212">
        <ele>2051.0300000000002</ele>
        <time>2020-02-23T14:07:29Z</time>
      </trkpt>
      <trkpt lat="46.427657967433333" lon="8.424290288239718">
        <ele>2047.6600000000001</ele>
        <time>2020-02-23T14:07:39Z</time>
      </trkpt>
      <trkpt lat="46.427629888057709" lon="8.424299005419016">
        <ele>2046.53</ele>
        <time>2020-02-23T14:07:43Z</time>
      </trkpt>
      <trkpt lat="46.427532071247697" lon="8.424320379272103">
        <ele>2043.4000000000001</ele>
        <time>2020-02-23T14:07:54Z</time>
      </trkpt>
      <trkpt lat="46.427513044327497" lon="8.424324402585626">
        <ele>2042.9200000000001</ele>
        <time>2020-02-23T14:07:56Z</time>
      </trkpt>
      <trkpt lat="46.427476583048701" lon="8.424338484182954">
        <ele>2042.1900000000001</ele>
        <time>2020-02-23T14:08:03Z</time>
      </trkpt>
      <trkpt lat="46.427447497844696" lon="8.424343261867762">
        <ele>2041.95</ele>
        <time>2020-02-23T14:08:06Z</time>
      </trkpt>
      <trkpt lat="46.427312549203634" lon="8.424328928813338">
        <ele>2040.04</ele>
        <time>2020-02-23T14:08:19Z</time>
      </trkpt>
      <trkpt lat="46.427192017436028" lon="8.424315266311169">
        <ele>2037.77</ele>
        <time>2020-02-23T14:08:32Z</time>
      </trkpt>
      <trkpt lat="46.427096966654062" lon="8.42424008063972">
        <ele>2034.45</ele>
        <time>2020-02-23T14:08:44Z</time>
      </trkpt>
      <trkpt lat="46.427056984975934" lon="8.424200182780623">
        <ele>2033.9200000000001</ele>
        <time>2020-02-23T14:08:54Z</time>
      </trkpt>
      <trkpt lat="46.427043909206986" lon="8.424242427572608">
        <ele>2032.77</ele>
        <time>2020-02-23T14:09:02Z</time>
      </trkpt>
      <trkpt lat="46.42703527584672" lon="8.424279810860753">
        <ele>2032.5599999999999</ele>
        <time>2020-02-23T14:09:05Z</time>
      </trkpt>
      <trkpt lat="46.427008705213666" lon="8.424462955445051">
        <ele>2031.8399999999999</ele>
        <time>2020-02-23T14:09:19Z</time>
      </trkpt>
      <trkpt lat="46.427007615566254" lon="8.424487933516502">
        <ele>2031.1500000000001</ele>
        <time>2020-02-23T14:09:28Z</time>
      </trkpt>
      <trkpt lat="46.427015913650393" lon="8.424494890496135">
        <ele>2031.6199999999999</ele>
        <time>2020-02-23T14:09:46Z</time>
      </trkpt>
      <trkpt lat="46.427015075460076" lon="8.42450151219964">
        <ele>2031.45</ele>
        <time>2020-02-23T14:09:52Z</time>
      </trkpt>
      <trkpt lat="46.427011387422681" lon="8.424554402008653">
        <ele>2030.48</ele>
        <time>2020-02-23T14:09:56Z</time>
      </trkpt>
      <trkpt lat="46.426968974992633" lon="8.42473553493619">
        <ele>2028.55</ele>
        <time>2020-02-23T14:10:09Z</time>
      </trkpt>
      <trkpt lat="46.426969142630696" lon="8.424733439460397">
        <ele>2028.46</ele>
        <time>2020-02-23T14:10:24Z</time>
      </trkpt>
      <trkpt lat="46.426958497613668" lon="8.424722878262401">
        <ele>2027.6199999999999</ele>
        <time>2020-02-23T14:10:43Z</time>
      </trkpt>
      <trkpt lat="46.426957324147224" lon="8.424713239073753">
        <ele>2029.04</ele>
        <time>2020-02-23T14:10:55Z</time>
      </trkpt>
      <trkpt lat="46.426924215629697" lon="8.424737462773919">
        <ele>2028.47</ele>
        <time>2020-02-23T14:10:59Z</time>
      </trkpt>
      <trkpt lat="46.426776526495814" lon="8.424903340637684">
        <ele>2026.45</ele>
        <time>2020-02-23T14:11:15Z</time>
      </trkpt>
      <trkpt lat="46.426674267277122" lon="8.425016244873405">
        <ele>2024.51</ele>
        <time>2020-02-23T14:11:31Z</time>
      </trkpt>
      <trkpt lat="46.426653899252415" lon="8.425009874626994">
        <ele>2024.3099999999999</ele>
        <time>2020-02-23T14:11:43Z</time>
      </trkpt>
      <trkpt lat="46.426653228700161" lon="8.424937622621656">
        <ele>2021.8599999999999</ele>
        <time>2020-02-23T14:11:54Z</time>
      </trkpt>
      <trkpt lat="46.426661778241396" lon="8.424853971228004">
        <ele>2020</ele>
        <time>2020-02-23T14:12:05Z</time>
      </trkpt>
      <trkpt lat="46.426641829311848" lon="8.424806362017989">
        <ele>2017.8599999999999</ele>
        <time>2020-02-23T14:12:17Z</time>
      </trkpt>
      <trkpt lat="46.426595225930214" lon="8.424814157187939">
        <ele>2016.1300000000001</ele>
        <time>2020-02-23T14:12:25Z</time>
      </trkpt>
      <trkpt lat="46.426550298929214" lon="8.424802422523499">
        <ele>2014.3099999999999</ele>
        <time>2020-02-23T14:12:33Z</time>
      </trkpt>
      <trkpt lat="46.426546946167946" lon="8.424676945433021">
        <ele>2011.05</ele>
        <time>2020-02-23T14:12:44Z</time>
      </trkpt>
      <trkpt lat="46.426541581749916" lon="8.424646183848381">
        <ele>2010.1900000000001</ele>
        <time>2020-02-23T14:12:49Z</time>
      </trkpt>
      <trkpt lat="46.426472263410687" lon="8.424648446962237">
        <ele>2007.5699999999999</ele>
        <time>2020-02-23T14:13:02Z</time>
      </trkpt>
      <trkpt lat="46.426419708877802" lon="8.42460067011416">
        <ele>2004.8</ele>
        <time>2020-02-23T14:13:12Z</time>
      </trkpt>
      <trkpt lat="46.426381152123213" lon="8.424553815275431">
        <ele>2001.72</ele>
        <time>2020-02-23T14:13:19Z</time>
      </trkpt>
      <trkpt lat="46.426328932866454" lon="8.424511235207319">
        <ele>1998.6500000000001</ele>
        <time>2020-02-23T14:13:28Z</time>
      </trkpt>
      <trkpt lat="46.426293645054102" lon="8.424431774765253">
        <ele>1995.5899999999999</ele>
        <time>2020-02-23T14:13:38Z</time>
      </trkpt>
      <trkpt lat="46.426243353635073" lon="8.424350218847394">
        <ele>1992.4300000000001</ele>
        <time>2020-02-23T14:13:48Z</time>
      </trkpt>
      <trkpt lat="46.426212089136243" lon="8.424276877194643">
        <ele>1989.79</ele>
        <time>2020-02-23T14:13:57Z</time>
      </trkpt>
      <trkpt lat="46.426198845729232" lon="8.424248294904828">
        <ele>1989.9400000000001</ele>
        <time>2020-02-23T14:14:08Z</time>
      </trkpt>
      <trkpt lat="46.426215106621385" lon="8.424214767292142">
        <ele>1989.53</ele>
        <time>2020-02-23T14:14:22Z</time>
      </trkpt>
      <trkpt lat="46.426245449110866" lon="8.424151483923197">
        <ele>1988.8900000000001</ele>
        <time>2020-02-23T14:14:32Z</time>
      </trkpt>
      <trkpt lat="46.426246454939246" lon="8.424128266051412">
        <ele>1988.0899999999999</ele>
        <time>2020-02-23T14:14:41Z</time>
      </trkpt>
      <trkpt lat="46.426251903176308" lon="8.424127595499158">
        <ele>1988.54</ele>
        <time>2020-02-23T14:14:54Z</time>
      </trkpt>
      <trkpt lat="46.426261710003018" lon="8.424120722338557">
        <ele>1988.6500000000001</ele>
        <time>2020-02-23T14:15:12Z</time>
      </trkpt>
      <trkpt lat="46.426264308393002" lon="8.424125500023365">
        <ele>1987.6800000000001</ele>
        <time>2020-02-23T14:15:31Z</time>
      </trkpt>
      <trkpt lat="46.426271433010697" lon="8.424112256616354">
        <ele>1987.76</ele>
        <time>2020-02-23T14:15:44Z</time>
      </trkpt>
      <trkpt lat="46.426266990602016" lon="8.424128852784634">
        <ele>1987.8</ele>
        <time>2020-02-23T14:16:02Z</time>
      </trkpt>
      <trkpt lat="46.426264392212033" lon="8.424122231081128">
        <ele>1988.3599999999999</ele>
        <time>2020-02-23T14:16:20Z</time>
      </trkpt>
      <trkpt lat="46.426263554021716" lon="8.424114268273115">
        <ele>1986.9100000000001</ele>
        <time>2020-02-23T14:16:29Z</time>
      </trkpt>
      <trkpt lat="46.426263470202684" lon="8.42411401681602">
        <ele>1990.55</ele>
        <time>2020-02-23T14:16:30Z</time>
      </trkpt>
      <trkpt lat="46.426263218745589" lon="8.424113849177957">
        <ele>1989.3199999999999</ele>
        <time>2020-02-23T14:16:31Z</time>
      </trkpt>
      <trkpt lat="46.426262799650431" lon="8.424113178625703">
        <ele>1982.74</ele>
        <time>2020-02-23T14:16:33Z</time>
      </trkpt>
      <trkpt lat="46.426262380555272" lon="8.424112843349576">
        <ele>1986.8199999999999</ele>
        <time>2020-02-23T14:16:34Z</time>
      </trkpt>
      <trkpt lat="46.426261877641082" lon="8.424111502245069">
        <ele>1988.26</ele>
        <time>2020-02-23T14:16:36Z</time>
      </trkpt>
      <trkpt lat="46.426259949803352" lon="8.424106054008007">
        <ele>1990.1500000000001</ele>
        <time>2020-02-23T14:16:40Z</time>
      </trkpt>
      <trkpt lat="46.42625936307013" lon="8.424092894420028">
        <ele>1988.28</ele>
        <time>2020-02-23T14:17:01Z</time>
      </trkpt>
      <trkpt lat="46.426261961460114" lon="8.424090296030045">
        <ele>1987.8800000000001</ele>
        <time>2020-02-23T14:17:19Z</time>
      </trkpt>
      <trkpt lat="46.426262632012367" lon="8.424108317121863">
        <ele>1987.29</ele>
        <time>2020-02-23T14:17:42Z</time>
      </trkpt>
      <trkpt lat="46.426268415525556" lon="8.424113765358925">
        <ele>1988.1900000000001</ele>
        <time>2020-02-23T14:18:05Z</time>
      </trkpt>
      <trkpt lat="46.426245700567961" lon="8.42410228215158">
        <ele>1988.48</ele>
        <time>2020-02-23T14:18:22Z</time>
      </trkpt>
      <trkpt lat="46.426205635070801" lon="8.424049057066441">
        <ele>1985.26</ele>
        <time>2020-02-23T14:18:31Z</time>
      </trkpt>
      <trkpt lat="46.426125587895513" lon="8.424032544717193">
        <ele>1982.1199999999999</ele>
        <time>2020-02-23T14:18:41Z</time>
      </trkpt>
      <trkpt lat="46.426057610660791" lon="8.423976553604007">
        <ele>1979.29</ele>
        <time>2020-02-23T14:18:51Z</time>
      </trkpt>
      <trkpt lat="46.426028860732913" lon="8.423972530290484">
        <ele>1978.0599999999999</ele>
        <time>2020-02-23T14:18:54Z</time>
      </trkpt>
      <trkpt lat="46.42596272751689" lon="8.423936236649752">
        <ele>1975.04</ele>
        <time>2020-02-23T14:19:02Z</time>
      </trkpt>
      <trkpt lat="46.42595442943275" lon="8.423932632431388">
        <ele>1974.77</ele>
        <time>2020-02-23T14:19:03Z</time>
      </trkpt>
      <trkpt lat="46.425872035324574" lon="8.423911593854427">
        <ele>1971.26</ele>
        <time>2020-02-23T14:19:12Z</time>
      </trkpt>
      <trkpt lat="46.425863988697529" lon="8.423903044313192">
        <ele>1970.6099999999999</ele>
        <time>2020-02-23T14:19:13Z</time>
      </trkpt>
      <trkpt lat="46.425801375880837" lon="8.42384428717196">
        <ele>1966.98</ele>
        <time>2020-02-23T14:19:21Z</time>
      </trkpt>
      <trkpt lat="46.425744211301208" lon="8.423791062086821">
        <ele>1963.73</ele>
        <time>2020-02-23T14:19:28Z</time>
      </trkpt>
      <trkpt lat="46.425685035064816" lon="8.423733394593">
        <ele>1960.45</ele>
        <time>2020-02-23T14:19:37Z</time>
      </trkpt>
      <trkpt lat="46.425626194104552" lon="8.42366985976696">
        <ele>1957.3800000000001</ele>
        <time>2020-02-23T14:19:46Z</time>
      </trkpt>
      <trkpt lat="46.425594761967659" lon="8.423617975786328">
        <ele>1954.8699999999999</ele>
        <time>2020-02-23T14:19:52Z</time>
      </trkpt>
      <trkpt lat="46.425538687035441" lon="8.423530971631408">
        <ele>1951.53</ele>
        <time>2020-02-23T14:20:02Z</time>
      </trkpt>
      <trkpt lat="46.425489904358983" lon="8.423453355208039">
        <ele>1948.3800000000001</ele>
        <time>2020-02-23T14:20:11Z</time>
      </trkpt>
      <trkpt lat="46.425442965701222" lon="8.42335763387382">
        <ele>1945.24</ele>
        <time>2020-02-23T14:20:21Z</time>
      </trkpt>
      <trkpt lat="46.425394853577018" lon="8.423242382705212">
        <ele>1942.03</ele>
        <time>2020-02-23T14:20:32Z</time>
      </trkpt>
      <trkpt lat="46.425390662625432" lon="8.423230983316898">
        <ele>1941.8</ele>
        <time>2020-02-23T14:20:33Z</time>
      </trkpt>
      <trkpt lat="46.425366355106235" lon="8.42320759780705">
        <ele>1940.8</ele>
        <time>2020-02-23T14:20:45Z</time>
      </trkpt>
      <trkpt lat="46.425357470288873" lon="8.423185972496867">
        <ele>1941.1800000000001</ele>
        <time>2020-02-23T14:20:57Z</time>
      </trkpt>
      <trkpt lat="46.425350178033113" lon="8.42320516705513">
        <ele>1940.8</ele>
        <time>2020-02-23T14:21:08Z</time>
      </trkpt>
      <trkpt lat="46.425342801958323" lon="8.423209441825748">
        <ele>1940.7</ele>
        <time>2020-02-23T14:21:09Z</time>
      </trkpt>
      <trkpt lat="46.425325870513916" lon="8.423217488452792">
        <ele>1940.3900000000001</ele>
        <time>2020-02-23T14:21:11Z</time>
      </trkpt>
      <trkpt lat="46.425287229940295" lon="8.42321153730154">
        <ele>1939.6700000000001</ele>
        <time>2020-02-23T14:21:15Z</time>
      </trkpt>
      <trkpt lat="46.425123699009418" lon="8.423186056315899">
        <ele>1938.29</ele>
        <time>2020-02-23T14:21:31Z</time>
      </trkpt>
      <trkpt lat="46.424969052895904" lon="8.423240706324577">
        <ele>1937.1300000000001</ele>
        <time>2020-02-23T14:21:46Z</time>
      </trkpt>
      <trkpt lat="46.42491121776402" lon="8.42326870188117">
        <ele>1936.1400000000001</ele>
        <time>2020-02-23T14:21:53Z</time>
      </trkpt>
      <trkpt lat="46.424889173358679" lon="8.423285465687513">
        <ele>1936.3099999999999</ele>
        <time>2020-02-23T14:21:56Z</time>
      </trkpt>
      <trkpt lat="46.424793871119618" lon="8.423412870615721">
        <ele>1934.5999999999999</ele>
        <time>2020-02-23T14:22:10Z</time>
      </trkpt>
      <trkpt lat="46.424738382920623" lon="8.423397867009044">
        <ele>1932.1700000000001</ele>
        <time>2020-02-23T14:22:18Z</time>
      </trkpt>
      <trkpt lat="46.424730252474546" lon="8.423391580581665">
        <ele>1931.5899999999999</ele>
        <time>2020-02-23T14:22:19Z</time>
      </trkpt>
      <trkpt lat="46.424635872244835" lon="8.423322848975658">
        <ele>1927.8599999999999</ele>
        <time>2020-02-23T14:22:31Z</time>
      </trkpt>
      <trkpt lat="46.424574851989746" lon="8.423276580870152">
        <ele>1925.48</ele>
        <time>2020-02-23T14:22:41Z</time>
      </trkpt>
      <trkpt lat="46.424530427902937" lon="8.423229474574328">
        <ele>1922.4000000000001</ele>
        <time>2020-02-23T14:22:48Z</time>
      </trkpt>
      <trkpt lat="46.424491619691253" lon="8.423178177326918">
        <ele>1919.1099999999999</ele>
        <time>2020-02-23T14:22:57Z</time>
      </trkpt>
      <trkpt lat="46.424467144533992" lon="8.423139955848455">
        <ele>1916.9400000000001</ele>
        <time>2020-02-23T14:23:03Z</time>
      </trkpt>
      <trkpt lat="46.424420708790421" lon="8.423084048554301">
        <ele>1913.48</ele>
        <time>2020-02-23T14:23:11Z</time>
      </trkpt>
      <trkpt lat="46.424375446513295" lon="8.423020010814071">
        <ele>1910.3599999999999</ele>
        <time>2020-02-23T14:23:19Z</time>
      </trkpt>
      <trkpt lat="46.424330016598105" lon="8.422948094084859">
        <ele>1907.0799999999999</ele>
        <time>2020-02-23T14:23:28Z</time>
      </trkpt>
      <trkpt lat="46.424274696037173" lon="8.422867879271507">
        <ele>1904.0599999999999</ele>
        <time>2020-02-23T14:23:37Z</time>
      </trkpt>
      <trkpt lat="46.42426623031497" lon="8.422842482104898">
        <ele>1903.47</ele>
        <time>2020-02-23T14:23:39Z</time>
      </trkpt>
      <trkpt lat="46.424237145110965" lon="8.422708455473185">
        <ele>1899.98</ele>
        <time>2020-02-23T14:23:49Z</time>
      </trkpt>
      <trkpt lat="46.424225745722651" lon="8.422606363892555">
        <ele>1897.3699999999999</ele>
        <time>2020-02-23T14:23:57Z</time>
      </trkpt>
      <trkpt lat="46.424223482608795" lon="8.422594964504242">
        <ele>1897.29</ele>
        <time>2020-02-23T14:23:58Z</time>
      </trkpt>
      <trkpt lat="46.424225075170398" lon="8.42252254486084">
        <ele>1896.47</ele>
        <time>2020-02-23T14:24:09Z</time>
      </trkpt>
      <trkpt lat="46.424219626933336" lon="8.422508463263512">
        <ele>1895.76</ele>
        <time>2020-02-23T14:24:20Z</time>
      </trkpt>
      <trkpt lat="46.424231864511967" lon="8.422458339482546">
        <ele>1892.74</ele>
        <time>2020-02-23T14:24:30Z</time>
      </trkpt>
      <trkpt lat="46.424226500093937" lon="8.422375777736306">
        <ele>1889.4000000000001</ele>
        <time>2020-02-23T14:24:41Z</time>
      </trkpt>
      <trkpt lat="46.424219962209463" lon="8.422285672277212">
        <ele>1886.28</ele>
        <time>2020-02-23T14:24:51Z</time>
      </trkpt>
      <trkpt lat="46.424210406839848" lon="8.42219959013164">
        <ele>1882.9200000000001</ele>
        <time>2020-02-23T14:25:01Z</time>
      </trkpt>
      <trkpt lat="46.424182578921318" lon="8.422114765271545">
        <ele>1879.8099999999999</ele>
        <time>2020-02-23T14:25:12Z</time>
      </trkpt>
      <trkpt lat="46.424163300544024" lon="8.422046201303601">
        <ele>1877.74</ele>
        <time>2020-02-23T14:25:21Z</time>
      </trkpt>
      <trkpt lat="46.424165396019816" lon="8.422037148848176">
        <ele>1878.1500000000001</ele>
        <time>2020-02-23T14:25:34Z</time>
      </trkpt>
      <trkpt lat="46.42411669716239" lon="8.422004794701934">
        <ele>1877.95</ele>
        <time>2020-02-23T14:25:47Z</time>
      </trkpt>
      <trkpt lat="46.423963811248541" lon="8.421897003427148">
        <ele>1874.8699999999999</ele>
        <time>2020-02-23T14:26:03Z</time>
      </trkpt>
      <trkpt lat="46.42381327226758" lon="8.421884346753359">
        <ele>1873.75</ele>
        <time>2020-02-23T14:26:18Z</time>
      </trkpt>
      <trkpt lat="46.423700368031859" lon="8.421958945691586">
        <ele>1872.9400000000001</ele>
        <time>2020-02-23T14:26:31Z</time>
      </trkpt>
      <trkpt lat="46.423647478222847" lon="8.421954922378063">
        <ele>1869.71</ele>
        <time>2020-02-23T14:26:40Z</time>
      </trkpt>
      <trkpt lat="46.423613112419844" lon="8.421955844387412">
        <ele>1866.6700000000001</ele>
        <time>2020-02-23T14:26:48Z</time>
      </trkpt>
      <trkpt lat="46.423562485724688" lon="8.421955844387412">
        <ele>1867.1099999999999</ele>
        <time>2020-02-23T14:27:09Z</time>
      </trkpt>
      <trkpt lat="46.423490988090634" lon="8.422023402526975">
        <ele>1864.6199999999999</ele>
        <time>2020-02-23T14:27:18Z</time>
      </trkpt>
      <trkpt lat="46.423386968672276" lon="8.422040669247508">
        <ele>1862.97</ele>
        <time>2020-02-23T14:27:30Z</time>
      </trkpt>
      <trkpt lat="46.423294600099325" lon="8.422052068635821">
        <ele>1860.3299999999999</ele>
        <time>2020-02-23T14:27:41Z</time>
      </trkpt>
      <trkpt lat="46.423198543488979" lon="8.422056511044502">
        <ele>1857.24</ele>
        <time>2020-02-23T14:27:52Z</time>
      </trkpt>
      <trkpt lat="46.423101732507348" lon="8.422030275687575">
        <ele>1854</ele>
        <time>2020-02-23T14:28:04Z</time>
      </trkpt>
      <trkpt lat="46.4229781832546" lon="8.422004375606775">
        <ele>1850.99</ele>
        <time>2020-02-23T14:28:16Z</time>
      </trkpt>
      <trkpt lat="46.422878270968795" lon="8.421973278746009">
        <ele>1847.7</ele>
        <time>2020-02-23T14:28:27Z</time>
      </trkpt>
      <trkpt lat="46.422831667587161" lon="8.421946708112955">
        <ele>1844.49</ele>
        <time>2020-02-23T14:28:36Z</time>
      </trkpt>
      <trkpt lat="46.422814736142755" lon="8.421941427513957">
        <ele>1845.28</ele>
        <time>2020-02-23T14:28:51Z</time>
      </trkpt>
      <trkpt lat="46.422794619575143" lon="8.421937571838498">
        <ele>1844.73</ele>
        <time>2020-02-23T14:28:53Z</time>
      </trkpt>
      <trkpt lat="46.422675680369139" lon="8.421904379501939">
        <ele>1842.0599999999999</ele>
        <time>2020-02-23T14:29:06Z</time>
      </trkpt>
      <trkpt lat="46.422581551596522" lon="8.421905804425478">
        <ele>1839.6600000000001</ele>
        <time>2020-02-23T14:29:18Z</time>
      </trkpt>
      <trkpt lat="46.422563781961799" lon="8.421907061710954">
        <ele>1839.1500000000001</ele>
        <time>2020-02-23T14:29:20Z</time>
      </trkpt>
      <trkpt lat="46.422518184408545" lon="8.421929776668549">
        <ele>1837.74</ele>
        <time>2020-02-23T14:29:27Z</time>
      </trkpt>
      <trkpt lat="46.422462444752455" lon="8.421932458877564">
        <ele>1836.03</ele>
        <time>2020-02-23T14:29:33Z</time>
      </trkpt>
      <trkpt lat="46.42234836705029" lon="8.421952659264207">
        <ele>1833.28</ele>
        <time>2020-02-23T14:29:46Z</time>
      </trkpt>
      <trkpt lat="46.422218782827258" lon="8.421948635950685">
        <ele>1830.8900000000001</ele>
        <time>2020-02-23T14:30:00Z</time>
      </trkpt>
      <trkpt lat="46.422074111178517" lon="8.421942517161369">
        <ele>1828.53</ele>
        <time>2020-02-23T14:30:16Z</time>
      </trkpt>
      <trkpt lat="46.421964475885034" lon="8.421950563788414">
        <ele>1826.29</ele>
        <time>2020-02-23T14:30:30Z</time>
      </trkpt>
      <trkpt lat="46.421954920515418" lon="8.421947881579399">
        <ele>1826.0599999999999</ele>
        <time>2020-02-23T14:30:36Z</time>
      </trkpt>
      <trkpt lat="46.421868922188878" lon="8.421974368393421">
        <ele>1823.46</ele>
        <time>2020-02-23T14:30:47Z</time>
      </trkpt>
      <trkpt lat="46.421797424554825" lon="8.421979397535324">
        <ele>1820.3699999999999</ele>
        <time>2020-02-23T14:30:57Z</time>
      </trkpt>
      <trkpt lat="46.421713605523109" lon="8.421995406970382">
        <ele>1817.78</ele>
        <time>2020-02-23T14:31:09Z</time>
      </trkpt>
      <trkpt lat="46.421612184494734" lon="8.422004040330648">
        <ele>1814.49</ele>
        <time>2020-02-23T14:31:22Z</time>
      </trkpt>
      <trkpt lat="46.421578656882048" lon="8.42201585881412">
        <ele>1811.99</ele>
        <time>2020-02-23T14:31:33Z</time>
      </trkpt>
      <trkpt lat="46.421583099290729" lon="8.422021055594087">
        <ele>1813.3</ele>
        <time>2020-02-23T14:31:43Z</time>
      </trkpt>
      <trkpt lat="46.421535406261683" lon="8.422014266252518">
        <ele>1811.5999999999999</ele>
        <time>2020-02-23T14:31:51Z</time>
      </trkpt>
      <trkpt lat="46.421464327722788" lon="8.421999262645841">
        <ele>1808.3099999999999</ele>
        <time>2020-02-23T14:32:01Z</time>
      </trkpt>
      <trkpt lat="46.421431638300419" lon="8.421939918771386">
        <ele>1805.6600000000001</ele>
        <time>2020-02-23T14:32:11Z</time>
      </trkpt>
      <trkpt lat="46.421428788453341" lon="8.421944109722972">
        <ele>1805.3599999999999</ele>
        <time>2020-02-23T14:32:29Z</time>
      </trkpt>
      <trkpt lat="46.421424178406596" lon="8.421834809705615">
        <ele>1802.24</ele>
        <time>2020-02-23T14:32:41Z</time>
      </trkpt>
      <trkpt lat="46.421397943049669" lon="8.421772364526987">
        <ele>1799.1500000000001</ele>
        <time>2020-02-23T14:32:50Z</time>
      </trkpt>
      <trkpt lat="46.421367600560188" lon="8.421690138056874">
        <ele>1795.6800000000001</ele>
        <time>2020-02-23T14:32:59Z</time>
      </trkpt>
      <trkpt lat="46.42136424779892" lon="8.421681756153703">
        <ele>1795.3900000000001</ele>
        <time>2020-02-23T14:33:00Z</time>
      </trkpt>
      <trkpt lat="46.421349160373211" lon="8.421642696484923">
        <ele>1793.6900000000001</ele>
        <time>2020-02-23T14:33:04Z</time>
      </trkpt>
      <trkpt lat="46.421311693266034" lon="8.421545885503292">
        <ele>1790.45</ele>
        <time>2020-02-23T14:33:14Z</time>
      </trkpt>
      <trkpt lat="46.421300964429975" lon="8.421491906046867">
        <ele>1788.3699999999999</ele>
        <time>2020-02-23T14:33:26Z</time>
      </trkpt>
      <trkpt lat="46.421309430152178" lon="8.421497521921992">
        <ele>1788.6500000000001</ele>
        <time>2020-02-23T14:33:37Z</time>
      </trkpt>
      <trkpt lat="46.421298366039991" lon="8.421482853591442">
        <ele>1787.8099999999999</ele>
        <time>2020-02-23T14:33:54Z</time>
      </trkpt>
      <trkpt lat="46.421274309977889" lon="8.42138746753335">
        <ele>1785.01</ele>
        <time>2020-02-23T14:34:02Z</time>
      </trkpt>
      <trkpt lat="46.421260898932815" lon="8.421277832239866">
        <ele>1782.54</ele>
        <time>2020-02-23T14:34:10Z</time>
      </trkpt>
      <trkpt lat="46.421229718253016" lon="8.421145984902978">
        <ele>1778.8699999999999</ele>
        <time>2020-02-23T14:34:19Z</time>
      </trkpt>
      <trkpt lat="46.421201219782233" lon="8.42104054056108">
        <ele>1775.4100000000001</ele>
        <time>2020-02-23T14:34:27Z</time>
      </trkpt>
      <trkpt lat="46.421165345236659" lon="8.420930402353406">
        <ele>1772.1900000000001</ele>
        <time>2020-02-23T14:34:37Z</time>
      </trkpt>
      <trkpt lat="46.421137433499098" lon="8.420818923041225">
        <ele>1769.1800000000001</ele>
        <time>2020-02-23T14:34:45Z</time>
      </trkpt>
      <trkpt lat="46.4211096893996" lon="8.42068238183856">
        <ele>1766.03</ele>
        <time>2020-02-23T14:34:54Z</time>
      </trkpt>
      <trkpt lat="46.421093428507447" lon="8.420517425984144">
        <ele>1762.9100000000001</ele>
        <time>2020-02-23T14:35:04Z</time>
      </trkpt>
      <trkpt lat="46.421048166230321" lon="8.420337634161115">
        <ele>1759.8900000000001</ele>
        <time>2020-02-23T14:35:17Z</time>
      </trkpt>
      <trkpt lat="46.421001981943846" lon="8.420122973620892">
        <ele>1757.8299999999999</ele>
        <time>2020-02-23T14:35:30Z</time>
      </trkpt>
      <trkpt lat="46.420940374955535" lon="8.420014176517725">
        <ele>1756.5999999999999</ele>
        <time>2020-02-23T14:35:42Z</time>
      </trkpt>
      <trkpt lat="46.420938530936837" lon="8.420038819313049">
        <ele>1757.1800000000001</ele>
        <time>2020-02-23T14:35:51Z</time>
      </trkpt>
      <trkpt lat="46.420952025800943" lon="8.4200310241431">
        <ele>1754.78</ele>
        <time>2020-02-23T14:36:05Z</time>
      </trkpt>
      <trkpt lat="46.420950265601277" lon="8.420036220923066">
        <ele>1754.8499999999999</ele>
        <time>2020-02-23T14:36:40Z</time>
      </trkpt>
      <trkpt lat="46.42095185816288" lon="8.420039573684335">
        <ele>1757.3199999999999</ele>
        <time>2020-02-23T14:36:42Z</time>
      </trkpt>
      <trkpt lat="46.420961078256369" lon="8.420044267550111">
        <ele>1755.53</ele>
        <time>2020-02-23T14:36:52Z</time>
      </trkpt>
      <trkpt lat="46.420968370512128" lon="8.420038735494018">
        <ele>1753.6800000000001</ele>
        <time>2020-02-23T14:37:11Z</time>
      </trkpt>
      <trkpt lat="46.420954540371895" lon="8.420047117397189">
        <ele>1756.6099999999999</ele>
        <time>2020-02-23T14:37:27Z</time>
      </trkpt>
      <trkpt lat="46.420961245894432" lon="8.420023480430245">
        <ele>1756.21</ele>
        <time>2020-02-23T14:37:40Z</time>
      </trkpt>
      <trkpt lat="46.420951522886753" lon="8.420010739937425">
        <ele>1756.53</ele>
        <time>2020-02-23T14:37:53Z</time>
      </trkpt>
      <trkpt lat="46.420954372733831" lon="8.420001855120063">
        <ele>1756.04</ele>
        <time>2020-02-23T14:38:07Z</time>
      </trkpt>
      <trkpt lat="46.420950936153531" lon="8.419993054121733">
        <ele>1755.73</ele>
        <time>2020-02-23T14:38:08Z</time>
      </trkpt>
      <trkpt lat="46.420926041901112" lon="8.419893058016896">
        <ele>1753.4300000000001</ele>
        <time>2020-02-23T14:38:22Z</time>
      </trkpt>
      <trkpt lat="46.420893771573901" lon="8.419774286448956">
        <ele>1751.9100000000001</ele>
        <time>2020-02-23T14:38:35Z</time>
      </trkpt>
      <trkpt lat="46.420855801552534" lon="8.419570354744792">
        <ele>1750.01</ele>
        <time>2020-02-23T14:38:49Z</time>
      </trkpt>
      <trkpt lat="46.420882372185588" lon="8.419389640912414">
        <ele>1748.1099999999999</ele>
        <time>2020-02-23T14:39:02Z</time>
      </trkpt>
      <trkpt lat="46.420923694968224" lon="8.41919157654047">
        <ele>1744.98</ele>
        <time>2020-02-23T14:39:17Z</time>
      </trkpt>
      <trkpt lat="46.420958898961544" lon="8.419057046994567">
        <ele>1744</ele>
        <time>2020-02-23T14:39:31Z</time>
      </trkpt>
      <trkpt lat="46.420960491523147" lon="8.419055873528123">
        <ele>1743.95</ele>
        <time>2020-02-23T14:39:32Z</time>
      </trkpt>
      <trkpt lat="46.420973399654031" lon="8.419035421684384">
        <ele>1743.9300000000001</ele>
        <time>2020-02-23T14:39:34Z</time>
      </trkpt>
      <trkpt lat="46.421011537313461" lon="8.418973730877042">
        <ele>1742.9000000000001</ele>
        <time>2020-02-23T14:39:39Z</time>
      </trkpt>
      <trkpt lat="46.421155286952853" lon="8.418789245188236">
        <ele>1740.27</ele>
        <time>2020-02-23T14:39:57Z</time>
      </trkpt>
      <trkpt lat="46.421217815950513" lon="8.418551785871387">
        <ele>1737.4000000000001</ele>
        <time>2020-02-23T14:40:13Z</time>
      </trkpt>
      <trkpt lat="46.421229299157858" lon="8.418277027085424">
        <ele>1735.3199999999999</ele>
        <time>2020-02-23T14:40:31Z</time>
      </trkpt>
      <trkpt lat="46.421232987195253" lon="8.418186586350203">
        <ele>1735.74</ele>
        <time>2020-02-23T14:40:44Z</time>
      </trkpt>
      <trkpt lat="46.421238351613283" lon="8.418193543329835">
        <ele>1735.71</ele>
        <time>2020-02-23T14:41:02Z</time>
      </trkpt>
      <trkpt lat="46.421235082671046" lon="8.418176779523492">
        <ele>1734.76</ele>
        <time>2020-02-23T14:41:05Z</time>
      </trkpt>
      <trkpt lat="46.421211697161198" lon="8.417954407632351">
        <ele>1733.0599999999999</ele>
        <time>2020-02-23T14:41:19Z</time>
      </trkpt>
      <trkpt lat="46.421174230054021" lon="8.41772323474288">
        <ele>1733.0899999999999</ele>
        <time>2020-02-23T14:41:35Z</time>
      </trkpt>
      <trkpt lat="46.421113796532154" lon="8.417513770982623">
        <ele>1733</ele>
        <time>2020-02-23T14:41:51Z</time>
      </trkpt>
      <trkpt lat="46.421108515933156" lon="8.417502539232373">
        <ele>1733.01</ele>
        <time>2020-02-23T14:41:52Z</time>
      </trkpt>
      <trkpt lat="46.420994689688087" lon="8.417383600026369">
        <ele>1731.3900000000001</ele>
        <time>2020-02-23T14:42:07Z</time>
      </trkpt>
      <trkpt lat="46.420939704403281" lon="8.417325681075454">
        <ele>1731.6300000000001</ele>
        <time>2020-02-23T14:42:14Z</time>
      </trkpt>
      <trkpt lat="46.420813724398613" lon="8.417226104065776">
        <ele>1731.0999999999999</ele>
        <time>2020-02-23T14:42:29Z</time>
      </trkpt>
      <trkpt lat="46.420682212337852" lon="8.417151840403676">
        <ele>1730.8099999999999</ele>
        <time>2020-02-23T14:42:44Z</time>
      </trkpt>
      <trkpt lat="46.42055606469512" lon="8.417075481265783">
        <ele>1730.77</ele>
        <time>2020-02-23T14:42:58Z</time>
      </trkpt>
      <trkpt lat="46.420428408309817" lon="8.417039690539241">
        <ele>1729.52</ele>
        <time>2020-02-23T14:43:11Z</time>
      </trkpt>
      <trkpt lat="46.420335453003645" lon="8.417065506801009">
        <ele>1729.1199999999999</ele>
        <time>2020-02-23T14:43:22Z</time>
      </trkpt>
      <trkpt lat="46.420254819095135" lon="8.417080426588655">
        <ele>1728.54</ele>
        <time>2020-02-23T14:43:31Z</time>
      </trkpt>
      <trkpt lat="46.420178459957242" lon="8.416903400793672">
        <ele>1728.1500000000001</ele>
        <time>2020-02-23T14:43:46Z</time>
      </trkpt>
      <trkpt lat="46.420164126902819" lon="8.416892420500517">
        <ele>1728.5</ele>
        <time>2020-02-23T14:43:48Z</time>
      </trkpt>
      <trkpt lat="46.420027334243059" lon="8.416898204013705">
        <ele>1728.29</ele>
        <time>2020-02-23T14:44:03Z</time>
      </trkpt>
      <trkpt lat="46.420002691447735" lon="8.416882529854775">
        <ele>1727.8800000000001</ele>
        <time>2020-02-23T14:44:14Z</time>
      </trkpt>
      <trkpt lat="46.420002272352576" lon="8.416881691664457">
        <ele>1728.1199999999999</ele>
        <time>2020-02-23T14:44:26Z</time>
      </trkpt>
      <trkpt lat="46.42000243999064" lon="8.416876075789332">
        <ele>1727.8499999999999</ele>
        <time>2020-02-23T14:44:49Z</time>
      </trkpt>
      <trkpt lat="46.419991124421358" lon="8.416865430772305">
        <ele>1727.4300000000001</ele>
        <time>2020-02-23T14:45:08Z</time>
      </trkpt>
      <trkpt lat="46.419984837993979" lon="8.416863838210702">
        <ele>1728.0699999999999</ele>
        <time>2020-02-23T14:45:23Z</time>
      </trkpt>
      <trkpt lat="46.419988106936216" lon="8.416865933686495">
        <ele>1727.95</ele>
        <time>2020-02-23T14:45:42Z</time>
      </trkpt>
      <trkpt lat="46.419985089451075" lon="8.416862832382321">
        <ele>1727.72</ele>
        <time>2020-02-23T14:46:07Z</time>
      </trkpt>
      <trkpt lat="46.419954244047403" lon="8.416842212900519">
        <ele>1727.8900000000001</ele>
        <time>2020-02-23T14:46:19Z</time>
      </trkpt>
      <trkpt lat="46.419912418350577" lon="8.416766356676817">
        <ele>1727.4400000000001</ele>
        <time>2020-02-23T14:46:33Z</time>
      </trkpt>
      <trkpt lat="46.419836394488811" lon="8.416767446324229">
        <ele>1726.25</ele>
        <time>2020-02-23T14:46:46Z</time>
      </trkpt>
      <trkpt lat="46.419842178002" lon="8.41676794923842">
        <ele>1725.8599999999999</ele>
        <time>2020-02-23T14:47:02Z</time>
      </trkpt>
      <trkpt lat="46.419832874089479" lon="8.416750095784664">
        <ele>1726.29</ele>
        <time>2020-02-23T14:47:08Z</time>
      </trkpt>
      <trkpt lat="46.41981870867312" lon="8.416697457432747">
        <ele>1725.75</ele>
        <time>2020-02-23T14:47:12Z</time>
      </trkpt>
      <trkpt lat="46.419714689254761" lon="8.416566951200366">
        <ele>1725.26</ele>
        <time>2020-02-23T14:47:26Z</time>
      </trkpt>
      <trkpt lat="46.419549062848091" lon="8.416531328111887">
        <ele>1725.3</ele>
        <time>2020-02-23T14:47:42Z</time>
      </trkpt>
      <trkpt lat="46.419528946280479" lon="8.416520347818732">
        <ele>1725.51</ele>
        <time>2020-02-23T14:47:44Z</time>
      </trkpt>
      <trkpt lat="46.419329959899187" lon="8.416500315070152">
        <ele>1725.71</ele>
        <time>2020-02-23T14:48:02Z</time>
      </trkpt>
      <trkpt lat="46.419164920225739" lon="8.416519425809383">
        <ele>1725.8800000000001</ele>
        <time>2020-02-23T14:48:17Z</time>
      </trkpt>
      <trkpt lat="46.41899879090488" lon="8.416515905410051">
        <ele>1726.1700000000001</ele>
        <time>2020-02-23T14:48:32Z</time>
      </trkpt>
      <trkpt lat="46.418796451762319" lon="8.416547421365976">
        <ele>1726.6099999999999</ele>
        <time>2020-02-23T14:48:50Z</time>
      </trkpt>
      <trkpt lat="46.418636608868837" lon="8.416557395830751">
        <ele>1726.54</ele>
        <time>2020-02-23T14:49:04Z</time>
      </trkpt>
      <trkpt lat="46.418438879773021" lon="8.416532585397363">
        <ele>1726.22</ele>
        <time>2020-02-23T14:49:21Z</time>
      </trkpt>
      <trkpt lat="46.418233355507255" lon="8.416477851569653">
        <ele>1725.5799999999999</ele>
        <time>2020-02-23T14:49:39Z</time>
      </trkpt>
      <trkpt lat="46.418036883696914" lon="8.416422111913562">
        <ele>1724.4300000000001</ele>
        <time>2020-02-23T14:49:57Z</time>
      </trkpt>
      <trkpt lat="46.417860193178058" lon="8.416366623714566">
        <ele>1723.54</ele>
        <time>2020-02-23T14:50:13Z</time>
      </trkpt>
      <trkpt lat="46.417646873742342" lon="8.416283810511231">
        <ele>1723.26</ele>
        <time>2020-02-23T14:50:32Z</time>
      </trkpt>
      <trkpt lat="46.417421903461218" lon="8.416202170774341">
        <ele>1722.78</ele>
        <time>2020-02-23T14:50:52Z</time>
      </trkpt>
      <trkpt lat="46.41724169254303" lon="8.416099743917584">
        <ele>1722.9300000000001</ele>
        <time>2020-02-23T14:51:09Z</time>
      </trkpt>
      <trkpt lat="46.41707950271666" lon="8.415954569354653">
        <ele>1723.2</ele>
        <time>2020-02-23T14:51:26Z</time>
      </trkpt>
      <trkpt lat="46.416940363124013" lon="8.415753738954663">
        <ele>1723.3499999999999</ele>
        <time>2020-02-23T14:51:44Z</time>
      </trkpt>
      <trkpt lat="46.416816227138042" lon="8.415554584935308">
        <ele>1723.8900000000001</ele>
        <time>2020-02-23T14:52:01Z</time>
      </trkpt>
      <trkpt lat="46.416688822209835" lon="8.415368003770709">
        <ele>1723.3199999999999</ele>
        <time>2020-02-23T14:52:18Z</time>
      </trkpt>
      <trkpt lat="46.416585054248571" lon="8.415231965482235">
        <ele>1724.0599999999999</ele>
        <time>2020-02-23T14:52:31Z</time>
      </trkpt>
      <trkpt lat="46.41648874618113" lon="8.415150325745344">
        <ele>1724.1800000000001</ele>
        <time>2020-02-23T14:52:46Z</time>
      </trkpt>
      <trkpt lat="46.416460331529379" lon="8.415183769538999">
        <ele>1723.8099999999999</ele>
        <time>2020-02-23T14:52:55Z</time>
      </trkpt>
      <trkpt lat="46.416442226618528" lon="8.415190558880568">
        <ele>1724.4000000000001</ele>
        <time>2020-02-23T14:53:07Z</time>
      </trkpt>
      <trkpt lat="46.416451949626207" lon="8.415186954662204">
        <ele>1724.8499999999999</ele>
        <time>2020-02-23T14:53:27Z</time>
      </trkpt>
      <trkpt lat="46.416450440883636" lon="8.415183098986745">
        <ele>1723.9200000000001</ele>
        <time>2020-02-23T14:53:39Z</time>
      </trkpt>
      <trkpt lat="46.416463181376457" lon="8.415182176977396">
        <ele>1722.8499999999999</ele>
        <time>2020-02-23T14:54:17Z</time>
      </trkpt>
      <trkpt lat="46.416466617956758" lon="8.415177315473557">
        <ele>1723.24</ele>
        <time>2020-02-23T14:54:44Z</time>
      </trkpt>
      <trkpt lat="46.416466115042567" lon="8.41518821194768">
        <ele>1723.1300000000001</ele>
        <time>2020-02-23T14:55:20Z</time>
      </trkpt>
      <trkpt lat="46.416471311822534" lon="8.415208077058196">
        <ele>1722.99</ele>
        <time>2020-02-23T14:56:06Z</time>
      </trkpt>
      <trkpt lat="46.416474496945739" lon="8.415226433426142">
        <ele>1723.2</ele>
        <time>2020-02-23T14:56:40Z</time>
      </trkpt>
      <trkpt lat="46.416473323479295" lon="8.415225343778729">
        <ele>1722.55</ele>
        <time>2020-02-23T14:57:11Z</time>
      </trkpt>
      <trkpt lat="46.416488075628877" lon="8.41522827744484">
        <ele>1721.74</ele>
        <time>2020-02-23T14:57:47Z</time>
      </trkpt>
      <trkpt lat="46.416490757837892" lon="8.415246298536658">
        <ele>1721.73</ele>
        <time>2020-02-23T14:58:29Z</time>
      </trkpt>
      <trkpt lat="46.41648824326694" lon="8.415250154212117">
        <ele>1722.29</ele>
        <time>2020-02-23T14:59:01Z</time>
      </trkpt>
      <trkpt lat="46.416487321257591" lon="8.415235066786408">
        <ele>1721.99</ele>
        <time>2020-02-23T14:59:28Z</time>
      </trkpt>
      <trkpt lat="46.416484219953418" lon="8.415245376527309">
        <ele>1721.98</ele>
        <time>2020-02-23T14:59:59Z</time>
      </trkpt>
      <trkpt lat="46.416477933526039" lon="8.415264906361699">
        <ele>1722.8299999999999</ele>
        <time>2020-02-23T15:00:39Z</time>
      </trkpt>
      <trkpt lat="46.416457565501332" lon="8.415256273001432">
        <ele>1722.6900000000001</ele>
        <time>2020-02-23T15:01:02Z</time>
      </trkpt>
    </trkseg>
  </trk>

</gpx>